<?xml version="1.0" encoding="UTF-8" standalone="no" ?>
<gpx xmlns="http://www.topografix.com/GPX/1/1" xmlns:xsi="http://www.w3.org/2001/XMLSchema-instance" xsi:schemaLocation="http://www.topografix.com/GPX/1/1 http://www.topografix.com/GPX/1/1/gpx.xsd" version="1.1" creator="VisuGPX - https://www.visugpx.com">
  <metadata>
    <name>lbvm 2024 ollive 1 </name>
  </metadata>
  <trk>
    <name><![CDATA[Parcours Tri alpe L-19148335]]></name>
    <trkseg>
      <trkpt lat="45.05877" lon="6.02851">
        <ele>721</ele>
        <time>2024-06-04T20:31:11Z</time>
      </trkpt>
      <trkpt lat="45.05881" lon="6.02824">
        <ele>721</ele>
        <time>2024-06-04T20:31:14Z</time>
      </trkpt>
      <trkpt lat="45.05889" lon="6.02817">
        <ele>720</ele>
        <time>2024-06-04T20:31:16Z</time>
      </trkpt>
      <trkpt lat="45.05888" lon="6.02815">
        <ele>720</ele>
        <time>2024-06-04T20:31:16Z</time>
      </trkpt>
      <trkpt lat="45.05979" lon="6.02745">
        <ele>718</ele>
        <time>2024-06-04T20:31:35Z</time>
      </trkpt>
      <trkpt lat="45.05977" lon="6.02741">
        <ele>718</ele>
        <time>2024-06-04T20:31:35Z</time>
      </trkpt>
      <trkpt lat="45.06087" lon="6.02657">
        <ele>717</ele>
        <time>2024-06-04T20:31:58Z</time>
      </trkpt>
      <trkpt lat="45.06137" lon="6.02613">
        <ele>715</ele>
        <time>2024-06-04T20:32:08Z</time>
      </trkpt>
      <trkpt lat="45.0616" lon="6.02597">
        <ele>715</ele>
        <time>2024-06-04T20:32:13Z</time>
      </trkpt>
      <trkpt lat="45.06175" lon="6.0259">
        <ele>715</ele>
        <time>2024-06-04T20:32:16Z</time>
      </trkpt>
      <trkpt lat="45.06264" lon="6.02521">
        <ele>718</ele>
        <time>2024-06-04T20:32:34Z</time>
      </trkpt>
      <trkpt lat="45.06307" lon="6.0249">
        <ele>718</ele>
        <time>2024-06-04T20:32:42Z</time>
      </trkpt>
      <trkpt lat="45.06344" lon="6.02481">
        <ele>718</ele>
        <time>2024-06-04T20:32:49Z</time>
      </trkpt>
      <trkpt lat="45.06352" lon="6.02488">
        <ele>719</ele>
        <time>2024-06-04T20:32:51Z</time>
      </trkpt>
      <trkpt lat="45.06361" lon="6.02489">
        <ele>719</ele>
        <time>2024-06-04T20:32:52Z</time>
      </trkpt>
      <trkpt lat="45.06368" lon="6.02486">
        <ele>719</ele>
        <time>2024-06-04T20:32:53Z</time>
      </trkpt>
      <trkpt lat="45.06374" lon="6.02479">
        <ele>719</ele>
        <time>2024-06-04T20:32:55Z</time>
      </trkpt>
      <trkpt lat="45.06376" lon="6.02472">
        <ele>719</ele>
        <time>2024-06-04T20:32:56Z</time>
      </trkpt>
      <trkpt lat="45.06377" lon="6.02457">
        <ele>719</ele>
        <time>2024-06-04T20:32:58Z</time>
      </trkpt>
      <trkpt lat="45.06383" lon="6.02445">
        <ele>719</ele>
        <time>2024-06-04T20:33:00Z</time>
      </trkpt>
      <trkpt lat="45.06396" lon="6.02425">
        <ele>719</ele>
        <time>2024-06-04T20:33:03Z</time>
      </trkpt>
      <trkpt lat="45.06612" lon="6.02258">
        <ele>720</ele>
        <time>2024-06-04T20:33:47Z</time>
      </trkpt>
      <trkpt lat="45.06733" lon="6.02166">
        <ele>717</ele>
        <time>2024-06-04T20:34:11Z</time>
      </trkpt>
      <trkpt lat="45.06872" lon="6.02057">
        <ele>717</ele>
        <time>2024-06-04T20:34:39Z</time>
      </trkpt>
      <trkpt lat="45.06992" lon="6.01967">
        <ele>726</ele>
        <time>2024-06-04T20:35:04Z</time>
      </trkpt>
      <trkpt lat="45.07115" lon="6.0188">
        <ele>748</ele>
        <time>2024-06-04T20:35:28Z</time>
      </trkpt>
      <trkpt lat="45.07359" lon="6.01683">
        <ele>727</ele>
        <time>2024-06-04T20:36:18Z</time>
      </trkpt>
      <trkpt lat="45.07401" lon="6.01651">
        <ele>728</ele>
        <time>2024-06-04T20:36:27Z</time>
      </trkpt>
      <trkpt lat="45.07417" lon="6.01638">
        <ele>728</ele>
        <time>2024-06-04T20:36:30Z</time>
      </trkpt>
      <trkpt lat="45.07602" lon="6.01497">
        <ele>724</ele>
        <time>2024-06-04T20:37:07Z</time>
      </trkpt>
      <trkpt lat="45.07637" lon="6.01477">
        <ele>723</ele>
        <time>2024-06-04T20:37:14Z</time>
      </trkpt>
      <trkpt lat="45.08036" lon="6.0138">
        <ele>714</ele>
        <time>2024-06-04T20:38:26Z</time>
      </trkpt>
      <trkpt lat="45.08896" lon="6.01177">
        <ele>714</ele>
        <time>2024-06-04T20:41:01Z</time>
      </trkpt>
      <trkpt lat="45.08961" lon="6.01162">
        <ele>714</ele>
        <time>2024-06-04T20:41:13Z</time>
      </trkpt>
      <trkpt lat="45.0899" lon="6.01157">
        <ele>714</ele>
        <time>2024-06-04T20:41:18Z</time>
      </trkpt>
      <trkpt lat="45.09025" lon="6.01156">
        <ele>714</ele>
        <time>2024-06-04T20:41:24Z</time>
      </trkpt>
      <trkpt lat="45.09037" lon="6.01154">
        <ele>714</ele>
        <time>2024-06-04T20:41:26Z</time>
      </trkpt>
      <trkpt lat="45.09078" lon="6.01134">
        <ele>714</ele>
        <time>2024-06-04T20:41:34Z</time>
      </trkpt>
      <trkpt lat="45.09702" lon="6.00987">
        <ele>712</ele>
        <time>2024-06-04T20:43:27Z</time>
      </trkpt>
      <trkpt lat="45.09723" lon="6.00979">
        <ele>712</ele>
        <time>2024-06-04T20:43:31Z</time>
      </trkpt>
      <trkpt lat="45.09746" lon="6.00963">
        <ele>713</ele>
        <time>2024-06-04T20:43:35Z</time>
      </trkpt>
      <trkpt lat="45.09763" lon="6.00956">
        <ele>714</ele>
        <time>2024-06-04T20:43:38Z</time>
      </trkpt>
      <trkpt lat="45.09776" lon="6.00955">
        <ele>714</ele>
        <time>2024-06-04T20:43:41Z</time>
      </trkpt>
      <trkpt lat="45.09813" lon="6.00958">
        <ele>714</ele>
        <time>2024-06-04T20:43:47Z</time>
      </trkpt>
      <trkpt lat="45.09841" lon="6.00953">
        <ele>714</ele>
        <time>2024-06-04T20:43:52Z</time>
      </trkpt>
      <trkpt lat="45.11366" lon="6.00594">
        <ele>718</ele>
        <time>2024-06-04T20:48:27Z</time>
      </trkpt>
      <trkpt lat="45.11394" lon="6.00581">
        <ele>716</ele>
        <time>2024-06-04T20:48:32Z</time>
      </trkpt>
      <trkpt lat="45.11419" lon="6.00561">
        <ele>714</ele>
        <time>2024-06-04T20:48:38Z</time>
      </trkpt>
      <trkpt lat="45.11432" lon="6.00545">
        <ele>714</ele>
        <time>2024-06-04T20:48:41Z</time>
      </trkpt>
      <trkpt lat="45.11439" lon="6.00532">
        <ele>715</ele>
        <time>2024-06-04T20:48:43Z</time>
      </trkpt>
      <trkpt lat="45.11446" lon="6.00518">
        <ele>715</ele>
        <time>2024-06-04T20:48:45Z</time>
      </trkpt>
      <trkpt lat="45.11452" lon="6.00499">
        <ele>716</ele>
        <time>2024-06-04T20:48:47Z</time>
      </trkpt>
      <trkpt lat="45.11456" lon="6.00483">
        <ele>716</ele>
        <time>2024-06-04T20:48:50Z</time>
      </trkpt>
      <trkpt lat="45.1146" lon="6.00462">
        <ele>717</ele>
        <time>2024-06-04T20:48:52Z</time>
      </trkpt>
      <trkpt lat="45.11462" lon="6.00441">
        <ele>718</ele>
        <time>2024-06-04T20:48:55Z</time>
      </trkpt>
      <trkpt lat="45.11462" lon="6.00353">
        <ele>724</ele>
        <time>2024-06-04T20:49:06Z</time>
      </trkpt>
      <trkpt lat="45.11465" lon="6.00299">
        <ele>728</ele>
        <time>2024-06-04T20:49:13Z</time>
      </trkpt>
      <trkpt lat="45.11562" lon="5.99484">
        <ele>719</ele>
        <time>2024-06-04T20:50:57Z</time>
      </trkpt>
      <trkpt lat="45.11812" lon="5.97325">
        <ele>724</ele>
        <time>2024-06-04T20:55:31Z</time>
      </trkpt>
      <trkpt lat="45.11815" lon="5.97287">
        <ele>723</ele>
        <time>2024-06-04T20:55:36Z</time>
      </trkpt>
      <trkpt lat="45.11814" lon="5.97235">
        <ele>723</ele>
        <time>2024-06-04T20:55:43Z</time>
      </trkpt>
      <trkpt lat="45.11811" lon="5.97204">
        <ele>721</ele>
        <time>2024-06-04T20:55:47Z</time>
      </trkpt>
      <trkpt lat="45.11806" lon="5.97178">
        <ele>721</ele>
        <time>2024-06-04T20:55:50Z</time>
      </trkpt>
      <trkpt lat="45.118" lon="5.97151">
        <ele>720</ele>
        <time>2024-06-04T20:55:54Z</time>
      </trkpt>
      <trkpt lat="45.11787" lon="5.97114">
        <ele>721</ele>
        <time>2024-06-04T20:55:59Z</time>
      </trkpt>
      <trkpt lat="45.11759" lon="5.9705">
        <ele>720</ele>
        <time>2024-06-04T20:56:08Z</time>
      </trkpt>
      <trkpt lat="45.11667" lon="5.96872">
        <ele>718</ele>
        <time>2024-06-04T20:56:36Z</time>
      </trkpt>
      <trkpt lat="45.11658" lon="5.96851">
        <ele>722</ele>
        <time>2024-06-04T20:56:39Z</time>
      </trkpt>
      <trkpt lat="45.11651" lon="5.96827">
        <ele>725</ele>
        <time>2024-06-04T20:56:42Z</time>
      </trkpt>
      <trkpt lat="45.11645" lon="5.9679">
        <ele>728</ele>
        <time>2024-06-04T20:56:47Z</time>
      </trkpt>
      <trkpt lat="45.11644" lon="5.96751">
        <ele>728</ele>
        <time>2024-06-04T20:56:52Z</time>
      </trkpt>
      <trkpt lat="45.11649" lon="5.96395">
        <ele>722</ele>
        <time>2024-06-04T20:57:37Z</time>
      </trkpt>
      <trkpt lat="45.11648" lon="5.96331">
        <ele>721</ele>
        <time>2024-06-04T20:57:45Z</time>
      </trkpt>
      <trkpt lat="45.11647" lon="5.9631">
        <ele>720</ele>
        <time>2024-06-04T20:57:47Z</time>
      </trkpt>
      <trkpt lat="45.1164" lon="5.96279">
        <ele>718</ele>
        <time>2024-06-04T20:57:51Z</time>
      </trkpt>
      <trkpt lat="45.11626" lon="5.96244">
        <ele>717</ele>
        <time>2024-06-04T20:57:56Z</time>
      </trkpt>
      <trkpt lat="45.11609" lon="5.96216">
        <ele>718</ele>
        <time>2024-06-04T20:58:01Z</time>
      </trkpt>
      <trkpt lat="45.11558" lon="5.96143">
        <ele>716</ele>
        <time>2024-06-04T20:58:14Z</time>
      </trkpt>
      <trkpt lat="45.11477" lon="5.96034">
        <ele>711</ele>
        <time>2024-06-04T20:58:34Z</time>
      </trkpt>
      <trkpt lat="45.11395" lon="5.95932">
        <ele>715</ele>
        <time>2024-06-04T20:58:53Z</time>
      </trkpt>
      <trkpt lat="45.11382" lon="5.95907">
        <ele>716</ele>
        <time>2024-06-04T20:58:57Z</time>
      </trkpt>
      <trkpt lat="45.11376" lon="5.95889">
        <ele>716</ele>
        <time>2024-06-04T20:59:00Z</time>
      </trkpt>
      <trkpt lat="45.11369" lon="5.95857">
        <ele>716</ele>
        <time>2024-06-04T20:59:04Z</time>
      </trkpt>
      <trkpt lat="45.11367" lon="5.95816">
        <ele>714</ele>
        <time>2024-06-04T20:59:09Z</time>
      </trkpt>
      <trkpt lat="45.11366" lon="5.95704">
        <ele>714</ele>
        <time>2024-06-04T20:59:23Z</time>
      </trkpt>
      <trkpt lat="45.11365" lon="5.95653">
        <ele>716</ele>
        <time>2024-06-04T20:59:29Z</time>
      </trkpt>
      <trkpt lat="45.1135" lon="5.95501">
        <ele>712</ele>
        <time>2024-06-04T20:59:49Z</time>
      </trkpt>
      <trkpt lat="45.11347" lon="5.9547">
        <ele>712</ele>
        <time>2024-06-04T20:59:53Z</time>
      </trkpt>
      <trkpt lat="45.11347" lon="5.95465">
        <ele>712</ele>
        <time>2024-06-04T20:59:53Z</time>
      </trkpt>
      <trkpt lat="45.11346" lon="5.95316">
        <ele>710</ele>
        <time>2024-06-04T21:00:12Z</time>
      </trkpt>
      <trkpt lat="45.11331" lon="5.95138">
        <ele>707</ele>
        <time>2024-06-04T21:00:35Z</time>
      </trkpt>
      <trkpt lat="45.11318" lon="5.95018">
        <ele>700</ele>
        <time>2024-06-04T21:00:50Z</time>
      </trkpt>
      <trkpt lat="45.11312" lon="5.94979">
        <ele>699</ele>
        <time>2024-06-04T21:00:55Z</time>
      </trkpt>
      <trkpt lat="45.11299" lon="5.94924">
        <ele>697</ele>
        <time>2024-06-04T21:01:02Z</time>
      </trkpt>
      <trkpt lat="45.11285" lon="5.94874">
        <ele>699</ele>
        <time>2024-06-04T21:01:09Z</time>
      </trkpt>
      <trkpt lat="45.11265" lon="5.94822">
        <ele>699</ele>
        <time>2024-06-04T21:01:16Z</time>
      </trkpt>
      <trkpt lat="45.11247" lon="5.94782">
        <ele>701</ele>
        <time>2024-06-04T21:01:22Z</time>
      </trkpt>
      <trkpt lat="45.11203" lon="5.94703">
        <ele>700</ele>
        <time>2024-06-04T21:01:35Z</time>
      </trkpt>
      <trkpt lat="45.11085" lon="5.94521">
        <ele>681</ele>
        <time>2024-06-04T21:02:06Z</time>
      </trkpt>
      <trkpt lat="45.1106" lon="5.94477">
        <ele>684</ele>
        <time>2024-06-04T21:02:13Z</time>
      </trkpt>
      <trkpt lat="45.11044" lon="5.94443">
        <ele>689</ele>
        <time>2024-06-04T21:02:18Z</time>
      </trkpt>
      <trkpt lat="45.11027" lon="5.94402">
        <ele>692</ele>
        <time>2024-06-04T21:02:24Z</time>
      </trkpt>
      <trkpt lat="45.11008" lon="5.94345">
        <ele>691</ele>
        <time>2024-06-04T21:02:32Z</time>
      </trkpt>
      <trkpt lat="45.1098" lon="5.94246">
        <ele>698</ele>
        <time>2024-06-04T21:02:45Z</time>
      </trkpt>
      <trkpt lat="45.10951" lon="5.94157">
        <ele>679</ele>
        <time>2024-06-04T21:02:58Z</time>
      </trkpt>
      <trkpt lat="45.10928" lon="5.94101">
        <ele>671</ele>
        <time>2024-06-04T21:03:06Z</time>
      </trkpt>
      <trkpt lat="45.10881" lon="5.93958">
        <ele>667</ele>
        <time>2024-06-04T21:03:26Z</time>
      </trkpt>
      <trkpt lat="45.10899" lon="5.9394">
        <ele>669</ele>
        <time>2024-06-04T21:03:30Z</time>
      </trkpt>
      <trkpt lat="45.10903" lon="5.93926">
        <ele>669</ele>
        <time>2024-06-04T21:03:31Z</time>
      </trkpt>
      <trkpt lat="45.10904" lon="5.9391">
        <ele>670</ele>
        <time>2024-06-04T21:03:33Z</time>
      </trkpt>
      <trkpt lat="45.10897" lon="5.93898">
        <ele>669</ele>
        <time>2024-06-04T21:03:35Z</time>
      </trkpt>
      <trkpt lat="45.1088" lon="5.93879">
        <ele>668</ele>
        <time>2024-06-04T21:03:39Z</time>
      </trkpt>
      <trkpt lat="45.10861" lon="5.93851">
        <ele>667</ele>
        <time>2024-06-04T21:03:44Z</time>
      </trkpt>
      <trkpt lat="45.10841" lon="5.93804">
        <ele>664</ele>
        <time>2024-06-04T21:03:51Z</time>
      </trkpt>
      <trkpt lat="45.10827" lon="5.93732">
        <ele>661</ele>
        <time>2024-06-04T21:04:00Z</time>
      </trkpt>
      <trkpt lat="45.10791" lon="5.93384">
        <ele>653</ele>
        <time>2024-06-04T21:04:45Z</time>
      </trkpt>
      <trkpt lat="45.10787" lon="5.9336">
        <ele>652</ele>
        <time>2024-06-04T21:04:48Z</time>
      </trkpt>
      <trkpt lat="45.10778" lon="5.9334">
        <ele>651</ele>
        <time>2024-06-04T21:04:51Z</time>
      </trkpt>
      <trkpt lat="45.1077" lon="5.9333">
        <ele>650</ele>
        <time>2024-06-04T21:04:53Z</time>
      </trkpt>
      <trkpt lat="45.10764" lon="5.93324">
        <ele>649</ele>
        <time>2024-06-04T21:04:54Z</time>
      </trkpt>
      <trkpt lat="45.10746" lon="5.93315">
        <ele>648</ele>
        <time>2024-06-04T21:04:57Z</time>
      </trkpt>
      <trkpt lat="45.10725" lon="5.9331">
        <ele>649</ele>
        <time>2024-06-04T21:05:01Z</time>
      </trkpt>
      <trkpt lat="45.10699" lon="5.93301">
        <ele>651</ele>
        <time>2024-06-04T21:05:06Z</time>
      </trkpt>
      <trkpt lat="45.10682" lon="5.93292">
        <ele>652</ele>
        <time>2024-06-04T21:05:09Z</time>
      </trkpt>
      <trkpt lat="45.10678" lon="5.93287">
        <ele>653</ele>
        <time>2024-06-04T21:05:10Z</time>
      </trkpt>
      <trkpt lat="45.1067" lon="5.93271">
        <ele>653</ele>
        <time>2024-06-04T21:05:12Z</time>
      </trkpt>
      <trkpt lat="45.10668" lon="5.93263">
        <ele>654</ele>
        <time>2024-06-04T21:05:14Z</time>
      </trkpt>
      <trkpt lat="45.10667" lon="5.9325">
        <ele>654</ele>
        <time>2024-06-04T21:05:15Z</time>
      </trkpt>
      <trkpt lat="45.10667" lon="5.93198">
        <ele>650</ele>
        <time>2024-06-04T21:05:22Z</time>
      </trkpt>
      <trkpt lat="45.10665" lon="5.93181">
        <ele>650</ele>
        <time>2024-06-04T21:05:24Z</time>
      </trkpt>
      <trkpt lat="45.10661" lon="5.9316">
        <ele>650</ele>
        <time>2024-06-04T21:05:27Z</time>
      </trkpt>
      <trkpt lat="45.10629" lon="5.93053">
        <ele>650</ele>
        <time>2024-06-04T21:05:41Z</time>
      </trkpt>
      <trkpt lat="45.10607" lon="5.92962">
        <ele>646</ele>
        <time>2024-06-04T21:05:53Z</time>
      </trkpt>
      <trkpt lat="45.10572" lon="5.92841">
        <ele>641</ele>
        <time>2024-06-04T21:06:10Z</time>
      </trkpt>
      <trkpt lat="45.10507" lon="5.92632">
        <ele>637</ele>
        <time>2024-06-04T21:06:38Z</time>
      </trkpt>
      <trkpt lat="45.10477" lon="5.9258">
        <ele>639</ele>
        <time>2024-06-04T21:06:47Z</time>
      </trkpt>
      <trkpt lat="45.10468" lon="5.92572">
        <ele>640</ele>
        <time>2024-06-04T21:06:49Z</time>
      </trkpt>
      <trkpt lat="45.10453" lon="5.92566">
        <ele>642</ele>
        <time>2024-06-04T21:06:51Z</time>
      </trkpt>
      <trkpt lat="45.10447" lon="5.92483">
        <ele>638</ele>
        <time>2024-06-04T21:07:02Z</time>
      </trkpt>
      <trkpt lat="45.1044" lon="5.92426">
        <ele>638</ele>
        <time>2024-06-04T21:07:09Z</time>
      </trkpt>
      <trkpt lat="45.10431" lon="5.92383">
        <ele>638</ele>
        <time>2024-06-04T21:07:15Z</time>
      </trkpt>
      <trkpt lat="45.10415" lon="5.92329">
        <ele>638</ele>
        <time>2024-06-04T21:07:22Z</time>
      </trkpt>
      <trkpt lat="45.10323" lon="5.92032">
        <ele>620</ele>
        <time>2024-06-04T21:08:03Z</time>
      </trkpt>
      <trkpt lat="45.10313" lon="5.92008">
        <ele>618</ele>
        <time>2024-06-04T21:08:06Z</time>
      </trkpt>
      <trkpt lat="45.10292" lon="5.91972">
        <ele>615</ele>
        <time>2024-06-04T21:08:12Z</time>
      </trkpt>
      <trkpt lat="45.1028" lon="5.91955">
        <ele>613</ele>
        <time>2024-06-04T21:08:15Z</time>
      </trkpt>
      <trkpt lat="45.10267" lon="5.91943">
        <ele>613</ele>
        <time>2024-06-04T21:08:18Z</time>
      </trkpt>
      <trkpt lat="45.0999" lon="5.91709">
        <ele>601</ele>
        <time>2024-06-04T21:09:15Z</time>
      </trkpt>
      <trkpt lat="45.09852" lon="5.9159">
        <ele>595</ele>
        <time>2024-06-04T21:09:44Z</time>
      </trkpt>
      <trkpt lat="45.09828" lon="5.91561">
        <ele>595</ele>
        <time>2024-06-04T21:09:50Z</time>
      </trkpt>
      <trkpt lat="45.09817" lon="5.91543">
        <ele>598</ele>
        <time>2024-06-04T21:09:53Z</time>
      </trkpt>
      <trkpt lat="45.09789" lon="5.91483">
        <ele>602</ele>
        <time>2024-06-04T21:10:02Z</time>
      </trkpt>
      <trkpt lat="45.09717" lon="5.91313">
        <ele>599</ele>
        <time>2024-06-04T21:10:27Z</time>
      </trkpt>
      <trkpt lat="45.09696" lon="5.91257">
        <ele>605</ele>
        <time>2024-06-04T21:10:35Z</time>
      </trkpt>
      <trkpt lat="45.09685" lon="5.91202">
        <ele>600</ele>
        <time>2024-06-04T21:10:42Z</time>
      </trkpt>
      <trkpt lat="45.0966" lon="5.9101">
        <ele>588</ele>
        <time>2024-06-04T21:11:06Z</time>
      </trkpt>
      <trkpt lat="45.09649" lon="5.90941">
        <ele>586</ele>
        <time>2024-06-04T21:11:15Z</time>
      </trkpt>
      <trkpt lat="45.09638" lon="5.909">
        <ele>585</ele>
        <time>2024-06-04T21:11:21Z</time>
      </trkpt>
      <trkpt lat="45.09551" lon="5.90679">
        <ele>579</ele>
        <time>2024-06-04T21:11:53Z</time>
      </trkpt>
      <trkpt lat="45.09523" lon="5.90616">
        <ele>579</ele>
        <time>2024-06-04T21:12:02Z</time>
      </trkpt>
      <trkpt lat="45.09511" lon="5.90597">
        <ele>579</ele>
        <time>2024-06-04T21:12:05Z</time>
      </trkpt>
      <trkpt lat="45.09496" lon="5.90578">
        <ele>579</ele>
        <time>2024-06-04T21:12:09Z</time>
      </trkpt>
      <trkpt lat="45.0943" lon="5.90525">
        <ele>578</ele>
        <time>2024-06-04T21:12:22Z</time>
      </trkpt>
      <trkpt lat="45.09291" lon="5.90417">
        <ele>572</ele>
        <time>2024-06-04T21:12:50Z</time>
      </trkpt>
      <trkpt lat="45.09028" lon="5.90202">
        <ele>554</ele>
        <time>2024-06-04T21:13:44Z</time>
      </trkpt>
      <trkpt lat="45.08997" lon="5.90191">
        <ele>553</ele>
        <time>2024-06-04T21:13:50Z</time>
      </trkpt>
      <trkpt lat="45.08838" lon="5.90158">
        <ele>549</ele>
        <time>2024-06-04T21:14:19Z</time>
      </trkpt>
      <trkpt lat="45.08761" lon="5.90139">
        <ele>551</ele>
        <time>2024-06-04T21:14:33Z</time>
      </trkpt>
      <trkpt lat="45.08582" lon="5.90065">
        <ele>541</ele>
        <time>2024-06-04T21:15:06Z</time>
      </trkpt>
      <trkpt lat="45.08554" lon="5.90053">
        <ele>542</ele>
        <time>2024-06-04T21:15:11Z</time>
      </trkpt>
      <trkpt lat="45.08526" lon="5.90038">
        <ele>541</ele>
        <time>2024-06-04T21:15:16Z</time>
      </trkpt>
      <trkpt lat="45.08504" lon="5.90022">
        <ele>539</ele>
        <time>2024-06-04T21:15:21Z</time>
      </trkpt>
      <trkpt lat="45.08453" lon="5.89976">
        <ele>542</ele>
        <time>2024-06-04T21:15:32Z</time>
      </trkpt>
      <trkpt lat="45.08383" lon="5.89908">
        <ele>543</ele>
        <time>2024-06-04T21:15:47Z</time>
      </trkpt>
      <trkpt lat="45.08291" lon="5.89803">
        <ele>538</ele>
        <time>2024-06-04T21:16:08Z</time>
      </trkpt>
      <trkpt lat="45.08277" lon="5.89783">
        <ele>538</ele>
        <time>2024-06-04T21:16:11Z</time>
      </trkpt>
      <trkpt lat="45.08239" lon="5.89698">
        <ele>537</ele>
        <time>2024-06-04T21:16:24Z</time>
      </trkpt>
      <trkpt lat="45.08227" lon="5.89663">
        <ele>540</ele>
        <time>2024-06-04T21:16:29Z</time>
      </trkpt>
      <trkpt lat="45.08223" lon="5.89637">
        <ele>540</ele>
        <time>2024-06-04T21:16:32Z</time>
      </trkpt>
      <trkpt lat="45.08223" lon="5.89616">
        <ele>538</ele>
        <time>2024-06-04T21:16:35Z</time>
      </trkpt>
      <trkpt lat="45.08231" lon="5.89558">
        <ele>529</ele>
        <time>2024-06-04T21:16:42Z</time>
      </trkpt>
      <trkpt lat="45.08229" lon="5.89527">
        <ele>527</ele>
        <time>2024-06-04T21:16:46Z</time>
      </trkpt>
      <trkpt lat="45.0822" lon="5.89493">
        <ele>528</ele>
        <time>2024-06-04T21:16:51Z</time>
      </trkpt>
      <trkpt lat="45.08211" lon="5.89471">
        <ele>527</ele>
        <time>2024-06-04T21:16:54Z</time>
      </trkpt>
      <trkpt lat="45.08193" lon="5.89437">
        <ele>527</ele>
        <time>2024-06-04T21:16:59Z</time>
      </trkpt>
      <trkpt lat="45.08181" lon="5.89418">
        <ele>526</ele>
        <time>2024-06-04T21:17:02Z</time>
      </trkpt>
      <trkpt lat="45.08087" lon="5.89301">
        <ele>526</ele>
        <time>2024-06-04T21:17:25Z</time>
      </trkpt>
      <trkpt lat="45.0806" lon="5.89263">
        <ele>524</ele>
        <time>2024-06-04T21:17:31Z</time>
      </trkpt>
      <trkpt lat="45.0796" lon="5.8909">
        <ele>522</ele>
        <time>2024-06-04T21:17:59Z</time>
      </trkpt>
      <trkpt lat="45.07925" lon="5.89027">
        <ele>517</ele>
        <time>2024-06-04T21:18:10Z</time>
      </trkpt>
      <trkpt lat="45.07906" lon="5.88979">
        <ele>516</ele>
        <time>2024-06-04T21:18:16Z</time>
      </trkpt>
      <trkpt lat="45.07849" lon="5.88819">
        <ele>515</ele>
        <time>2024-06-04T21:18:39Z</time>
      </trkpt>
      <trkpt lat="45.07832" lon="5.88778">
        <ele>513</ele>
        <time>2024-06-04T21:18:45Z</time>
      </trkpt>
      <trkpt lat="45.07784" lon="5.88687">
        <ele>508</ele>
        <time>2024-06-04T21:18:59Z</time>
      </trkpt>
      <trkpt lat="45.07638" lon="5.88453">
        <ele>508</ele>
        <time>2024-06-04T21:19:38Z</time>
      </trkpt>
      <trkpt lat="45.07619" lon="5.88413">
        <ele>502</ele>
        <time>2024-06-04T21:19:44Z</time>
      </trkpt>
      <trkpt lat="45.076" lon="5.8836">
        <ele>497</ele>
        <time>2024-06-04T21:19:52Z</time>
      </trkpt>
      <trkpt lat="45.07591" lon="5.88323">
        <ele>494</ele>
        <time>2024-06-04T21:19:57Z</time>
      </trkpt>
      <trkpt lat="45.07586" lon="5.88294">
        <ele>494</ele>
        <time>2024-06-04T21:20:01Z</time>
      </trkpt>
      <trkpt lat="45.07582" lon="5.88253">
        <ele>494</ele>
        <time>2024-06-04T21:20:06Z</time>
      </trkpt>
      <trkpt lat="45.07579" lon="5.88128">
        <ele>487</ele>
        <time>2024-06-04T21:20:22Z</time>
      </trkpt>
      <trkpt lat="45.07574" lon="5.88083">
        <ele>486</ele>
        <time>2024-06-04T21:20:27Z</time>
      </trkpt>
      <trkpt lat="45.0754" lon="5.87895">
        <ele>477</ele>
        <time>2024-06-04T21:20:52Z</time>
      </trkpt>
      <trkpt lat="45.07534" lon="5.87871">
        <ele>476</ele>
        <time>2024-06-04T21:20:55Z</time>
      </trkpt>
      <trkpt lat="45.07516" lon="5.87829">
        <ele>476</ele>
        <time>2024-06-04T21:21:01Z</time>
      </trkpt>
      <trkpt lat="45.07497" lon="5.87798">
        <ele>476</ele>
        <time>2024-06-04T21:21:06Z</time>
      </trkpt>
      <trkpt lat="45.07472" lon="5.87768">
        <ele>476</ele>
        <time>2024-06-04T21:21:12Z</time>
      </trkpt>
      <trkpt lat="45.07461" lon="5.87757">
        <ele>476</ele>
        <time>2024-06-04T21:21:14Z</time>
      </trkpt>
      <trkpt lat="45.07248" lon="5.87568">
        <ele>471</ele>
        <time>2024-06-04T21:21:59Z</time>
      </trkpt>
      <trkpt lat="45.07189" lon="5.87535">
        <ele>469</ele>
        <time>2024-06-04T21:22:10Z</time>
      </trkpt>
      <trkpt lat="45.07192" lon="5.87523">
        <ele>467</ele>
        <time>2024-06-04T21:22:12Z</time>
      </trkpt>
      <trkpt lat="45.07189" lon="5.87512">
        <ele>465</ele>
        <time>2024-06-04T21:22:13Z</time>
      </trkpt>
      <trkpt lat="45.07182" lon="5.87505">
        <ele>464</ele>
        <time>2024-06-04T21:22:15Z</time>
      </trkpt>
      <trkpt lat="45.07177" lon="5.87504">
        <ele>463</ele>
        <time>2024-06-04T21:22:16Z</time>
      </trkpt>
      <trkpt lat="45.0717" lon="5.87509">
        <ele>464</ele>
        <time>2024-06-04T21:22:17Z</time>
      </trkpt>
      <trkpt lat="45.07165" lon="5.87519">
        <ele>466</ele>
        <time>2024-06-04T21:22:19Z</time>
      </trkpt>
      <trkpt lat="45.07146" lon="5.87507">
        <ele>466</ele>
        <time>2024-06-04T21:22:23Z</time>
      </trkpt>
      <trkpt lat="45.0714" lon="5.87496">
        <ele>465</ele>
        <time>2024-06-04T21:22:24Z</time>
      </trkpt>
      <trkpt lat="45.07126" lon="5.87459">
        <ele>464</ele>
        <time>2024-06-04T21:22:30Z</time>
      </trkpt>
      <trkpt lat="45.07119" lon="5.87453">
        <ele>464</ele>
        <time>2024-06-04T21:22:31Z</time>
      </trkpt>
      <trkpt lat="45.06825" lon="5.87189">
        <ele>458</ele>
        <time>2024-06-04T21:23:33Z</time>
      </trkpt>
      <trkpt lat="45.06781" lon="5.87145">
        <ele>453</ele>
        <time>2024-06-04T21:23:43Z</time>
      </trkpt>
      <trkpt lat="45.06755" lon="5.87113">
        <ele>451</ele>
        <time>2024-06-04T21:23:49Z</time>
      </trkpt>
      <trkpt lat="45.06714" lon="5.87045">
        <ele>446</ele>
        <time>2024-06-04T21:24:00Z</time>
      </trkpt>
      <trkpt lat="45.06705" lon="5.87001">
        <ele>445</ele>
        <time>2024-06-04T21:24:06Z</time>
      </trkpt>
      <trkpt lat="45.06678" lon="5.86954">
        <ele>442</ele>
        <time>2024-06-04T21:24:13Z</time>
      </trkpt>
      <trkpt lat="45.06672" lon="5.86944">
        <ele>442</ele>
        <time>2024-06-04T21:24:15Z</time>
      </trkpt>
      <trkpt lat="45.06657" lon="5.86925">
        <ele>440</ele>
        <time>2024-06-04T21:24:19Z</time>
      </trkpt>
      <trkpt lat="45.06614" lon="5.86881">
        <ele>435</ele>
        <time>2024-06-04T21:24:28Z</time>
      </trkpt>
      <trkpt lat="45.06586" lon="5.8686">
        <ele>433</ele>
        <time>2024-06-04T21:24:34Z</time>
      </trkpt>
      <trkpt lat="45.06573" lon="5.86854">
        <ele>433</ele>
        <time>2024-06-04T21:24:36Z</time>
      </trkpt>
      <trkpt lat="45.06552" lon="5.86854">
        <ele>433</ele>
        <time>2024-06-04T21:24:40Z</time>
      </trkpt>
      <trkpt lat="45.06538" lon="5.86848">
        <ele>432</ele>
        <time>2024-06-04T21:24:42Z</time>
      </trkpt>
      <trkpt lat="45.06529" lon="5.86834">
        <ele>431</ele>
        <time>2024-06-04T21:24:45Z</time>
      </trkpt>
      <trkpt lat="45.06526" lon="5.86824">
        <ele>430</ele>
        <time>2024-06-04T21:24:46Z</time>
      </trkpt>
      <trkpt lat="45.06525" lon="5.86815">
        <ele>430</ele>
        <time>2024-06-04T21:24:47Z</time>
      </trkpt>
      <trkpt lat="45.06527" lon="5.86804">
        <ele>429</ele>
        <time>2024-06-04T21:24:49Z</time>
      </trkpt>
      <trkpt lat="45.06505" lon="5.86788">
        <ele>428</ele>
        <time>2024-06-04T21:24:53Z</time>
      </trkpt>
      <trkpt lat="45.0633" lon="5.8665">
        <ele>432</ele>
        <time>2024-06-04T21:25:29Z</time>
      </trkpt>
      <trkpt lat="45.06294" lon="5.86612">
        <ele>428</ele>
        <time>2024-06-04T21:25:37Z</time>
      </trkpt>
      <trkpt lat="45.06228" lon="5.86557">
        <ele>425</ele>
        <time>2024-06-04T21:25:50Z</time>
      </trkpt>
      <trkpt lat="45.06174" lon="5.86508">
        <ele>423</ele>
        <time>2024-06-04T21:26:02Z</time>
      </trkpt>
      <trkpt lat="45.05757" lon="5.86079">
        <ele>414</ele>
        <time>2024-06-04T21:27:33Z</time>
      </trkpt>
      <trkpt lat="45.05533" lon="5.85844">
        <ele>402</ele>
        <time>2024-06-04T21:28:23Z</time>
      </trkpt>
      <trkpt lat="45.05508" lon="5.85814">
        <ele>401</ele>
        <time>2024-06-04T21:28:29Z</time>
      </trkpt>
      <trkpt lat="45.05493" lon="5.85791">
        <ele>401</ele>
        <time>2024-06-04T21:28:33Z</time>
      </trkpt>
      <trkpt lat="45.05475" lon="5.85755">
        <ele>401</ele>
        <time>2024-06-04T21:28:38Z</time>
      </trkpt>
      <trkpt lat="45.05466" lon="5.85732">
        <ele>401</ele>
        <time>2024-06-04T21:28:42Z</time>
      </trkpt>
      <trkpt lat="45.05452" lon="5.85685">
        <ele>400</ele>
        <time>2024-06-04T21:28:48Z</time>
      </trkpt>
      <trkpt lat="45.05428" lon="5.85582">
        <ele>398</ele>
        <time>2024-06-04T21:29:02Z</time>
      </trkpt>
      <trkpt lat="45.05409" lon="5.85512">
        <ele>396</ele>
        <time>2024-06-04T21:29:11Z</time>
      </trkpt>
      <trkpt lat="45.0534" lon="5.85208">
        <ele>394</ele>
        <time>2024-06-04T21:29:51Z</time>
      </trkpt>
      <trkpt lat="45.05338" lon="5.85193">
        <ele>394</ele>
        <time>2024-06-04T21:29:53Z</time>
      </trkpt>
      <trkpt lat="45.05338" lon="5.85168">
        <ele>393</ele>
        <time>2024-06-04T21:29:56Z</time>
      </trkpt>
      <trkpt lat="45.05339" lon="5.85155">
        <ele>392</ele>
        <time>2024-06-04T21:29:58Z</time>
      </trkpt>
      <trkpt lat="45.05347" lon="5.85119">
        <ele>391</ele>
        <time>2024-06-04T21:30:03Z</time>
      </trkpt>
      <trkpt lat="45.05354" lon="5.85099">
        <ele>390</ele>
        <time>2024-06-04T21:30:06Z</time>
      </trkpt>
      <trkpt lat="45.05366" lon="5.85077">
        <ele>389</ele>
        <time>2024-06-04T21:30:09Z</time>
      </trkpt>
      <trkpt lat="45.05378" lon="5.85063">
        <ele>388</ele>
        <time>2024-06-04T21:30:12Z</time>
      </trkpt>
      <trkpt lat="45.05415" lon="5.85027">
        <ele>386</ele>
        <time>2024-06-04T21:30:20Z</time>
      </trkpt>
      <trkpt lat="45.05434" lon="5.85008">
        <ele>390</ele>
        <time>2024-06-04T21:30:24Z</time>
      </trkpt>
      <trkpt lat="45.0545" lon="5.8498">
        <ele>394</ele>
        <time>2024-06-04T21:30:28Z</time>
      </trkpt>
      <trkpt lat="45.05457" lon="5.84957">
        <ele>397</ele>
        <time>2024-06-04T21:30:32Z</time>
      </trkpt>
      <trkpt lat="45.05462" lon="5.8493">
        <ele>399</ele>
        <time>2024-06-04T21:30:35Z</time>
      </trkpt>
      <trkpt lat="45.05464" lon="5.84834">
        <ele>408</ele>
        <time>2024-06-04T21:30:47Z</time>
      </trkpt>
      <trkpt lat="45.05468" lon="5.84461">
        <ele>400</ele>
        <time>2024-06-04T21:31:34Z</time>
      </trkpt>
      <trkpt lat="45.05466" lon="5.84424">
        <ele>406</ele>
        <time>2024-06-04T21:31:39Z</time>
      </trkpt>
      <trkpt lat="45.05461" lon="5.84389">
        <ele>413</ele>
        <time>2024-06-04T21:31:43Z</time>
      </trkpt>
      <trkpt lat="45.05449" lon="5.84326">
        <ele>416</ele>
        <time>2024-06-04T21:31:51Z</time>
      </trkpt>
      <trkpt lat="45.05419" lon="5.84133">
        <ele>392</ele>
        <time>2024-06-04T21:32:16Z</time>
      </trkpt>
      <trkpt lat="45.05395" lon="5.84043">
        <ele>381</ele>
        <time>2024-06-04T21:32:28Z</time>
      </trkpt>
      <trkpt lat="45.05392" lon="5.84024">
        <ele>380</ele>
        <time>2024-06-04T21:32:31Z</time>
      </trkpt>
      <trkpt lat="45.05385" lon="5.83976">
        <ele>375</ele>
        <time>2024-06-04T21:32:37Z</time>
      </trkpt>
      <trkpt lat="45.05382" lon="5.8393">
        <ele>371</ele>
        <time>2024-06-04T21:32:43Z</time>
      </trkpt>
      <trkpt lat="45.05384" lon="5.83914">
        <ele>370</ele>
        <time>2024-06-04T21:32:45Z</time>
      </trkpt>
      <trkpt lat="45.05377" lon="5.83869">
        <ele>370</ele>
        <time>2024-06-04T21:32:51Z</time>
      </trkpt>
      <trkpt lat="45.05381" lon="5.83836">
        <ele>371</ele>
        <time>2024-06-04T21:32:55Z</time>
      </trkpt>
      <trkpt lat="45.05367" lon="5.83545">
        <ele>367</ele>
        <time>2024-06-04T21:33:31Z</time>
      </trkpt>
      <trkpt lat="45.05359" lon="5.83529">
        <ele>367</ele>
        <time>2024-06-04T21:33:34Z</time>
      </trkpt>
      <trkpt lat="45.0533" lon="5.8354">
        <ele>367</ele>
        <time>2024-06-04T21:33:39Z</time>
      </trkpt>
      <trkpt lat="45.05308" lon="5.83554">
        <ele>367</ele>
        <time>2024-06-04T21:33:44Z</time>
      </trkpt>
      <trkpt lat="45.05281" lon="5.83577">
        <ele>368</ele>
        <time>2024-06-04T21:33:49Z</time>
      </trkpt>
      <trkpt lat="45.0522" lon="5.83633">
        <ele>366</ele>
        <time>2024-06-04T21:34:02Z</time>
      </trkpt>
      <trkpt lat="45.05205" lon="5.83647">
        <ele>365</ele>
        <time>2024-06-04T21:34:05Z</time>
      </trkpt>
      <trkpt lat="45.05189" lon="5.83661">
        <ele>364</ele>
        <time>2024-06-04T21:34:09Z</time>
      </trkpt>
      <trkpt lat="45.05154" lon="5.83694">
        <ele>367</ele>
        <time>2024-06-04T21:34:16Z</time>
      </trkpt>
      <trkpt lat="45.05135" lon="5.83707">
        <ele>374</ele>
        <time>2024-06-04T21:34:20Z</time>
      </trkpt>
      <trkpt lat="45.05126" lon="5.83709">
        <ele>377</ele>
        <time>2024-06-04T21:34:22Z</time>
      </trkpt>
      <trkpt lat="45.05107" lon="5.83705">
        <ele>381</ele>
        <time>2024-06-04T21:34:25Z</time>
      </trkpt>
      <trkpt lat="45.05094" lon="5.83696">
        <ele>381</ele>
        <time>2024-06-04T21:34:28Z</time>
      </trkpt>
      <trkpt lat="45.05054" lon="5.83654">
        <ele>381</ele>
        <time>2024-06-04T21:34:36Z</time>
      </trkpt>
      <trkpt lat="45.04997" lon="5.83578">
        <ele>379</ele>
        <time>2024-06-04T21:34:50Z</time>
      </trkpt>
      <trkpt lat="45.04955" lon="5.83528">
        <ele>387</ele>
        <time>2024-06-04T21:35:00Z</time>
      </trkpt>
      <trkpt lat="45.0492" lon="5.8349">
        <ele>391</ele>
        <time>2024-06-04T21:35:08Z</time>
      </trkpt>
      <trkpt lat="45.04908" lon="5.83472">
        <ele>392</ele>
        <time>2024-06-04T21:35:11Z</time>
      </trkpt>
      <trkpt lat="45.04892" lon="5.83436">
        <ele>389</ele>
        <time>2024-06-04T21:35:16Z</time>
      </trkpt>
      <trkpt lat="45.04889" lon="5.83425">
        <ele>388</ele>
        <time>2024-06-04T21:35:18Z</time>
      </trkpt>
      <trkpt lat="45.04862" lon="5.83293">
        <ele>386</ele>
        <time>2024-06-04T21:35:35Z</time>
      </trkpt>
      <trkpt lat="45.04853" lon="5.83256">
        <ele>387</ele>
        <time>2024-06-04T21:35:40Z</time>
      </trkpt>
      <trkpt lat="45.04846" lon="5.83233">
        <ele>388</ele>
        <time>2024-06-04T21:35:43Z</time>
      </trkpt>
      <trkpt lat="45.0484" lon="5.83221">
        <ele>389</ele>
        <time>2024-06-04T21:35:45Z</time>
      </trkpt>
      <trkpt lat="45.04832" lon="5.83211">
        <ele>390</ele>
        <time>2024-06-04T21:35:47Z</time>
      </trkpt>
      <trkpt lat="45.04803" lon="5.83187">
        <ele>395</ele>
        <time>2024-06-04T21:35:53Z</time>
      </trkpt>
      <trkpt lat="45.04812" lon="5.83135">
        <ele>395</ele>
        <time>2024-06-04T21:36:00Z</time>
      </trkpt>
      <trkpt lat="45.04813" lon="5.8311">
        <ele>395</ele>
        <time>2024-06-04T21:36:03Z</time>
      </trkpt>
      <trkpt lat="45.04805" lon="5.83064">
        <ele>398</ele>
        <time>2024-06-04T21:36:09Z</time>
      </trkpt>
      <trkpt lat="45.04803" lon="5.83026">
        <ele>401</ele>
        <time>2024-06-04T21:36:14Z</time>
      </trkpt>
      <trkpt lat="45.04782" lon="5.82977">
        <ele>406</ele>
        <time>2024-06-04T21:36:21Z</time>
      </trkpt>
      <trkpt lat="45.04748" lon="5.82926">
        <ele>413</ele>
        <time>2024-06-04T21:36:30Z</time>
      </trkpt>
      <trkpt lat="45.04729" lon="5.82903">
        <ele>415</ele>
        <time>2024-06-04T21:36:34Z</time>
      </trkpt>
      <trkpt lat="45.04678" lon="5.8285">
        <ele>422</ele>
        <time>2024-06-04T21:36:45Z</time>
      </trkpt>
      <trkpt lat="45.04638" lon="5.82835">
        <ele>426</ele>
        <time>2024-06-04T21:36:53Z</time>
      </trkpt>
      <trkpt lat="45.04594" lon="5.82795">
        <ele>431</ele>
        <time>2024-06-04T21:37:02Z</time>
      </trkpt>
      <trkpt lat="45.04578" lon="5.82783">
        <ele>433</ele>
        <time>2024-06-04T21:37:05Z</time>
      </trkpt>
      <trkpt lat="45.04571" lon="5.82781">
        <ele>434</ele>
        <time>2024-06-04T21:37:06Z</time>
      </trkpt>
      <trkpt lat="45.04535" lon="5.8277">
        <ele>439</ele>
        <time>2024-06-04T21:37:13Z</time>
      </trkpt>
      <trkpt lat="45.04497" lon="5.82732">
        <ele>445</ele>
        <time>2024-06-04T21:37:21Z</time>
      </trkpt>
      <trkpt lat="45.04486" lon="5.82724">
        <ele>447</ele>
        <time>2024-06-04T21:37:23Z</time>
      </trkpt>
      <trkpt lat="45.04474" lon="5.82708">
        <ele>450</ele>
        <time>2024-06-04T21:37:26Z</time>
      </trkpt>
      <trkpt lat="45.04468" lon="5.82695">
        <ele>451</ele>
        <time>2024-06-04T21:37:28Z</time>
      </trkpt>
      <trkpt lat="45.04459" lon="5.82662">
        <ele>454</ele>
        <time>2024-06-04T21:37:33Z</time>
      </trkpt>
      <trkpt lat="45.04456" lon="5.82644">
        <ele>456</ele>
        <time>2024-06-04T21:37:35Z</time>
      </trkpt>
      <trkpt lat="45.04451" lon="5.82631">
        <ele>457</ele>
        <time>2024-06-04T21:37:37Z</time>
      </trkpt>
      <trkpt lat="45.04444" lon="5.82622">
        <ele>458</ele>
        <time>2024-06-04T21:37:39Z</time>
      </trkpt>
      <trkpt lat="45.0444" lon="5.82622">
        <ele>459</ele>
        <time>2024-06-04T21:37:39Z</time>
      </trkpt>
      <trkpt lat="45.04447" lon="5.82593">
        <ele>459</ele>
        <time>2024-06-04T21:37:43Z</time>
      </trkpt>
      <trkpt lat="45.04451" lon="5.82586">
        <ele>459</ele>
        <time>2024-06-04T21:37:44Z</time>
      </trkpt>
      <trkpt lat="45.04468" lon="5.82559">
        <ele>464</ele>
        <time>2024-06-04T21:37:49Z</time>
      </trkpt>
      <trkpt lat="45.04477" lon="5.82549">
        <ele>466</ele>
        <time>2024-06-04T21:37:51Z</time>
      </trkpt>
      <trkpt lat="45.04486" lon="5.82541">
        <ele>468</ele>
        <time>2024-06-04T21:37:53Z</time>
      </trkpt>
      <trkpt lat="45.04502" lon="5.82538">
        <ele>468</ele>
        <time>2024-06-04T21:37:56Z</time>
      </trkpt>
      <trkpt lat="45.04562" lon="5.82535">
        <ele>465</ele>
        <time>2024-06-04T21:38:06Z</time>
      </trkpt>
      <trkpt lat="45.04572" lon="5.8253">
        <ele>466</ele>
        <time>2024-06-04T21:38:08Z</time>
      </trkpt>
      <trkpt lat="45.04587" lon="5.82513">
        <ele>469</ele>
        <time>2024-06-04T21:38:12Z</time>
      </trkpt>
      <trkpt lat="45.04593" lon="5.82501">
        <ele>471</ele>
        <time>2024-06-04T21:38:14Z</time>
      </trkpt>
      <trkpt lat="45.04603" lon="5.82465">
        <ele>475</ele>
        <time>2024-06-04T21:38:18Z</time>
      </trkpt>
      <trkpt lat="45.0461" lon="5.8245">
        <ele>477</ele>
        <time>2024-06-04T21:38:21Z</time>
      </trkpt>
      <trkpt lat="45.04636" lon="5.82425">
        <ele>475</ele>
        <time>2024-06-04T21:38:26Z</time>
      </trkpt>
      <trkpt lat="45.04641" lon="5.82416">
        <ele>476</ele>
        <time>2024-06-04T21:38:28Z</time>
      </trkpt>
      <trkpt lat="45.04646" lon="5.82402">
        <ele>478</ele>
        <time>2024-06-04T21:38:30Z</time>
      </trkpt>
      <trkpt lat="45.04647" lon="5.8238">
        <ele>482</ele>
        <time>2024-06-04T21:38:32Z</time>
      </trkpt>
      <trkpt lat="45.04646" lon="5.82363">
        <ele>486</ele>
        <time>2024-06-04T21:38:35Z</time>
      </trkpt>
      <trkpt lat="45.0465" lon="5.82344">
        <ele>488</ele>
        <time>2024-06-04T21:38:37Z</time>
      </trkpt>
      <trkpt lat="45.04664" lon="5.82304">
        <ele>494</ele>
        <time>2024-06-04T21:38:43Z</time>
      </trkpt>
      <trkpt lat="45.04671" lon="5.82292">
        <ele>495</ele>
        <time>2024-06-04T21:38:45Z</time>
      </trkpt>
      <trkpt lat="45.04691" lon="5.8227">
        <ele>493</ele>
        <time>2024-06-04T21:38:49Z</time>
      </trkpt>
      <trkpt lat="45.04693" lon="5.82264">
        <ele>494</ele>
        <time>2024-06-04T21:38:50Z</time>
      </trkpt>
      <trkpt lat="45.04692" lon="5.82256">
        <ele>496</ele>
        <time>2024-06-04T21:38:51Z</time>
      </trkpt>
      <trkpt lat="45.04689" lon="5.8225">
        <ele>499</ele>
        <time>2024-06-04T21:38:52Z</time>
      </trkpt>
      <trkpt lat="45.04682" lon="5.82247">
        <ele>502</ele>
        <time>2024-06-04T21:38:53Z</time>
      </trkpt>
      <trkpt lat="45.04678" lon="5.82248">
        <ele>503</ele>
        <time>2024-06-04T21:38:54Z</time>
      </trkpt>
      <trkpt lat="45.04675" lon="5.82252">
        <ele>503</ele>
        <time>2024-06-04T21:38:55Z</time>
      </trkpt>
      <trkpt lat="45.04654" lon="5.82294">
        <ele>499</ele>
        <time>2024-06-04T21:39:01Z</time>
      </trkpt>
      <trkpt lat="45.04639" lon="5.8233">
        <ele>494</ele>
        <time>2024-06-04T21:39:06Z</time>
      </trkpt>
      <trkpt lat="45.04596" lon="5.82393">
        <ele>492</ele>
        <time>2024-06-04T21:39:17Z</time>
      </trkpt>
      <trkpt lat="45.0459" lon="5.82398">
        <ele>492</ele>
        <time>2024-06-04T21:39:19Z</time>
      </trkpt>
      <trkpt lat="45.04575" lon="5.82402">
        <ele>494</ele>
        <time>2024-06-04T21:39:21Z</time>
      </trkpt>
      <trkpt lat="45.04567" lon="5.82402">
        <ele>495</ele>
        <time>2024-06-04T21:39:23Z</time>
      </trkpt>
      <trkpt lat="45.04543" lon="5.82389">
        <ele>502</ele>
        <time>2024-06-04T21:39:27Z</time>
      </trkpt>
      <trkpt lat="45.04534" lon="5.82388">
        <ele>504</ele>
        <time>2024-06-04T21:39:29Z</time>
      </trkpt>
      <trkpt lat="45.04526" lon="5.82391">
        <ele>504</ele>
        <time>2024-06-04T21:39:30Z</time>
      </trkpt>
      <trkpt lat="45.04518" lon="5.82397">
        <ele>504</ele>
        <time>2024-06-04T21:39:32Z</time>
      </trkpt>
      <trkpt lat="45.04506" lon="5.82414">
        <ele>501</ele>
        <time>2024-06-04T21:39:35Z</time>
      </trkpt>
      <trkpt lat="45.04492" lon="5.82425">
        <ele>499</ele>
        <time>2024-06-04T21:39:38Z</time>
      </trkpt>
      <trkpt lat="45.04483" lon="5.8243">
        <ele>498</ele>
        <time>2024-06-04T21:39:40Z</time>
      </trkpt>
      <trkpt lat="45.04473" lon="5.82431">
        <ele>499</ele>
        <time>2024-06-04T21:39:41Z</time>
      </trkpt>
      <trkpt lat="45.0446" lon="5.82427">
        <ele>500</ele>
        <time>2024-06-04T21:39:44Z</time>
      </trkpt>
      <trkpt lat="45.04428" lon="5.82409">
        <ele>508</ele>
        <time>2024-06-04T21:39:50Z</time>
      </trkpt>
      <trkpt lat="45.04352" lon="5.82355">
        <ele>512</ele>
        <time>2024-06-04T21:40:05Z</time>
      </trkpt>
      <trkpt lat="45.04343" lon="5.82346">
        <ele>513</ele>
        <time>2024-06-04T21:40:07Z</time>
      </trkpt>
      <trkpt lat="45.04329" lon="5.82301">
        <ele>520</ele>
        <time>2024-06-04T21:40:13Z</time>
      </trkpt>
      <trkpt lat="45.04297" lon="5.82236">
        <ele>531</ele>
        <time>2024-06-04T21:40:23Z</time>
      </trkpt>
      <trkpt lat="45.04284" lon="5.82222">
        <ele>536</ele>
        <time>2024-06-04T21:40:26Z</time>
      </trkpt>
      <trkpt lat="45.04273" lon="5.82212">
        <ele>540</ele>
        <time>2024-06-04T21:40:28Z</time>
      </trkpt>
      <trkpt lat="45.04259" lon="5.82204">
        <ele>543</ele>
        <time>2024-06-04T21:40:31Z</time>
      </trkpt>
      <trkpt lat="45.04236" lon="5.82198">
        <ele>545</ele>
        <time>2024-06-04T21:40:35Z</time>
      </trkpt>
      <trkpt lat="45.04172" lon="5.82158">
        <ele>559</ele>
        <time>2024-06-04T21:40:48Z</time>
      </trkpt>
      <trkpt lat="45.04147" lon="5.82151">
        <ele>564</ele>
        <time>2024-06-04T21:40:52Z</time>
      </trkpt>
      <trkpt lat="45.04096" lon="5.82166">
        <ele>556</ele>
        <time>2024-06-04T21:41:02Z</time>
      </trkpt>
      <trkpt lat="45.04078" lon="5.82168">
        <ele>556</ele>
        <time>2024-06-04T21:41:05Z</time>
      </trkpt>
      <trkpt lat="45.04036" lon="5.82162">
        <ele>565</ele>
        <time>2024-06-04T21:41:12Z</time>
      </trkpt>
      <trkpt lat="45.04014" lon="5.82164">
        <ele>565</ele>
        <time>2024-06-04T21:41:16Z</time>
      </trkpt>
      <trkpt lat="45.03986" lon="5.82172">
        <ele>567</ele>
        <time>2024-06-04T21:41:21Z</time>
      </trkpt>
      <trkpt lat="45.03954" lon="5.82167">
        <ele>576</ele>
        <time>2024-06-04T21:41:27Z</time>
      </trkpt>
      <trkpt lat="45.03921" lon="5.82177">
        <ele>582</ele>
        <time>2024-06-04T21:41:33Z</time>
      </trkpt>
      <trkpt lat="45.03881" lon="5.82212">
        <ele>574</ele>
        <time>2024-06-04T21:41:41Z</time>
      </trkpt>
      <trkpt lat="45.03875" lon="5.82213">
        <ele>575</ele>
        <time>2024-06-04T21:41:42Z</time>
      </trkpt>
      <trkpt lat="45.03855" lon="5.82203">
        <ele>580</ele>
        <time>2024-06-04T21:41:46Z</time>
      </trkpt>
      <trkpt lat="45.0382" lon="5.82194">
        <ele>585</ele>
        <time>2024-06-04T21:41:53Z</time>
      </trkpt>
      <trkpt lat="45.03805" lon="5.82188">
        <ele>586</ele>
        <time>2024-06-04T21:41:55Z</time>
      </trkpt>
      <trkpt lat="45.03788" lon="5.82175">
        <ele>588</ele>
        <time>2024-06-04T21:41:59Z</time>
      </trkpt>
      <trkpt lat="45.03773" lon="5.82176">
        <ele>586</ele>
        <time>2024-06-04T21:42:01Z</time>
      </trkpt>
      <trkpt lat="45.03766" lon="5.82183">
        <ele>584</ele>
        <time>2024-06-04T21:42:03Z</time>
      </trkpt>
      <trkpt lat="45.03739" lon="5.82217">
        <ele>583</ele>
        <time>2024-06-04T21:42:09Z</time>
      </trkpt>
      <trkpt lat="45.03735" lon="5.82224">
        <ele>583</ele>
        <time>2024-06-04T21:42:10Z</time>
      </trkpt>
      <trkpt lat="45.03732" lon="5.82235">
        <ele>583</ele>
        <time>2024-06-04T21:42:12Z</time>
      </trkpt>
      <trkpt lat="45.03733" lon="5.82247">
        <ele>582</ele>
        <time>2024-06-04T21:42:13Z</time>
      </trkpt>
      <trkpt lat="45.03741" lon="5.8226">
        <ele>585</ele>
        <time>2024-06-04T21:42:16Z</time>
      </trkpt>
      <trkpt lat="45.03756" lon="5.82277">
        <ele>590</ele>
        <time>2024-06-04T21:42:19Z</time>
      </trkpt>
      <trkpt lat="45.03779" lon="5.82302">
        <ele>595</ele>
        <time>2024-06-04T21:42:24Z</time>
      </trkpt>
      <trkpt lat="45.03796" lon="5.82316">
        <ele>594</ele>
        <time>2024-06-04T21:42:28Z</time>
      </trkpt>
      <trkpt lat="45.03848" lon="5.82332">
        <ele>582</ele>
        <time>2024-06-04T21:42:37Z</time>
      </trkpt>
      <trkpt lat="45.0389" lon="5.82364">
        <ele>587</ele>
        <time>2024-06-04T21:42:46Z</time>
      </trkpt>
      <trkpt lat="45.03903" lon="5.82366">
        <ele>585</ele>
        <time>2024-06-04T21:42:48Z</time>
      </trkpt>
      <trkpt lat="45.03932" lon="5.82357">
        <ele>579</ele>
        <time>2024-06-04T21:42:53Z</time>
      </trkpt>
      <trkpt lat="45.03953" lon="5.82363">
        <ele>577</ele>
        <time>2024-06-04T21:42:57Z</time>
      </trkpt>
      <trkpt lat="45.03966" lon="5.82372">
        <ele>577</ele>
        <time>2024-06-04T21:43:00Z</time>
      </trkpt>
      <trkpt lat="45.0397" lon="5.82379">
        <ele>578</ele>
        <time>2024-06-04T21:43:01Z</time>
      </trkpt>
      <trkpt lat="45.03971" lon="5.82385">
        <ele>579</ele>
        <time>2024-06-04T21:43:02Z</time>
      </trkpt>
      <trkpt lat="45.0397" lon="5.82392">
        <ele>580</ele>
        <time>2024-06-04T21:43:03Z</time>
      </trkpt>
      <trkpt lat="45.03967" lon="5.82397">
        <ele>581</ele>
        <time>2024-06-04T21:43:03Z</time>
      </trkpt>
      <trkpt lat="45.03933" lon="5.82414">
        <ele>590</ele>
        <time>2024-06-04T21:43:10Z</time>
      </trkpt>
      <trkpt lat="45.03876" lon="5.82462">
        <ele>605</ele>
        <time>2024-06-04T21:43:22Z</time>
      </trkpt>
      <trkpt lat="45.03859" lon="5.82482">
        <ele>610</ele>
        <time>2024-06-04T21:43:25Z</time>
      </trkpt>
      <trkpt lat="45.03844" lon="5.82495">
        <ele>615</ele>
        <time>2024-06-04T21:43:29Z</time>
      </trkpt>
      <trkpt lat="45.03836" lon="5.82511">
        <ele>618</ele>
        <time>2024-06-04T21:43:31Z</time>
      </trkpt>
      <trkpt lat="45.03831" lon="5.82528">
        <ele>620</ele>
        <time>2024-06-04T21:43:33Z</time>
      </trkpt>
      <trkpt lat="45.03828" lon="5.82555">
        <ele>621</ele>
        <time>2024-06-04T21:43:37Z</time>
      </trkpt>
      <trkpt lat="45.03827" lon="5.82597">
        <ele>624</ele>
        <time>2024-06-04T21:43:42Z</time>
      </trkpt>
      <trkpt lat="45.03831" lon="5.82609">
        <ele>625</ele>
        <time>2024-06-04T21:43:44Z</time>
      </trkpt>
      <trkpt lat="45.03842" lon="5.82622">
        <ele>625</ele>
        <time>2024-06-04T21:43:46Z</time>
      </trkpt>
      <trkpt lat="45.03866" lon="5.82635">
        <ele>622</ele>
        <time>2024-06-04T21:43:51Z</time>
      </trkpt>
      <trkpt lat="45.0387" lon="5.82646">
        <ele>623</ele>
        <time>2024-06-04T21:43:52Z</time>
      </trkpt>
      <trkpt lat="45.03872" lon="5.82666">
        <ele>627</ele>
        <time>2024-06-04T21:43:55Z</time>
      </trkpt>
      <trkpt lat="45.03881" lon="5.82677">
        <ele>628</ele>
        <time>2024-06-04T21:43:57Z</time>
      </trkpt>
      <trkpt lat="45.0389" lon="5.82685">
        <ele>628</ele>
        <time>2024-06-04T21:43:59Z</time>
      </trkpt>
      <trkpt lat="45.03917" lon="5.82694">
        <ele>624</ele>
        <time>2024-06-04T21:44:04Z</time>
      </trkpt>
      <trkpt lat="45.03928" lon="5.82703">
        <ele>622</ele>
        <time>2024-06-04T21:44:06Z</time>
      </trkpt>
      <trkpt lat="45.03932" lon="5.8271">
        <ele>623</ele>
        <time>2024-06-04T21:44:07Z</time>
      </trkpt>
      <trkpt lat="45.03934" lon="5.82718">
        <ele>624</ele>
        <time>2024-06-04T21:44:08Z</time>
      </trkpt>
      <trkpt lat="45.03929" lon="5.82747">
        <ele>631</ele>
        <time>2024-06-04T21:44:12Z</time>
      </trkpt>
      <trkpt lat="45.03919" lon="5.82785">
        <ele>640</ele>
        <time>2024-06-04T21:44:17Z</time>
      </trkpt>
      <trkpt lat="45.03922" lon="5.82815">
        <ele>644</ele>
        <time>2024-06-04T21:44:21Z</time>
      </trkpt>
      <trkpt lat="45.03927" lon="5.82843">
        <ele>648</ele>
        <time>2024-06-04T21:44:25Z</time>
      </trkpt>
      <trkpt lat="45.03942" lon="5.8287">
        <ele>651</ele>
        <time>2024-06-04T21:44:29Z</time>
      </trkpt>
      <trkpt lat="45.03964" lon="5.82896">
        <ele>651</ele>
        <time>2024-06-04T21:44:34Z</time>
      </trkpt>
      <trkpt lat="45.0398" lon="5.82941">
        <ele>658</ele>
        <time>2024-06-04T21:44:40Z</time>
      </trkpt>
      <trkpt lat="45.0402" lon="5.83016">
        <ele>665</ele>
        <time>2024-06-04T21:44:52Z</time>
      </trkpt>
      <trkpt lat="45.04085" lon="5.83081">
        <ele>662</ele>
        <time>2024-06-04T21:45:06Z</time>
      </trkpt>
      <trkpt lat="45.04105" lon="5.83141">
        <ele>674</ele>
        <time>2024-06-04T21:45:15Z</time>
      </trkpt>
      <trkpt lat="45.04151" lon="5.8322">
        <ele>674</ele>
        <time>2024-06-04T21:45:28Z</time>
      </trkpt>
      <trkpt lat="45.04164" lon="5.83258">
        <ele>678</ele>
        <time>2024-06-04T21:45:33Z</time>
      </trkpt>
      <trkpt lat="45.04185" lon="5.83292">
        <ele>683</ele>
        <time>2024-06-04T21:45:39Z</time>
      </trkpt>
      <trkpt lat="45.04213" lon="5.83311">
        <ele>680</ele>
        <time>2024-06-04T21:45:44Z</time>
      </trkpt>
      <trkpt lat="45.04237" lon="5.83336">
        <ele>680</ele>
        <time>2024-06-04T21:45:49Z</time>
      </trkpt>
      <trkpt lat="45.04253" lon="5.83367">
        <ele>682</ele>
        <time>2024-06-04T21:45:54Z</time>
      </trkpt>
      <trkpt lat="45.04268" lon="5.8342">
        <ele>689</ele>
        <time>2024-06-04T21:46:01Z</time>
      </trkpt>
      <trkpt lat="45.04279" lon="5.83451">
        <ele>694</ele>
        <time>2024-06-04T21:46:06Z</time>
      </trkpt>
      <trkpt lat="45.04308" lon="5.8351">
        <ele>702</ele>
        <time>2024-06-04T21:46:15Z</time>
      </trkpt>
      <trkpt lat="45.04318" lon="5.83526">
        <ele>705</ele>
        <time>2024-06-04T21:46:18Z</time>
      </trkpt>
      <trkpt lat="45.04344" lon="5.83544">
        <ele>705</ele>
        <time>2024-06-04T21:46:23Z</time>
      </trkpt>
      <trkpt lat="45.04355" lon="5.83544">
        <ele>703</ele>
        <time>2024-06-04T21:46:25Z</time>
      </trkpt>
      <trkpt lat="45.04376" lon="5.83534">
        <ele>694</ele>
        <time>2024-06-04T21:46:29Z</time>
      </trkpt>
      <trkpt lat="45.04385" lon="5.83532">
        <ele>691</ele>
        <time>2024-06-04T21:46:30Z</time>
      </trkpt>
      <trkpt lat="45.04393" lon="5.83537">
        <ele>692</ele>
        <time>2024-06-04T21:46:32Z</time>
      </trkpt>
      <trkpt lat="45.04396" lon="5.83544">
        <ele>695</ele>
        <time>2024-06-04T21:46:33Z</time>
      </trkpt>
      <trkpt lat="45.04394" lon="5.83553">
        <ele>701</ele>
        <time>2024-06-04T21:46:34Z</time>
      </trkpt>
      <trkpt lat="45.0439" lon="5.83554">
        <ele>702</ele>
        <time>2024-06-04T21:46:35Z</time>
      </trkpt>
      <trkpt lat="45.04376" lon="5.83551">
        <ele>703</ele>
        <time>2024-06-04T21:46:37Z</time>
      </trkpt>
      <trkpt lat="45.04349" lon="5.8356">
        <ele>712</ele>
        <time>2024-06-04T21:46:42Z</time>
      </trkpt>
      <trkpt lat="45.04338" lon="5.83562">
        <ele>715</ele>
        <time>2024-06-04T21:46:44Z</time>
      </trkpt>
      <trkpt lat="45.04319" lon="5.83561">
        <ele>722</ele>
        <time>2024-06-04T21:46:47Z</time>
      </trkpt>
      <trkpt lat="45.04285" lon="5.83524">
        <ele>719</ele>
        <time>2024-06-04T21:46:55Z</time>
      </trkpt>
      <trkpt lat="45.04263" lon="5.83496">
        <ele>717</ele>
        <time>2024-06-04T21:47:00Z</time>
      </trkpt>
      <trkpt lat="45.04218" lon="5.83427">
        <ele>717</ele>
        <time>2024-06-04T21:47:12Z</time>
      </trkpt>
      <trkpt lat="45.04187" lon="5.83392">
        <ele>720</ele>
        <time>2024-06-04T21:47:19Z</time>
      </trkpt>
      <trkpt lat="45.04154" lon="5.83379">
        <ele>730</ele>
        <time>2024-06-04T21:47:25Z</time>
      </trkpt>
      <trkpt lat="45.04129" lon="5.83362">
        <ele>735</ele>
        <time>2024-06-04T21:47:30Z</time>
      </trkpt>
      <trkpt lat="45.04105" lon="5.83323">
        <ele>731</ele>
        <time>2024-06-04T21:47:37Z</time>
      </trkpt>
      <trkpt lat="45.04056" lon="5.83276">
        <ele>742</ele>
        <time>2024-06-04T21:47:47Z</time>
      </trkpt>
      <trkpt lat="45.04044" lon="5.83261">
        <ele>745</ele>
        <time>2024-06-04T21:47:50Z</time>
      </trkpt>
      <trkpt lat="45.04037" lon="5.83246">
        <ele>745</ele>
        <time>2024-06-04T21:47:52Z</time>
      </trkpt>
      <trkpt lat="45.04029" lon="5.83219">
        <ele>741</ele>
        <time>2024-06-04T21:47:56Z</time>
      </trkpt>
      <trkpt lat="45.04021" lon="5.83205">
        <ele>741</ele>
        <time>2024-06-04T21:47:58Z</time>
      </trkpt>
      <trkpt lat="45.04" lon="5.83191">
        <ele>748</ele>
        <time>2024-06-04T21:48:03Z</time>
      </trkpt>
      <trkpt lat="45.03975" lon="5.83182">
        <ele>755</ele>
        <time>2024-06-04T21:48:07Z</time>
      </trkpt>
      <trkpt lat="45.03906" lon="5.83138">
        <ele>763</ele>
        <time>2024-06-04T21:48:21Z</time>
      </trkpt>
      <trkpt lat="45.03877" lon="5.83112">
        <ele>765</ele>
        <time>2024-06-04T21:48:27Z</time>
      </trkpt>
      <trkpt lat="45.03859" lon="5.8308">
        <ele>760</ele>
        <time>2024-06-04T21:48:32Z</time>
      </trkpt>
      <trkpt lat="45.03836" lon="5.8306">
        <ele>763</ele>
        <time>2024-06-04T21:48:37Z</time>
      </trkpt>
      <trkpt lat="45.03806" lon="5.83048">
        <ele>771</ele>
        <time>2024-06-04T21:48:42Z</time>
      </trkpt>
      <trkpt lat="45.03768" lon="5.83026">
        <ele>779</ele>
        <time>2024-06-04T21:48:49Z</time>
      </trkpt>
      <trkpt lat="45.03718" lon="5.82984">
        <ele>784</ele>
        <time>2024-06-04T21:49:00Z</time>
      </trkpt>
      <trkpt lat="45.03693" lon="5.82973">
        <ele>790</ele>
        <time>2024-06-04T21:49:04Z</time>
      </trkpt>
      <trkpt lat="45.03659" lon="5.82927">
        <ele>788</ele>
        <time>2024-06-04T21:49:13Z</time>
      </trkpt>
      <trkpt lat="45.03631" lon="5.8291">
        <ele>789</ele>
        <time>2024-06-04T21:49:18Z</time>
      </trkpt>
      <trkpt lat="45.0358" lon="5.8289">
        <ele>798</ele>
        <time>2024-06-04T21:49:28Z</time>
      </trkpt>
      <trkpt lat="45.03549" lon="5.82862">
        <ele>799</ele>
        <time>2024-06-04T21:49:34Z</time>
      </trkpt>
      <trkpt lat="45.03536" lon="5.82853">
        <ele>800</ele>
        <time>2024-06-04T21:49:37Z</time>
      </trkpt>
      <trkpt lat="45.03509" lon="5.8284">
        <ele>802</ele>
        <time>2024-06-04T21:49:42Z</time>
      </trkpt>
      <trkpt lat="45.03494" lon="5.82808">
        <ele>795</ele>
        <time>2024-06-04T21:49:47Z</time>
      </trkpt>
      <trkpt lat="45.03488" lon="5.82803">
        <ele>795</ele>
        <time>2024-06-04T21:49:48Z</time>
      </trkpt>
      <trkpt lat="45.03484" lon="5.82803">
        <ele>796</ele>
        <time>2024-06-04T21:49:49Z</time>
      </trkpt>
      <trkpt lat="45.03479" lon="5.8281">
        <ele>800</ele>
        <time>2024-06-04T21:49:50Z</time>
      </trkpt>
      <trkpt lat="45.03479" lon="5.82819">
        <ele>803</ele>
        <time>2024-06-04T21:49:51Z</time>
      </trkpt>
      <trkpt lat="45.0349" lon="5.82839">
        <ele>806</ele>
        <time>2024-06-04T21:49:54Z</time>
      </trkpt>
      <trkpt lat="45.03494" lon="5.82844">
        <ele>807</ele>
        <time>2024-06-04T21:49:55Z</time>
      </trkpt>
      <trkpt lat="45.03527" lon="5.82868">
        <ele>808</ele>
        <time>2024-06-04T21:50:02Z</time>
      </trkpt>
      <trkpt lat="45.03556" lon="5.82911">
        <ele>814</ele>
        <time>2024-06-04T21:50:09Z</time>
      </trkpt>
      <trkpt lat="45.03602" lon="5.82945">
        <ele>811</ele>
        <time>2024-06-04T21:50:18Z</time>
      </trkpt>
      <trkpt lat="45.03638" lon="5.82993">
        <ele>817</ele>
        <time>2024-06-04T21:50:27Z</time>
      </trkpt>
      <trkpt lat="45.03654" lon="5.83028">
        <ele>824</ele>
        <time>2024-06-04T21:50:33Z</time>
      </trkpt>
      <trkpt lat="45.03695" lon="5.83072">
        <ele>824</ele>
        <time>2024-06-04T21:50:42Z</time>
      </trkpt>
      <trkpt lat="45.03726" lon="5.83111">
        <ele>828</ele>
        <time>2024-06-04T21:50:49Z</time>
      </trkpt>
      <trkpt lat="45.03756" lon="5.83144">
        <ele>830</ele>
        <time>2024-06-04T21:50:56Z</time>
      </trkpt>
      <trkpt lat="45.03785" lon="5.83162">
        <ele>825</ele>
        <time>2024-06-04T21:51:01Z</time>
      </trkpt>
      <trkpt lat="45.03813" lon="5.83209">
        <ele>833</ele>
        <time>2024-06-04T21:51:09Z</time>
      </trkpt>
      <trkpt lat="45.03845" lon="5.83252">
        <ele>837</ele>
        <time>2024-06-04T21:51:17Z</time>
      </trkpt>
      <trkpt lat="45.03866" lon="5.83276">
        <ele>840</ele>
        <time>2024-06-04T21:51:22Z</time>
      </trkpt>
      <trkpt lat="45.03905" lon="5.83337">
        <ele>847</ele>
        <time>2024-06-04T21:51:32Z</time>
      </trkpt>
      <trkpt lat="45.03984" lon="5.83428">
        <ele>845</ele>
        <time>2024-06-04T21:51:50Z</time>
      </trkpt>
      <trkpt lat="45.0401" lon="5.8348">
        <ele>860</ele>
        <time>2024-06-04T21:51:58Z</time>
      </trkpt>
      <trkpt lat="45.04073" lon="5.83558">
        <ele>858</ele>
        <time>2024-06-04T21:52:13Z</time>
      </trkpt>
      <trkpt lat="45.04116" lon="5.83602">
        <ele>856</ele>
        <time>2024-06-04T21:52:23Z</time>
      </trkpt>
      <trkpt lat="45.04126" lon="5.83619">
        <ele>859</ele>
        <time>2024-06-04T21:52:25Z</time>
      </trkpt>
      <trkpt lat="45.04139" lon="5.83655">
        <ele>868</ele>
        <time>2024-06-04T21:52:31Z</time>
      </trkpt>
      <trkpt lat="45.04164" lon="5.83701">
        <ele>874</ele>
        <time>2024-06-04T21:52:38Z</time>
      </trkpt>
      <trkpt lat="45.04176" lon="5.83715">
        <ele>876</ele>
        <time>2024-06-04T21:52:41Z</time>
      </trkpt>
      <trkpt lat="45.04199" lon="5.83728">
        <ele>871</ele>
        <time>2024-06-04T21:52:45Z</time>
      </trkpt>
      <trkpt lat="45.04213" lon="5.83733">
        <ele>867</ele>
        <time>2024-06-04T21:52:48Z</time>
      </trkpt>
      <trkpt lat="45.04222" lon="5.83741">
        <ele>867</ele>
        <time>2024-06-04T21:52:49Z</time>
      </trkpt>
      <trkpt lat="45.04225" lon="5.83755">
        <ele>872</ele>
        <time>2024-06-04T21:52:51Z</time>
      </trkpt>
      <trkpt lat="45.04224" lon="5.83785">
        <ele>888</ele>
        <time>2024-06-04T21:52:55Z</time>
      </trkpt>
      <trkpt lat="45.0423" lon="5.83796">
        <ele>890</ele>
        <time>2024-06-04T21:52:57Z</time>
      </trkpt>
      <trkpt lat="45.04261" lon="5.83818">
        <ele>886</ele>
        <time>2024-06-04T21:53:03Z</time>
      </trkpt>
      <trkpt lat="45.04282" lon="5.83836">
        <ele>888</ele>
        <time>2024-06-04T21:53:07Z</time>
      </trkpt>
      <trkpt lat="45.04313" lon="5.83888">
        <ele>895</ele>
        <time>2024-06-04T21:53:16Z</time>
      </trkpt>
      <trkpt lat="45.04334" lon="5.83915">
        <ele>894</ele>
        <time>2024-06-04T21:53:21Z</time>
      </trkpt>
      <trkpt lat="45.04351" lon="5.83922">
        <ele>892</ele>
        <time>2024-06-04T21:53:24Z</time>
      </trkpt>
      <trkpt lat="45.04361" lon="5.83932">
        <ele>893</ele>
        <time>2024-06-04T21:53:26Z</time>
      </trkpt>
      <trkpt lat="45.04401" lon="5.83983">
        <ele>898</ele>
        <time>2024-06-04T21:53:36Z</time>
      </trkpt>
      <trkpt lat="45.04433" lon="5.8404">
        <ele>909</ele>
        <time>2024-06-04T21:53:45Z</time>
      </trkpt>
      <trkpt lat="45.04461" lon="5.84108">
        <ele>925</ele>
        <time>2024-06-04T21:53:55Z</time>
      </trkpt>
      <trkpt lat="45.04475" lon="5.84124">
        <ele>925</ele>
        <time>2024-06-04T21:53:58Z</time>
      </trkpt>
      <trkpt lat="45.0451" lon="5.84145">
        <ele>919</ele>
        <time>2024-06-04T21:54:05Z</time>
      </trkpt>
      <trkpt lat="45.04516" lon="5.84153">
        <ele>920</ele>
        <time>2024-06-04T21:54:06Z</time>
      </trkpt>
      <trkpt lat="45.04525" lon="5.84175">
        <ele>927</ele>
        <time>2024-06-04T21:54:10Z</time>
      </trkpt>
      <trkpt lat="45.04533" lon="5.84188">
        <ele>929</ele>
        <time>2024-06-04T21:54:12Z</time>
      </trkpt>
      <trkpt lat="45.04544" lon="5.842">
        <ele>929</ele>
        <time>2024-06-04T21:54:14Z</time>
      </trkpt>
      <trkpt lat="45.04554" lon="5.84206">
        <ele>928</ele>
        <time>2024-06-04T21:54:16Z</time>
      </trkpt>
      <trkpt lat="45.04574" lon="5.84213">
        <ele>925</ele>
        <time>2024-06-04T21:54:20Z</time>
      </trkpt>
      <trkpt lat="45.04589" lon="5.84232">
        <ele>927</ele>
        <time>2024-06-04T21:54:23Z</time>
      </trkpt>
      <trkpt lat="45.0461" lon="5.8428">
        <ele>935</ele>
        <time>2024-06-04T21:54:30Z</time>
      </trkpt>
      <trkpt lat="45.04642" lon="5.84337">
        <ele>939</ele>
        <time>2024-06-04T21:54:40Z</time>
      </trkpt>
      <trkpt lat="45.04673" lon="5.84399">
        <ele>942</ele>
        <time>2024-06-04T21:54:49Z</time>
      </trkpt>
      <trkpt lat="45.04684" lon="5.8441">
        <ele>943</ele>
        <time>2024-06-04T21:54:52Z</time>
      </trkpt>
      <trkpt lat="45.04692" lon="5.84414">
        <ele>942</ele>
        <time>2024-06-04T21:54:53Z</time>
      </trkpt>
      <trkpt lat="45.04718" lon="5.84415">
        <ele>939</ele>
        <time>2024-06-04T21:54:58Z</time>
      </trkpt>
      <trkpt lat="45.04729" lon="5.84423">
        <ele>940</ele>
        <time>2024-06-04T21:55:00Z</time>
      </trkpt>
      <trkpt lat="45.04754" lon="5.8442">
        <ele>936</ele>
        <time>2024-06-04T21:55:04Z</time>
      </trkpt>
      <trkpt lat="45.04764" lon="5.84425">
        <ele>937</ele>
        <time>2024-06-04T21:55:06Z</time>
      </trkpt>
      <trkpt lat="45.04774" lon="5.84437">
        <ele>939</ele>
        <time>2024-06-04T21:55:09Z</time>
      </trkpt>
      <trkpt lat="45.04783" lon="5.84455">
        <ele>941</ele>
        <time>2024-06-04T21:55:11Z</time>
      </trkpt>
      <trkpt lat="45.04797" lon="5.84495">
        <ele>947</ele>
        <time>2024-06-04T21:55:17Z</time>
      </trkpt>
      <trkpt lat="45.04844" lon="5.8458">
        <ele>952</ele>
        <time>2024-06-04T21:55:31Z</time>
      </trkpt>
      <trkpt lat="45.04845" lon="5.84588">
        <ele>953</ele>
        <time>2024-06-04T21:55:32Z</time>
      </trkpt>
      <trkpt lat="45.04841" lon="5.846">
        <ele>955</ele>
        <time>2024-06-04T21:55:33Z</time>
      </trkpt>
      <trkpt lat="45.04836" lon="5.84603">
        <ele>957</ele>
        <time>2024-06-04T21:55:34Z</time>
      </trkpt>
      <trkpt lat="45.04827" lon="5.84601">
        <ele>959</ele>
        <time>2024-06-04T21:55:36Z</time>
      </trkpt>
      <trkpt lat="45.04823" lon="5.84595">
        <ele>959</ele>
        <time>2024-06-04T21:55:37Z</time>
      </trkpt>
      <trkpt lat="45.04806" lon="5.84542">
        <ele>953</ele>
        <time>2024-06-04T21:55:44Z</time>
      </trkpt>
      <trkpt lat="45.04794" lon="5.84528">
        <ele>952</ele>
        <time>2024-06-04T21:55:47Z</time>
      </trkpt>
      <trkpt lat="45.04788" lon="5.84525">
        <ele>953</ele>
        <time>2024-06-04T21:55:48Z</time>
      </trkpt>
      <trkpt lat="45.04775" lon="5.84528">
        <ele>955</ele>
        <time>2024-06-04T21:55:50Z</time>
      </trkpt>
      <trkpt lat="45.04759" lon="5.8454">
        <ele>959</ele>
        <time>2024-06-04T21:55:54Z</time>
      </trkpt>
      <trkpt lat="45.04749" lon="5.84545">
        <ele>962</ele>
        <time>2024-06-04T21:55:55Z</time>
      </trkpt>
      <trkpt lat="45.04737" lon="5.84546">
        <ele>965</ele>
        <time>2024-06-04T21:55:58Z</time>
      </trkpt>
      <trkpt lat="45.04713" lon="5.84538">
        <ele>969</ele>
        <time>2024-06-04T21:56:02Z</time>
      </trkpt>
      <trkpt lat="45.04679" lon="5.84516">
        <ele>970</ele>
        <time>2024-06-04T21:56:09Z</time>
      </trkpt>
      <trkpt lat="45.04665" lon="5.84509">
        <ele>971</ele>
        <time>2024-06-04T21:56:11Z</time>
      </trkpt>
      <trkpt lat="45.04643" lon="5.84503">
        <ele>977</ele>
        <time>2024-06-04T21:56:15Z</time>
      </trkpt>
      <trkpt lat="45.04631" lon="5.84493">
        <ele>978</ele>
        <time>2024-06-04T21:56:18Z</time>
      </trkpt>
      <trkpt lat="45.0461" lon="5.8446">
        <ele>977</ele>
        <time>2024-06-04T21:56:23Z</time>
      </trkpt>
      <trkpt lat="45.0459" lon="5.84441">
        <ele>979</ele>
        <time>2024-06-04T21:56:28Z</time>
      </trkpt>
      <trkpt lat="45.04575" lon="5.84422">
        <ele>979</ele>
        <time>2024-06-04T21:56:31Z</time>
      </trkpt>
      <trkpt lat="45.04554" lon="5.84392">
        <ele>980</ele>
        <time>2024-06-04T21:56:37Z</time>
      </trkpt>
      <trkpt lat="45.04539" lon="5.84382">
        <ele>982</ele>
        <time>2024-06-04T21:56:39Z</time>
      </trkpt>
      <trkpt lat="45.04516" lon="5.84375">
        <ele>988</ele>
        <time>2024-06-04T21:56:44Z</time>
      </trkpt>
      <trkpt lat="45.04506" lon="5.84369">
        <ele>989</ele>
        <time>2024-06-04T21:56:46Z</time>
      </trkpt>
      <trkpt lat="45.04498" lon="5.84359">
        <ele>989</ele>
        <time>2024-06-04T21:56:48Z</time>
      </trkpt>
      <trkpt lat="45.04494" lon="5.8435">
        <ele>988</ele>
        <time>2024-06-04T21:56:49Z</time>
      </trkpt>
      <trkpt lat="45.04483" lon="5.84303">
        <ele>981</ele>
        <time>2024-06-04T21:56:55Z</time>
      </trkpt>
      <trkpt lat="45.04477" lon="5.84292">
        <ele>981</ele>
        <time>2024-06-04T21:56:57Z</time>
      </trkpt>
      <trkpt lat="45.04452" lon="5.8426">
        <ele>984</ele>
        <time>2024-06-04T21:57:03Z</time>
      </trkpt>
      <trkpt lat="45.04445" lon="5.84256">
        <ele>986</ele>
        <time>2024-06-04T21:57:04Z</time>
      </trkpt>
      <trkpt lat="45.04437" lon="5.84255">
        <ele>989</ele>
        <time>2024-06-04T21:57:06Z</time>
      </trkpt>
      <trkpt lat="45.0441" lon="5.84259">
        <ele>1001</ele>
        <time>2024-06-04T21:57:10Z</time>
      </trkpt>
      <trkpt lat="45.04392" lon="5.84252">
        <ele>1006</ele>
        <time>2024-06-04T21:57:14Z</time>
      </trkpt>
      <trkpt lat="45.04353" lon="5.84219">
        <ele>1011</ele>
        <time>2024-06-04T21:57:22Z</time>
      </trkpt>
      <trkpt lat="45.04348" lon="5.84209">
        <ele>1010</ele>
        <time>2024-06-04T21:57:23Z</time>
      </trkpt>
      <trkpt lat="45.04333" lon="5.8417">
        <ele>1004</ele>
        <time>2024-06-04T21:57:29Z</time>
      </trkpt>
      <trkpt lat="45.04322" lon="5.84156">
        <ele>1002</ele>
        <time>2024-06-04T21:57:32Z</time>
      </trkpt>
      <trkpt lat="45.04294" lon="5.8414">
        <ele>1004</ele>
        <time>2024-06-04T21:57:37Z</time>
      </trkpt>
      <trkpt lat="45.04266" lon="5.84116">
        <ele>1002</ele>
        <time>2024-06-04T21:57:43Z</time>
      </trkpt>
      <trkpt lat="45.04254" lon="5.84113">
        <ele>1005</ele>
        <time>2024-06-04T21:57:45Z</time>
      </trkpt>
      <trkpt lat="45.04235" lon="5.84113">
        <ele>1011</ele>
        <time>2024-06-04T21:57:48Z</time>
      </trkpt>
      <trkpt lat="45.04225" lon="5.84109">
        <ele>1012</ele>
        <time>2024-06-04T21:57:50Z</time>
      </trkpt>
      <trkpt lat="45.04196" lon="5.84072">
        <ele>1010</ele>
        <time>2024-06-04T21:57:57Z</time>
      </trkpt>
      <trkpt lat="45.0419" lon="5.8407">
        <ele>1011</ele>
        <time>2024-06-04T21:57:58Z</time>
      </trkpt>
      <trkpt lat="45.04184" lon="5.84072">
        <ele>1014</ele>
        <time>2024-06-04T21:57:59Z</time>
      </trkpt>
      <trkpt lat="45.0418" lon="5.84079">
        <ele>1018</ele>
        <time>2024-06-04T21:58:00Z</time>
      </trkpt>
      <trkpt lat="45.04178" lon="5.84091">
        <ele>1022</ele>
        <time>2024-06-04T21:58:02Z</time>
      </trkpt>
      <trkpt lat="45.0418" lon="5.84098">
        <ele>1024</ele>
        <time>2024-06-04T21:58:03Z</time>
      </trkpt>
      <trkpt lat="45.04191" lon="5.84112">
        <ele>1024</ele>
        <time>2024-06-04T21:58:06Z</time>
      </trkpt>
      <trkpt lat="45.04258" lon="5.84129">
        <ele>1010</ele>
        <time>2024-06-04T21:58:18Z</time>
      </trkpt>
      <trkpt lat="45.04263" lon="5.84136">
        <ele>1011</ele>
        <time>2024-06-04T21:58:19Z</time>
      </trkpt>
      <trkpt lat="45.04275" lon="5.84162">
        <ele>1018</ele>
        <time>2024-06-04T21:58:23Z</time>
      </trkpt>
      <trkpt lat="45.04285" lon="5.84173">
        <ele>1019</ele>
        <time>2024-06-04T21:58:25Z</time>
      </trkpt>
      <trkpt lat="45.04305" lon="5.84184">
        <ele>1017</ele>
        <time>2024-06-04T21:58:29Z</time>
      </trkpt>
      <trkpt lat="45.04312" lon="5.84197">
        <ele>1019</ele>
        <time>2024-06-04T21:58:31Z</time>
      </trkpt>
      <trkpt lat="45.04314" lon="5.84214">
        <ele>1023</ele>
        <time>2024-06-04T21:58:33Z</time>
      </trkpt>
      <trkpt lat="45.04311" lon="5.84242">
        <ele>1033</ele>
        <time>2024-06-04T21:58:37Z</time>
      </trkpt>
      <trkpt lat="45.04313" lon="5.84259">
        <ele>1038</ele>
        <time>2024-06-04T21:58:39Z</time>
      </trkpt>
      <trkpt lat="45.04399" lon="5.84403">
        <ele>1044</ele>
        <time>2024-06-04T21:59:03Z</time>
      </trkpt>
      <trkpt lat="45.04421" lon="5.84449">
        <ele>1047</ele>
        <time>2024-06-04T21:59:10Z</time>
      </trkpt>
      <trkpt lat="45.04438" lon="5.8449">
        <ele>1050</ele>
        <time>2024-06-04T21:59:16Z</time>
      </trkpt>
      <trkpt lat="45.04486" lon="5.84591">
        <ele>1065</ele>
        <time>2024-06-04T21:59:31Z</time>
      </trkpt>
      <trkpt lat="45.04512" lon="5.8463">
        <ele>1068</ele>
        <time>2024-06-04T21:59:38Z</time>
      </trkpt>
      <trkpt lat="45.0455" lon="5.84653">
        <ele>1064</ele>
        <time>2024-06-04T21:59:45Z</time>
      </trkpt>
      <trkpt lat="45.04573" lon="5.84662">
        <ele>1061</ele>
        <time>2024-06-04T21:59:49Z</time>
      </trkpt>
      <trkpt lat="45.04586" lon="5.84663">
        <ele>1057</ele>
        <time>2024-06-04T21:59:51Z</time>
      </trkpt>
      <trkpt lat="45.04596" lon="5.84666">
        <ele>1054</ele>
        <time>2024-06-04T21:59:53Z</time>
      </trkpt>
      <trkpt lat="45.04604" lon="5.84673">
        <ele>1054</ele>
        <time>2024-06-04T21:59:55Z</time>
      </trkpt>
      <trkpt lat="45.04612" lon="5.84692">
        <ele>1057</ele>
        <time>2024-06-04T21:59:58Z</time>
      </trkpt>
      <trkpt lat="45.04618" lon="5.84738">
        <ele>1070</ele>
        <time>2024-06-04T22:00:04Z</time>
      </trkpt>
      <trkpt lat="45.04624" lon="5.84758">
        <ele>1075</ele>
        <time>2024-06-04T22:00:06Z</time>
      </trkpt>
      <trkpt lat="45.04632" lon="5.84774">
        <ele>1077</ele>
        <time>2024-06-04T22:00:09Z</time>
      </trkpt>
      <trkpt lat="45.04661" lon="5.84815">
        <ele>1077</ele>
        <time>2024-06-04T22:00:16Z</time>
      </trkpt>
      <trkpt lat="45.04672" lon="5.84835">
        <ele>1078</ele>
        <time>2024-06-04T22:00:19Z</time>
      </trkpt>
      <trkpt lat="45.04685" lon="5.84875">
        <ele>1080</ele>
        <time>2024-06-04T22:00:25Z</time>
      </trkpt>
      <trkpt lat="45.04698" lon="5.84896">
        <ele>1080</ele>
        <time>2024-06-04T22:00:28Z</time>
      </trkpt>
      <trkpt lat="45.04703" lon="5.84909">
        <ele>1080</ele>
        <time>2024-06-04T22:00:30Z</time>
      </trkpt>
      <trkpt lat="45.04703" lon="5.84916">
        <ele>1081</ele>
        <time>2024-06-04T22:00:31Z</time>
      </trkpt>
      <trkpt lat="45.047" lon="5.84927">
        <ele>1083</ele>
        <time>2024-06-04T22:00:33Z</time>
      </trkpt>
      <trkpt lat="45.04696" lon="5.84932">
        <ele>1085</ele>
        <time>2024-06-04T22:00:34Z</time>
      </trkpt>
      <trkpt lat="45.0469" lon="5.84937">
        <ele>1088</ele>
        <time>2024-06-04T22:00:35Z</time>
      </trkpt>
      <trkpt lat="45.04681" lon="5.84937">
        <ele>1092</ele>
        <time>2024-06-04T22:00:36Z</time>
      </trkpt>
      <trkpt lat="45.04674" lon="5.84931">
        <ele>1093</ele>
        <time>2024-06-04T22:00:38Z</time>
      </trkpt>
      <trkpt lat="45.04664" lon="5.84917">
        <ele>1093</ele>
        <time>2024-06-04T22:00:40Z</time>
      </trkpt>
      <trkpt lat="45.04603" lon="5.84813">
        <ele>1099</ele>
        <time>2024-06-04T22:00:57Z</time>
      </trkpt>
      <trkpt lat="45.04584" lon="5.84793">
        <ele>1099</ele>
        <time>2024-06-04T22:01:02Z</time>
      </trkpt>
      <trkpt lat="45.04468" lon="5.84744">
        <ele>1124</ele>
        <time>2024-06-04T22:01:23Z</time>
      </trkpt>
      <trkpt lat="45.04447" lon="5.84728">
        <ele>1128</ele>
        <time>2024-06-04T22:01:27Z</time>
      </trkpt>
      <trkpt lat="45.04427" lon="5.84697">
        <ele>1126</ele>
        <time>2024-06-04T22:01:33Z</time>
      </trkpt>
      <trkpt lat="45.04411" lon="5.84681">
        <ele>1127</ele>
        <time>2024-06-04T22:01:36Z</time>
      </trkpt>
      <trkpt lat="45.04386" lon="5.84663">
        <ele>1130</ele>
        <time>2024-06-04T22:01:41Z</time>
      </trkpt>
      <trkpt lat="45.04353" lon="5.84633">
        <ele>1131</ele>
        <time>2024-06-04T22:01:48Z</time>
      </trkpt>
      <trkpt lat="45.04279" lon="5.84588">
        <ele>1141</ele>
        <time>2024-06-04T22:02:02Z</time>
      </trkpt>
      <trkpt lat="45.04257" lon="5.84567">
        <ele>1142</ele>
        <time>2024-06-04T22:02:07Z</time>
      </trkpt>
      <trkpt lat="45.04209" lon="5.84532">
        <ele>1147</ele>
        <time>2024-06-04T22:02:17Z</time>
      </trkpt>
      <trkpt lat="45.04137" lon="5.8446">
        <ele>1154</ele>
        <time>2024-06-04T22:02:32Z</time>
      </trkpt>
      <trkpt lat="45.04114" lon="5.8442">
        <ele>1153</ele>
        <time>2024-06-04T22:02:39Z</time>
      </trkpt>
      <trkpt lat="45.04097" lon="5.84395">
        <ele>1151</ele>
        <time>2024-06-04T22:02:43Z</time>
      </trkpt>
      <trkpt lat="45.04093" lon="5.84391">
        <ele>1151</ele>
        <time>2024-06-04T22:02:44Z</time>
      </trkpt>
      <trkpt lat="45.04084" lon="5.84394">
        <ele>1154</ele>
        <time>2024-06-04T22:02:46Z</time>
      </trkpt>
      <trkpt lat="45.04082" lon="5.84399">
        <ele>1156</ele>
        <time>2024-06-04T22:02:46Z</time>
      </trkpt>
      <trkpt lat="45.04084" lon="5.8441">
        <ele>1159</ele>
        <time>2024-06-04T22:02:48Z</time>
      </trkpt>
      <trkpt lat="45.04103" lon="5.84431">
        <ele>1158</ele>
        <time>2024-06-04T22:02:52Z</time>
      </trkpt>
      <trkpt lat="45.04109" lon="5.8444">
        <ele>1159</ele>
        <time>2024-06-04T22:02:54Z</time>
      </trkpt>
      <trkpt lat="45.04113" lon="5.84451">
        <ele>1160</ele>
        <time>2024-06-04T22:02:55Z</time>
      </trkpt>
      <trkpt lat="45.04117" lon="5.84483">
        <ele>1165</ele>
        <time>2024-06-04T22:02:59Z</time>
      </trkpt>
      <trkpt lat="45.04122" lon="5.84501">
        <ele>1167</ele>
        <time>2024-06-04T22:03:02Z</time>
      </trkpt>
      <trkpt lat="45.04132" lon="5.84521">
        <ele>1169</ele>
        <time>2024-06-04T22:03:05Z</time>
      </trkpt>
      <trkpt lat="45.0416" lon="5.84553">
        <ele>1169</ele>
        <time>2024-06-04T22:03:11Z</time>
      </trkpt>
      <trkpt lat="45.04184" lon="5.84598">
        <ele>1177</ele>
        <time>2024-06-04T22:03:18Z</time>
      </trkpt>
      <trkpt lat="45.04211" lon="5.84635">
        <ele>1182</ele>
        <time>2024-06-04T22:03:25Z</time>
      </trkpt>
      <trkpt lat="45.04234" lon="5.84659">
        <ele>1182</ele>
        <time>2024-06-04T22:03:30Z</time>
      </trkpt>
      <trkpt lat="45.0425" lon="5.84668">
        <ele>1179</ele>
        <time>2024-06-04T22:03:33Z</time>
      </trkpt>
      <trkpt lat="45.04264" lon="5.84681">
        <ele>1179</ele>
        <time>2024-06-04T22:03:36Z</time>
      </trkpt>
      <trkpt lat="45.04277" lon="5.84708">
        <ele>1183</ele>
        <time>2024-06-04T22:03:40Z</time>
      </trkpt>
      <trkpt lat="45.04288" lon="5.84725">
        <ele>1185</ele>
        <time>2024-06-04T22:03:43Z</time>
      </trkpt>
      <trkpt lat="45.04313" lon="5.84752">
        <ele>1184</ele>
        <time>2024-06-04T22:03:49Z</time>
      </trkpt>
      <trkpt lat="45.04324" lon="5.84767">
        <ele>1185</ele>
        <time>2024-06-04T22:03:52Z</time>
      </trkpt>
      <trkpt lat="45.0438" lon="5.8488">
        <ele>1204</ele>
        <time>2024-06-04T22:04:09Z</time>
      </trkpt>
      <trkpt lat="45.04402" lon="5.84902">
        <ele>1200</ele>
        <time>2024-06-04T22:04:14Z</time>
      </trkpt>
      <trkpt lat="45.04415" lon="5.84919">
        <ele>1198</ele>
        <time>2024-06-04T22:04:17Z</time>
      </trkpt>
      <trkpt lat="45.04491" lon="5.85043">
        <ele>1217</ele>
        <time>2024-06-04T22:04:37Z</time>
      </trkpt>
      <trkpt lat="45.04555" lon="5.85138">
        <ele>1219</ele>
        <time>2024-06-04T22:04:54Z</time>
      </trkpt>
      <trkpt lat="45.04564" lon="5.8515">
        <ele>1218</ele>
        <time>2024-06-04T22:04:56Z</time>
      </trkpt>
      <trkpt lat="45.0458" lon="5.85167">
        <ele>1215</ele>
        <time>2024-06-04T22:05:00Z</time>
      </trkpt>
      <trkpt lat="45.04582" lon="5.85173">
        <ele>1216</ele>
        <time>2024-06-04T22:05:01Z</time>
      </trkpt>
      <trkpt lat="45.04582" lon="5.85179">
        <ele>1218</ele>
        <time>2024-06-04T22:05:01Z</time>
      </trkpt>
      <trkpt lat="45.04578" lon="5.85184">
        <ele>1222</ele>
        <time>2024-06-04T22:05:02Z</time>
      </trkpt>
      <trkpt lat="45.04574" lon="5.85183">
        <ele>1224</ele>
        <time>2024-06-04T22:05:03Z</time>
      </trkpt>
      <trkpt lat="45.04566" lon="5.85177">
        <ele>1226</ele>
        <time>2024-06-04T22:05:05Z</time>
      </trkpt>
      <trkpt lat="45.04547" lon="5.85144">
        <ele>1225</ele>
        <time>2024-06-04T22:05:10Z</time>
      </trkpt>
      <trkpt lat="45.04512" lon="5.851">
        <ele>1227</ele>
        <time>2024-06-04T22:05:18Z</time>
      </trkpt>
      <trkpt lat="45.04367" lon="5.84949">
        <ele>1238</ele>
        <time>2024-06-04T22:05:50Z</time>
      </trkpt>
      <trkpt lat="45.04348" lon="5.84933">
        <ele>1242</ele>
        <time>2024-06-04T22:05:54Z</time>
      </trkpt>
      <trkpt lat="45.04333" lon="5.84926">
        <ele>1248</ele>
        <time>2024-06-04T22:05:57Z</time>
      </trkpt>
      <trkpt lat="45.04326" lon="5.84917">
        <ele>1248</ele>
        <time>2024-06-04T22:05:59Z</time>
      </trkpt>
      <trkpt lat="45.04316" lon="5.84888">
        <ele>1241</ele>
        <time>2024-06-04T22:06:03Z</time>
      </trkpt>
      <trkpt lat="45.04312" lon="5.84877">
        <ele>1238</ele>
        <time>2024-06-04T22:06:04Z</time>
      </trkpt>
      <trkpt lat="45.04301" lon="5.84868">
        <ele>1239</ele>
        <time>2024-06-04T22:06:07Z</time>
      </trkpt>
      <trkpt lat="45.04265" lon="5.84842">
        <ele>1244</ele>
        <time>2024-06-04T22:06:14Z</time>
      </trkpt>
      <trkpt lat="45.04244" lon="5.84824">
        <ele>1245</ele>
        <time>2024-06-04T22:06:18Z</time>
      </trkpt>
      <trkpt lat="45.04198" lon="5.84817">
        <ele>1260</ele>
        <time>2024-06-04T22:06:26Z</time>
      </trkpt>
      <trkpt lat="45.04191" lon="5.84809">
        <ele>1259</ele>
        <time>2024-06-04T22:06:28Z</time>
      </trkpt>
      <trkpt lat="45.04171" lon="5.84774">
        <ele>1251</ele>
        <time>2024-06-04T22:06:34Z</time>
      </trkpt>
      <trkpt lat="45.04159" lon="5.84764">
        <ele>1251</ele>
        <time>2024-06-04T22:06:36Z</time>
      </trkpt>
      <trkpt lat="45.04116" lon="5.84742">
        <ele>1257</ele>
        <time>2024-06-04T22:06:44Z</time>
      </trkpt>
      <trkpt lat="45.04075" lon="5.84728">
        <ele>1265</ele>
        <time>2024-06-04T22:06:52Z</time>
      </trkpt>
      <trkpt lat="45.04036" lon="5.84704">
        <ele>1266</ele>
        <time>2024-06-04T22:06:59Z</time>
      </trkpt>
      <trkpt lat="45.04006" lon="5.84691">
        <ele>1268</ele>
        <time>2024-06-04T22:07:05Z</time>
      </trkpt>
      <trkpt lat="45.03992" lon="5.84689">
        <ele>1271</ele>
        <time>2024-06-04T22:07:07Z</time>
      </trkpt>
      <trkpt lat="45.03967" lon="5.84691">
        <ele>1280</ele>
        <time>2024-06-04T22:07:12Z</time>
      </trkpt>
      <trkpt lat="45.03951" lon="5.84687">
        <ele>1284</ele>
        <time>2024-06-04T22:07:15Z</time>
      </trkpt>
      <trkpt lat="45.03947" lon="5.84681">
        <ele>1283</ele>
        <time>2024-06-04T22:07:16Z</time>
      </trkpt>
      <trkpt lat="45.03934" lon="5.8464">
        <ele>1274</ele>
        <time>2024-06-04T22:07:21Z</time>
      </trkpt>
      <trkpt lat="45.03918" lon="5.84616">
        <ele>1273</ele>
        <time>2024-06-04T22:07:26Z</time>
      </trkpt>
      <trkpt lat="45.03902" lon="5.84599">
        <ele>1271</ele>
        <time>2024-06-04T22:07:29Z</time>
      </trkpt>
      <trkpt lat="45.03895" lon="5.84595">
        <ele>1272</ele>
        <time>2024-06-04T22:07:31Z</time>
      </trkpt>
      <trkpt lat="45.03877" lon="5.84592">
        <ele>1274</ele>
        <time>2024-06-04T22:07:34Z</time>
      </trkpt>
      <trkpt lat="45.0386" lon="5.84594">
        <ele>1278</ele>
        <time>2024-06-04T22:07:37Z</time>
      </trkpt>
      <trkpt lat="45.03848" lon="5.84591">
        <ele>1279</ele>
        <time>2024-06-04T22:07:39Z</time>
      </trkpt>
      <trkpt lat="45.03822" lon="5.8457">
        <ele>1274</ele>
        <time>2024-06-04T22:07:44Z</time>
      </trkpt>
      <trkpt lat="45.0381" lon="5.84568">
        <ele>1272</ele>
        <time>2024-06-04T22:07:46Z</time>
      </trkpt>
      <trkpt lat="45.03802" lon="5.8457">
        <ele>1273</ele>
        <time>2024-06-04T22:07:48Z</time>
      </trkpt>
      <trkpt lat="45.03741" lon="5.84615">
        <ele>1287</ele>
        <time>2024-06-04T22:08:00Z</time>
      </trkpt>
      <trkpt lat="45.0371" lon="5.84632">
        <ele>1289</ele>
        <time>2024-06-04T22:08:06Z</time>
      </trkpt>
      <trkpt lat="45.03682" lon="5.84657">
        <ele>1295</ele>
        <time>2024-06-04T22:08:12Z</time>
      </trkpt>
      <trkpt lat="45.03663" lon="5.84669">
        <ele>1297</ele>
        <time>2024-06-04T22:08:16Z</time>
      </trkpt>
      <trkpt lat="45.03646" lon="5.84683">
        <ele>1300</ele>
        <time>2024-06-04T22:08:19Z</time>
      </trkpt>
      <trkpt lat="45.03615" lon="5.84717">
        <ele>1307</ele>
        <time>2024-06-04T22:08:26Z</time>
      </trkpt>
      <trkpt lat="45.03592" lon="5.8474">
        <ele>1309</ele>
        <time>2024-06-04T22:08:31Z</time>
      </trkpt>
      <trkpt lat="45.0354" lon="5.84779">
        <ele>1320</ele>
        <time>2024-06-04T22:08:42Z</time>
      </trkpt>
      <trkpt lat="45.03525" lon="5.84779">
        <ele>1320</ele>
        <time>2024-06-04T22:08:44Z</time>
      </trkpt>
      <trkpt lat="45.03458" lon="5.84748">
        <ele>1313</ele>
        <time>2024-06-04T22:08:57Z</time>
      </trkpt>
      <trkpt lat="45.03443" lon="5.84748">
        <ele>1314</ele>
        <time>2024-06-04T22:08:59Z</time>
      </trkpt>
      <trkpt lat="45.03435" lon="5.84751">
        <ele>1315</ele>
        <time>2024-06-04T22:09:01Z</time>
      </trkpt>
      <trkpt lat="45.03423" lon="5.8476">
        <ele>1317</ele>
        <time>2024-06-04T22:09:03Z</time>
      </trkpt>
      <trkpt lat="45.0341" lon="5.84779">
        <ele>1322</ele>
        <time>2024-06-04T22:09:07Z</time>
      </trkpt>
      <trkpt lat="45.03397" lon="5.84806">
        <ele>1327</ele>
        <time>2024-06-04T22:09:11Z</time>
      </trkpt>
      <trkpt lat="45.03393" lon="5.84819">
        <ele>1328</ele>
        <time>2024-06-04T22:09:13Z</time>
      </trkpt>
      <trkpt lat="45.03387" lon="5.84845">
        <ele>1331</ele>
        <time>2024-06-04T22:09:16Z</time>
      </trkpt>
      <trkpt lat="45.03382" lon="5.84893">
        <ele>1335</ele>
        <time>2024-06-04T22:09:22Z</time>
      </trkpt>
      <trkpt lat="45.03378" lon="5.8491">
        <ele>1336</ele>
        <time>2024-06-04T22:09:24Z</time>
      </trkpt>
      <trkpt lat="45.03368" lon="5.84933">
        <ele>1337</ele>
        <time>2024-06-04T22:09:28Z</time>
      </trkpt>
      <trkpt lat="45.03287" lon="5.85001">
        <ele>1342</ele>
        <time>2024-06-04T22:09:45Z</time>
      </trkpt>
      <trkpt lat="45.0327" lon="5.85018">
        <ele>1344</ele>
        <time>2024-06-04T22:09:48Z</time>
      </trkpt>
      <trkpt lat="45.0323" lon="5.8508">
        <ele>1347</ele>
        <time>2024-06-04T22:09:59Z</time>
      </trkpt>
      <trkpt lat="45.03215" lon="5.85097">
        <ele>1348</ele>
        <time>2024-06-04T22:10:02Z</time>
      </trkpt>
      <trkpt lat="45.03188" lon="5.85123">
        <ele>1347</ele>
        <time>2024-06-04T22:10:08Z</time>
      </trkpt>
      <trkpt lat="45.0318" lon="5.8514">
        <ele>1347</ele>
        <time>2024-06-04T22:10:11Z</time>
      </trkpt>
      <trkpt lat="45.03173" lon="5.85164">
        <ele>1345</ele>
        <time>2024-06-04T22:10:14Z</time>
      </trkpt>
      <trkpt lat="45.03167" lon="5.85227">
        <ele>1348</ele>
        <time>2024-06-04T22:10:22Z</time>
      </trkpt>
      <trkpt lat="45.03159" lon="5.85252">
        <ele>1350</ele>
        <time>2024-06-04T22:10:25Z</time>
      </trkpt>
      <trkpt lat="45.03108" lon="5.85376">
        <ele>1358</ele>
        <time>2024-06-04T22:10:43Z</time>
      </trkpt>
      <trkpt lat="45.03093" lon="5.85406">
        <ele>1358</ele>
        <time>2024-06-04T22:10:48Z</time>
      </trkpt>
      <trkpt lat="45.03074" lon="5.85429">
        <ele>1357</ele>
        <time>2024-06-04T22:10:52Z</time>
      </trkpt>
      <trkpt lat="45.03034" lon="5.85469">
        <ele>1356</ele>
        <time>2024-06-04T22:11:01Z</time>
      </trkpt>
      <trkpt lat="45.03019" lon="5.85489">
        <ele>1355</ele>
        <time>2024-06-04T22:11:05Z</time>
      </trkpt>
      <trkpt lat="45.03011" lon="5.85504">
        <ele>1354</ele>
        <time>2024-06-04T22:11:07Z</time>
      </trkpt>
      <trkpt lat="45.0299" lon="5.85564">
        <ele>1356</ele>
        <time>2024-06-04T22:11:16Z</time>
      </trkpt>
      <trkpt lat="45.02985" lon="5.85573">
        <ele>1356</ele>
        <time>2024-06-04T22:11:17Z</time>
      </trkpt>
      <trkpt lat="45.0298" lon="5.85579">
        <ele>1357</ele>
        <time>2024-06-04T22:11:18Z</time>
      </trkpt>
      <trkpt lat="45.02917" lon="5.8562">
        <ele>1355</ele>
        <time>2024-06-04T22:11:30Z</time>
      </trkpt>
      <trkpt lat="45.02877" lon="5.85655">
        <ele>1357</ele>
        <time>2024-06-04T22:11:39Z</time>
      </trkpt>
      <trkpt lat="45.0287" lon="5.85664">
        <ele>1357</ele>
        <time>2024-06-04T22:11:41Z</time>
      </trkpt>
      <trkpt lat="45.02863" lon="5.85677">
        <ele>1358</ele>
        <time>2024-06-04T22:11:43Z</time>
      </trkpt>
      <trkpt lat="45.02851" lon="5.85709">
        <ele>1358</ele>
        <time>2024-06-04T22:11:47Z</time>
      </trkpt>
      <trkpt lat="45.02814" lon="5.85765">
        <ele>1359</ele>
        <time>2024-06-04T22:11:57Z</time>
      </trkpt>
      <trkpt lat="45.02801" lon="5.85781">
        <ele>1360</ele>
        <time>2024-06-04T22:12:00Z</time>
      </trkpt>
      <trkpt lat="45.02767" lon="5.85802">
        <ele>1359</ele>
        <time>2024-06-04T22:12:06Z</time>
      </trkpt>
      <trkpt lat="45.02749" lon="5.85806">
        <ele>1359</ele>
        <time>2024-06-04T22:12:10Z</time>
      </trkpt>
      <trkpt lat="45.02743" lon="5.85806">
        <ele>1359</ele>
        <time>2024-06-04T22:12:11Z</time>
      </trkpt>
      <trkpt lat="45.02723" lon="5.85805">
        <ele>1361</ele>
        <time>2024-06-04T22:12:14Z</time>
      </trkpt>
      <trkpt lat="45.02713" lon="5.85807">
        <ele>1361</ele>
        <time>2024-06-04T22:12:16Z</time>
      </trkpt>
      <trkpt lat="45.02695" lon="5.85815">
        <ele>1363</ele>
        <time>2024-06-04T22:12:19Z</time>
      </trkpt>
      <trkpt lat="45.02662" lon="5.85847">
        <ele>1365</ele>
        <time>2024-06-04T22:12:27Z</time>
      </trkpt>
      <trkpt lat="45.02644" lon="5.85866">
        <ele>1365</ele>
        <time>2024-06-04T22:12:31Z</time>
      </trkpt>
      <trkpt lat="45.0255" lon="5.85974">
        <ele>1368</ele>
        <time>2024-06-04T22:12:52Z</time>
      </trkpt>
      <trkpt lat="45.02531" lon="5.86">
        <ele>1368</ele>
        <time>2024-06-04T22:12:57Z</time>
      </trkpt>
      <trkpt lat="45.0252" lon="5.8602">
        <ele>1368</ele>
        <time>2024-06-04T22:13:00Z</time>
      </trkpt>
      <trkpt lat="45.02481" lon="5.86108">
        <ele>1371</ele>
        <time>2024-06-04T22:13:13Z</time>
      </trkpt>
      <trkpt lat="45.02453" lon="5.86144">
        <ele>1373</ele>
        <time>2024-06-04T22:13:20Z</time>
      </trkpt>
      <trkpt lat="45.02425" lon="5.86185">
        <ele>1374</ele>
        <time>2024-06-04T22:13:27Z</time>
      </trkpt>
      <trkpt lat="45.02318" lon="5.86355">
        <ele>1373</ele>
        <time>2024-06-04T22:13:56Z</time>
      </trkpt>
      <trkpt lat="45.02298" lon="5.86381">
        <ele>1373</ele>
        <time>2024-06-04T22:14:00Z</time>
      </trkpt>
      <trkpt lat="45.02295" lon="5.86391">
        <ele>1373</ele>
        <time>2024-06-04T22:14:02Z</time>
      </trkpt>
      <trkpt lat="45.02247" lon="5.86424">
        <ele>1371</ele>
        <time>2024-06-04T22:14:11Z</time>
      </trkpt>
      <trkpt lat="45.02151" lon="5.86481">
        <ele>1366</ele>
        <time>2024-06-04T22:14:30Z</time>
      </trkpt>
      <trkpt lat="45.02137" lon="5.86492">
        <ele>1365</ele>
        <time>2024-06-04T22:14:33Z</time>
      </trkpt>
      <trkpt lat="45.02113" lon="5.8652">
        <ele>1363</ele>
        <time>2024-06-04T22:14:38Z</time>
      </trkpt>
      <trkpt lat="45.02096" lon="5.86544">
        <ele>1361</ele>
        <time>2024-06-04T22:14:43Z</time>
      </trkpt>
      <trkpt lat="45.02015" lon="5.8667">
        <ele>1348</ele>
        <time>2024-06-04T22:15:04Z</time>
      </trkpt>
      <trkpt lat="45.01997" lon="5.86713">
        <ele>1344</ele>
        <time>2024-06-04T22:15:10Z</time>
      </trkpt>
      <trkpt lat="45.01988" lon="5.8677">
        <ele>1343</ele>
        <time>2024-06-04T22:15:18Z</time>
      </trkpt>
      <trkpt lat="45.01954" lon="5.86885">
        <ele>1336</ele>
        <time>2024-06-04T22:15:33Z</time>
      </trkpt>
      <trkpt lat="45.01949" lon="5.8692">
        <ele>1335</ele>
        <time>2024-06-04T22:15:38Z</time>
      </trkpt>
      <trkpt lat="45.01946" lon="5.86947">
        <ele>1336</ele>
        <time>2024-06-04T22:15:41Z</time>
      </trkpt>
      <trkpt lat="45.0194" lon="5.86969">
        <ele>1336</ele>
        <time>2024-06-04T22:15:44Z</time>
      </trkpt>
      <trkpt lat="45.01909" lon="5.87052">
        <ele>1331</ele>
        <time>2024-06-04T22:15:56Z</time>
      </trkpt>
      <trkpt lat="45.01901" lon="5.87066">
        <ele>1330</ele>
        <time>2024-06-04T22:15:58Z</time>
      </trkpt>
      <trkpt lat="45.01892" lon="5.87075">
        <ele>1329</ele>
        <time>2024-06-04T22:16:00Z</time>
      </trkpt>
      <trkpt lat="45.01882" lon="5.87082">
        <ele>1327</ele>
        <time>2024-06-04T22:16:02Z</time>
      </trkpt>
      <trkpt lat="45.01866" lon="5.87083">
        <ele>1324</ele>
        <time>2024-06-04T22:16:05Z</time>
      </trkpt>
      <trkpt lat="45.0178" lon="5.87083">
        <ele>1311</ele>
        <time>2024-06-04T22:16:20Z</time>
      </trkpt>
      <trkpt lat="45.01768" lon="5.87086">
        <ele>1309</ele>
        <time>2024-06-04T22:16:22Z</time>
      </trkpt>
      <trkpt lat="45.01753" lon="5.87093">
        <ele>1307</ele>
        <time>2024-06-04T22:16:25Z</time>
      </trkpt>
      <trkpt lat="45.01739" lon="5.87105">
        <ele>1308</ele>
        <time>2024-06-04T22:16:28Z</time>
      </trkpt>
      <trkpt lat="45.01659" lon="5.87209">
        <ele>1298</ele>
        <time>2024-06-04T22:16:48Z</time>
      </trkpt>
      <trkpt lat="45.01648" lon="5.8722">
        <ele>1297</ele>
        <time>2024-06-04T22:16:50Z</time>
      </trkpt>
      <trkpt lat="45.01621" lon="5.87236">
        <ele>1295</ele>
        <time>2024-06-04T22:16:55Z</time>
      </trkpt>
      <trkpt lat="45.01555" lon="5.87244">
        <ele>1294</ele>
        <time>2024-06-04T22:17:07Z</time>
      </trkpt>
      <trkpt lat="45.01467" lon="5.87286">
        <ele>1283</ele>
        <time>2024-06-04T22:17:23Z</time>
      </trkpt>
      <trkpt lat="45.01449" lon="5.87291">
        <ele>1281</ele>
        <time>2024-06-04T22:17:27Z</time>
      </trkpt>
      <trkpt lat="45.01425" lon="5.87292">
        <ele>1280</ele>
        <time>2024-06-04T22:17:31Z</time>
      </trkpt>
      <trkpt lat="45.01402" lon="5.87297">
        <ele>1279</ele>
        <time>2024-06-04T22:17:35Z</time>
      </trkpt>
      <trkpt lat="45.0133" lon="5.87316">
        <ele>1276</ele>
        <time>2024-06-04T22:17:48Z</time>
      </trkpt>
      <trkpt lat="45.01326" lon="5.87319">
        <ele>1275</ele>
        <time>2024-06-04T22:17:49Z</time>
      </trkpt>
      <trkpt lat="45.01323" lon="5.87324">
        <ele>1273</ele>
        <time>2024-06-04T22:17:50Z</time>
      </trkpt>
      <trkpt lat="45.01323" lon="5.87332">
        <ele>1270</ele>
        <time>2024-06-04T22:17:51Z</time>
      </trkpt>
      <trkpt lat="45.01327" lon="5.87339">
        <ele>1267</ele>
        <time>2024-06-04T22:17:52Z</time>
      </trkpt>
      <trkpt lat="45.01335" lon="5.87341">
        <ele>1266</ele>
        <time>2024-06-04T22:17:53Z</time>
      </trkpt>
      <trkpt lat="45.01361" lon="5.87335">
        <ele>1266</ele>
        <time>2024-06-04T22:17:58Z</time>
      </trkpt>
      <trkpt lat="45.01376" lon="5.8734">
        <ele>1264</ele>
        <time>2024-06-04T22:18:01Z</time>
      </trkpt>
      <trkpt lat="45.01395" lon="5.87357">
        <ele>1259</ele>
        <time>2024-06-04T22:18:05Z</time>
      </trkpt>
      <trkpt lat="45.01424" lon="5.87394">
        <ele>1251</ele>
        <time>2024-06-04T22:18:12Z</time>
      </trkpt>
      <trkpt lat="45.01462" lon="5.87436">
        <ele>1247</ele>
        <time>2024-06-04T22:18:20Z</time>
      </trkpt>
      <trkpt lat="45.01463" lon="5.87444">
        <ele>1246</ele>
        <time>2024-06-04T22:18:21Z</time>
      </trkpt>
      <trkpt lat="45.0146" lon="5.87454">
        <ele>1245</ele>
        <time>2024-06-04T22:18:23Z</time>
      </trkpt>
      <trkpt lat="45.01455" lon="5.87458">
        <ele>1244</ele>
        <time>2024-06-04T22:18:24Z</time>
      </trkpt>
      <trkpt lat="45.01447" lon="5.87458">
        <ele>1243</ele>
        <time>2024-06-04T22:18:25Z</time>
      </trkpt>
      <trkpt lat="45.01412" lon="5.87451">
        <ele>1240</ele>
        <time>2024-06-04T22:18:31Z</time>
      </trkpt>
      <trkpt lat="45.01385" lon="5.8745">
        <ele>1239</ele>
        <time>2024-06-04T22:18:36Z</time>
      </trkpt>
      <trkpt lat="45.01367" lon="5.87457">
        <ele>1237</ele>
        <time>2024-06-04T22:18:40Z</time>
      </trkpt>
      <trkpt lat="45.01319" lon="5.87486">
        <ele>1231</ele>
        <time>2024-06-04T22:18:49Z</time>
      </trkpt>
      <trkpt lat="45.01276" lon="5.87495">
        <ele>1229</ele>
        <time>2024-06-04T22:18:57Z</time>
      </trkpt>
      <trkpt lat="45.01192" lon="5.8753">
        <ele>1219</ele>
        <time>2024-06-04T22:19:12Z</time>
      </trkpt>
      <trkpt lat="45.01168" lon="5.87537">
        <ele>1217</ele>
        <time>2024-06-04T22:19:17Z</time>
      </trkpt>
      <trkpt lat="45.01149" lon="5.87536">
        <ele>1213</ele>
        <time>2024-06-04T22:19:20Z</time>
      </trkpt>
      <trkpt lat="45.01138" lon="5.87533">
        <ele>1212</ele>
        <time>2024-06-04T22:19:22Z</time>
      </trkpt>
      <trkpt lat="45.00979" lon="5.8745">
        <ele>1201</ele>
        <time>2024-06-04T22:19:52Z</time>
      </trkpt>
      <trkpt lat="45.00937" lon="5.87424">
        <ele>1197</ele>
        <time>2024-06-04T22:20:00Z</time>
      </trkpt>
      <trkpt lat="45.00919" lon="5.87406">
        <ele>1199</ele>
        <time>2024-06-04T22:20:04Z</time>
      </trkpt>
      <trkpt lat="45.00911" lon="5.87404">
        <ele>1198</ele>
        <time>2024-06-04T22:20:06Z</time>
      </trkpt>
      <trkpt lat="45.00906" lon="5.87411">
        <ele>1194</ele>
        <time>2024-06-04T22:20:07Z</time>
      </trkpt>
      <trkpt lat="45.00906" lon="5.87417">
        <ele>1192</ele>
        <time>2024-06-04T22:20:08Z</time>
      </trkpt>
      <trkpt lat="45.00911" lon="5.87426">
        <ele>1190</ele>
        <time>2024-06-04T22:20:09Z</time>
      </trkpt>
      <trkpt lat="45.00932" lon="5.87446">
        <ele>1189</ele>
        <time>2024-06-04T22:20:14Z</time>
      </trkpt>
      <trkpt lat="45.00943" lon="5.8746">
        <ele>1188</ele>
        <time>2024-06-04T22:20:16Z</time>
      </trkpt>
      <trkpt lat="45.00953" lon="5.87477">
        <ele>1186</ele>
        <time>2024-06-04T22:20:19Z</time>
      </trkpt>
      <trkpt lat="45.00965" lon="5.87503">
        <ele>1181</ele>
        <time>2024-06-04T22:20:23Z</time>
      </trkpt>
      <trkpt lat="45.01003" lon="5.87597">
        <ele>1170</ele>
        <time>2024-06-04T22:20:36Z</time>
      </trkpt>
      <trkpt lat="45.01007" lon="5.87616">
        <ele>1168</ele>
        <time>2024-06-04T22:20:39Z</time>
      </trkpt>
      <trkpt lat="45.01009" lon="5.8764">
        <ele>1165</ele>
        <time>2024-06-04T22:20:42Z</time>
      </trkpt>
      <trkpt lat="45.01004" lon="5.87696">
        <ele>1156</ele>
        <time>2024-06-04T22:20:49Z</time>
      </trkpt>
      <trkpt lat="45.01004" lon="5.87715">
        <ele>1154</ele>
        <time>2024-06-04T22:20:52Z</time>
      </trkpt>
      <trkpt lat="45.01009" lon="5.87744">
        <ele>1151</ele>
        <time>2024-06-04T22:20:55Z</time>
      </trkpt>
      <trkpt lat="45.01015" lon="5.87762">
        <ele>1150</ele>
        <time>2024-06-04T22:20:58Z</time>
      </trkpt>
      <trkpt lat="45.01017" lon="5.87775">
        <ele>1149</ele>
        <time>2024-06-04T22:20:59Z</time>
      </trkpt>
      <trkpt lat="45.01014" lon="5.87779">
        <ele>1148</ele>
        <time>2024-06-04T22:21:00Z</time>
      </trkpt>
      <trkpt lat="45.01007" lon="5.87782">
        <ele>1147</ele>
        <time>2024-06-04T22:21:01Z</time>
      </trkpt>
      <trkpt lat="45.01001" lon="5.87778">
        <ele>1146</ele>
        <time>2024-06-04T22:21:03Z</time>
      </trkpt>
      <trkpt lat="45.00992" lon="5.87773">
        <ele>1145</ele>
        <time>2024-06-04T22:21:04Z</time>
      </trkpt>
      <trkpt lat="45.00956" lon="5.87739">
        <ele>1141</ele>
        <time>2024-06-04T22:21:12Z</time>
      </trkpt>
      <trkpt lat="45.00911" lon="5.87689">
        <ele>1139</ele>
        <time>2024-06-04T22:21:22Z</time>
      </trkpt>
      <trkpt lat="45.00841" lon="5.87595">
        <ele>1133</ele>
        <time>2024-06-04T22:21:39Z</time>
      </trkpt>
      <trkpt lat="45.0083" lon="5.87586">
        <ele>1131</ele>
        <time>2024-06-04T22:21:42Z</time>
      </trkpt>
      <trkpt lat="45.00779" lon="5.87552">
        <ele>1129</ele>
        <time>2024-06-04T22:21:52Z</time>
      </trkpt>
      <trkpt lat="45.0076" lon="5.87544">
        <ele>1128</ele>
        <time>2024-06-04T22:21:55Z</time>
      </trkpt>
      <trkpt lat="45.00733" lon="5.87537">
        <ele>1124</ele>
        <time>2024-06-04T22:22:00Z</time>
      </trkpt>
      <trkpt lat="45.00726" lon="5.87547">
        <ele>1122</ele>
        <time>2024-06-04T22:22:02Z</time>
      </trkpt>
      <trkpt lat="45.00718" lon="5.87552">
        <ele>1120</ele>
        <time>2024-06-04T22:22:03Z</time>
      </trkpt>
      <trkpt lat="45.00701" lon="5.87555">
        <ele>1116</ele>
        <time>2024-06-04T22:22:07Z</time>
      </trkpt>
      <trkpt lat="45.00694" lon="5.87567">
        <ele>1113</ele>
        <time>2024-06-04T22:22:08Z</time>
      </trkpt>
      <trkpt lat="45.00691" lon="5.87569">
        <ele>1112</ele>
        <time>2024-06-04T22:22:09Z</time>
      </trkpt>
      <trkpt lat="45.00663" lon="5.8756">
        <ele>1109</ele>
        <time>2024-06-04T22:22:14Z</time>
      </trkpt>
      <trkpt lat="45.00659" lon="5.87563">
        <ele>1108</ele>
        <time>2024-06-04T22:22:15Z</time>
      </trkpt>
      <trkpt lat="45.00667" lon="5.87581">
        <ele>1106</ele>
        <time>2024-06-04T22:22:18Z</time>
      </trkpt>
      <trkpt lat="45.00696" lon="5.87628">
        <ele>1106</ele>
        <time>2024-06-04T22:22:25Z</time>
      </trkpt>
      <trkpt lat="45.00699" lon="5.87643">
        <ele>1105</ele>
        <time>2024-06-04T22:22:27Z</time>
      </trkpt>
      <trkpt lat="45.00697" lon="5.87657">
        <ele>1104</ele>
        <time>2024-06-04T22:22:29Z</time>
      </trkpt>
      <trkpt lat="45.00692" lon="5.8767">
        <ele>1102</ele>
        <time>2024-06-04T22:22:31Z</time>
      </trkpt>
      <trkpt lat="45.00682" lon="5.87684">
        <ele>1101</ele>
        <time>2024-06-04T22:22:34Z</time>
      </trkpt>
      <trkpt lat="45.00393" lon="5.87994">
        <ele>1092</ele>
        <time>2024-06-04T22:23:38Z</time>
      </trkpt>
      <trkpt lat="45.00383" lon="5.88003">
        <ele>1092</ele>
        <time>2024-06-04T22:23:40Z</time>
      </trkpt>
      <trkpt lat="45.00363" lon="5.88017">
        <ele>1092</ele>
        <time>2024-06-04T22:23:44Z</time>
      </trkpt>
      <trkpt lat="45.00287" lon="5.88051">
        <ele>1094</ele>
        <time>2024-06-04T22:23:58Z</time>
      </trkpt>
      <trkpt lat="45.00247" lon="5.8807">
        <ele>1097</ele>
        <time>2024-06-04T22:24:06Z</time>
      </trkpt>
      <trkpt lat="45.00228" lon="5.88072">
        <ele>1098</ele>
        <time>2024-06-04T22:24:09Z</time>
      </trkpt>
      <trkpt lat="45.0021" lon="5.88071">
        <ele>1098</ele>
        <time>2024-06-04T22:24:13Z</time>
      </trkpt>
      <trkpt lat="45.00164" lon="5.88057">
        <ele>1097</ele>
        <time>2024-06-04T22:24:21Z</time>
      </trkpt>
      <trkpt lat="44.99987" lon="5.88037">
        <ele>1089</ele>
        <time>2024-06-04T22:24:52Z</time>
      </trkpt>
      <trkpt lat="44.99966" lon="5.88037">
        <ele>1089</ele>
        <time>2024-06-04T22:24:56Z</time>
      </trkpt>
      <trkpt lat="44.99664" lon="5.8807">
        <ele>1079</ele>
        <time>2024-06-04T22:25:50Z</time>
      </trkpt>
      <trkpt lat="44.99639" lon="5.88083">
        <ele>1078</ele>
        <time>2024-06-04T22:25:55Z</time>
      </trkpt>
      <trkpt lat="44.996" lon="5.88117">
        <ele>1078</ele>
        <time>2024-06-04T22:26:03Z</time>
      </trkpt>
      <trkpt lat="44.99565" lon="5.88146">
        <ele>1076</ele>
        <time>2024-06-04T22:26:10Z</time>
      </trkpt>
      <trkpt lat="44.99355" lon="5.88303">
        <ele>1067</ele>
        <time>2024-06-04T22:26:52Z</time>
      </trkpt>
      <trkpt lat="44.99344" lon="5.8831">
        <ele>1067</ele>
        <time>2024-06-04T22:26:55Z</time>
      </trkpt>
      <trkpt lat="44.9933" lon="5.88315">
        <ele>1067</ele>
        <time>2024-06-04T22:26:57Z</time>
      </trkpt>
      <trkpt lat="44.99304" lon="5.88318">
        <ele>1067</ele>
        <time>2024-06-04T22:27:02Z</time>
      </trkpt>
      <trkpt lat="44.9924" lon="5.88295">
        <ele>1067</ele>
        <time>2024-06-04T22:27:14Z</time>
      </trkpt>
      <trkpt lat="44.99224" lon="5.88292">
        <ele>1067</ele>
        <time>2024-06-04T22:27:16Z</time>
      </trkpt>
      <trkpt lat="44.99203" lon="5.88295">
        <ele>1068</ele>
        <time>2024-06-04T22:27:20Z</time>
      </trkpt>
      <trkpt lat="44.99095" lon="5.88334">
        <ele>1071</ele>
        <time>2024-06-04T22:27:40Z</time>
      </trkpt>
      <trkpt lat="44.9907" lon="5.8834">
        <ele>1070</ele>
        <time>2024-06-04T22:27:45Z</time>
      </trkpt>
      <trkpt lat="44.98982" lon="5.88352">
        <ele>1063</ele>
        <time>2024-06-04T22:28:00Z</time>
      </trkpt>
      <trkpt lat="44.98968" lon="5.88358">
        <ele>1062</ele>
        <time>2024-06-04T22:28:03Z</time>
      </trkpt>
      <trkpt lat="44.98952" lon="5.88368">
        <ele>1062</ele>
        <time>2024-06-04T22:28:06Z</time>
      </trkpt>
      <trkpt lat="44.98934" lon="5.88384">
        <ele>1061</ele>
        <time>2024-06-04T22:28:10Z</time>
      </trkpt>
      <trkpt lat="44.98854" lon="5.88471">
        <ele>1058</ele>
        <time>2024-06-04T22:28:28Z</time>
      </trkpt>
      <trkpt lat="44.98806" lon="5.88506">
        <ele>1056</ele>
        <time>2024-06-04T22:28:37Z</time>
      </trkpt>
      <trkpt lat="44.98774" lon="5.88519">
        <ele>1057</ele>
        <time>2024-06-04T22:28:43Z</time>
      </trkpt>
      <trkpt lat="44.98702" lon="5.88529">
        <ele>1057</ele>
        <time>2024-06-04T22:28:56Z</time>
      </trkpt>
      <trkpt lat="44.98678" lon="5.88535">
        <ele>1058</ele>
        <time>2024-06-04T22:29:00Z</time>
      </trkpt>
      <trkpt lat="44.98652" lon="5.88544">
        <ele>1059</ele>
        <time>2024-06-04T22:29:05Z</time>
      </trkpt>
      <trkpt lat="44.98403" lon="5.88658">
        <ele>1065</ele>
        <time>2024-06-04T22:29:52Z</time>
      </trkpt>
      <trkpt lat="44.98343" lon="5.88682">
        <ele>1070</ele>
        <time>2024-06-04T22:30:03Z</time>
      </trkpt>
      <trkpt lat="44.98333" lon="5.88688">
        <ele>1071</ele>
        <time>2024-06-04T22:30:05Z</time>
      </trkpt>
      <trkpt lat="44.98328" lon="5.88695">
        <ele>1072</ele>
        <time>2024-06-04T22:30:06Z</time>
      </trkpt>
      <trkpt lat="44.98317" lon="5.88719">
        <ele>1074</ele>
        <time>2024-06-04T22:30:10Z</time>
      </trkpt>
      <trkpt lat="44.98298" lon="5.88732">
        <ele>1075</ele>
        <time>2024-06-04T22:30:13Z</time>
      </trkpt>
      <trkpt lat="44.98276" lon="5.88732">
        <ele>1075</ele>
        <time>2024-06-04T22:30:17Z</time>
      </trkpt>
      <trkpt lat="44.98264" lon="5.88729">
        <ele>1075</ele>
        <time>2024-06-04T22:30:20Z</time>
      </trkpt>
      <trkpt lat="44.98252" lon="5.88722">
        <ele>1075</ele>
        <time>2024-06-04T22:30:22Z</time>
      </trkpt>
      <trkpt lat="44.98237" lon="5.88709">
        <ele>1074</ele>
        <time>2024-06-04T22:30:25Z</time>
      </trkpt>
      <trkpt lat="44.98208" lon="5.88677">
        <ele>1070</ele>
        <time>2024-06-04T22:30:32Z</time>
      </trkpt>
      <trkpt lat="44.98187" lon="5.88665">
        <ele>1068</ele>
        <time>2024-06-04T22:30:36Z</time>
      </trkpt>
      <trkpt lat="44.98137" lon="5.88648">
        <ele>1065</ele>
        <time>2024-06-04T22:30:45Z</time>
      </trkpt>
      <trkpt lat="44.97925" lon="5.88573">
        <ele>1054</ele>
        <time>2024-06-04T22:31:24Z</time>
      </trkpt>
      <trkpt lat="44.9791" lon="5.88565">
        <ele>1054</ele>
        <time>2024-06-04T22:31:26Z</time>
      </trkpt>
      <trkpt lat="44.97861" lon="5.88531">
        <ele>1051</ele>
        <time>2024-06-04T22:31:36Z</time>
      </trkpt>
      <trkpt lat="44.97789" lon="5.88473">
        <ele>1048</ele>
        <time>2024-06-04T22:31:51Z</time>
      </trkpt>
      <trkpt lat="44.97758" lon="5.88438">
        <ele>1043</ele>
        <time>2024-06-04T22:31:58Z</time>
      </trkpt>
      <trkpt lat="44.97721" lon="5.8838">
        <ele>1039</ele>
        <time>2024-06-04T22:32:08Z</time>
      </trkpt>
      <trkpt lat="44.97705" lon="5.88361">
        <ele>1037</ele>
        <time>2024-06-04T22:32:12Z</time>
      </trkpt>
      <trkpt lat="44.97687" lon="5.88342">
        <ele>1035</ele>
        <time>2024-06-04T22:32:16Z</time>
      </trkpt>
      <trkpt lat="44.97644" lon="5.88306">
        <ele>1034</ele>
        <time>2024-06-04T22:32:24Z</time>
      </trkpt>
      <trkpt lat="44.97589" lon="5.8827">
        <ele>1031</ele>
        <time>2024-06-04T22:32:35Z</time>
      </trkpt>
      <trkpt lat="44.97396" lon="5.88157">
        <ele>1023</ele>
        <time>2024-06-04T22:33:12Z</time>
      </trkpt>
      <trkpt lat="44.97374" lon="5.88146">
        <ele>1022</ele>
        <time>2024-06-04T22:33:17Z</time>
      </trkpt>
      <trkpt lat="44.97356" lon="5.88138">
        <ele>1022</ele>
        <time>2024-06-04T22:33:20Z</time>
      </trkpt>
      <trkpt lat="44.97305" lon="5.88122">
        <ele>1022</ele>
        <time>2024-06-04T22:33:29Z</time>
      </trkpt>
      <trkpt lat="44.97275" lon="5.88106">
        <ele>1022</ele>
        <time>2024-06-04T22:33:35Z</time>
      </trkpt>
      <trkpt lat="44.97257" lon="5.88096">
        <ele>1022</ele>
        <time>2024-06-04T22:33:38Z</time>
      </trkpt>
      <trkpt lat="44.96983" lon="5.87843">
        <ele>1011</ele>
        <time>2024-06-04T22:34:37Z</time>
      </trkpt>
      <trkpt lat="44.96844" lon="5.87745">
        <ele>1011</ele>
        <time>2024-06-04T22:35:04Z</time>
      </trkpt>
      <trkpt lat="44.96824" lon="5.87736">
        <ele>1011</ele>
        <time>2024-06-04T22:35:08Z</time>
      </trkpt>
      <trkpt lat="44.96686" lon="5.87698">
        <ele>1010</ele>
        <time>2024-06-04T22:35:33Z</time>
      </trkpt>
      <trkpt lat="44.96649" lon="5.87679">
        <ele>1009</ele>
        <time>2024-06-04T22:35:40Z</time>
      </trkpt>
      <trkpt lat="44.96638" lon="5.87671">
        <ele>1009</ele>
        <time>2024-06-04T22:35:42Z</time>
      </trkpt>
      <trkpt lat="44.96553" lon="5.87611">
        <ele>1007</ele>
        <time>2024-06-04T22:35:59Z</time>
      </trkpt>
      <trkpt lat="44.96529" lon="5.87586">
        <ele>1005</ele>
        <time>2024-06-04T22:36:04Z</time>
      </trkpt>
      <trkpt lat="44.96416" lon="5.87448">
        <ele>1004</ele>
        <time>2024-06-04T22:36:31Z</time>
      </trkpt>
      <trkpt lat="44.96396" lon="5.87429">
        <ele>1002</ele>
        <time>2024-06-04T22:36:35Z</time>
      </trkpt>
      <trkpt lat="44.96366" lon="5.87405">
        <ele>1000</ele>
        <time>2024-06-04T22:36:41Z</time>
      </trkpt>
      <trkpt lat="44.96337" lon="5.87385">
        <ele>1000</ele>
        <time>2024-06-04T22:36:47Z</time>
      </trkpt>
      <trkpt lat="44.96278" lon="5.87356">
        <ele>996</ele>
        <time>2024-06-04T22:36:58Z</time>
      </trkpt>
      <trkpt lat="44.96259" lon="5.87343">
        <ele>994</ele>
        <time>2024-06-04T22:37:02Z</time>
      </trkpt>
      <trkpt lat="44.96231" lon="5.87319">
        <ele>993</ele>
        <time>2024-06-04T22:37:08Z</time>
      </trkpt>
      <trkpt lat="44.96187" lon="5.87288">
        <ele>992</ele>
        <time>2024-06-04T22:37:17Z</time>
      </trkpt>
      <trkpt lat="44.96167" lon="5.87276">
        <ele>991</ele>
        <time>2024-06-04T22:37:20Z</time>
      </trkpt>
      <trkpt lat="44.96152" lon="5.87271">
        <ele>991</ele>
        <time>2024-06-04T22:37:23Z</time>
      </trkpt>
      <trkpt lat="44.96138" lon="5.87272">
        <ele>991</ele>
        <time>2024-06-04T22:37:26Z</time>
      </trkpt>
      <trkpt lat="44.96065" lon="5.873">
        <ele>986</ele>
        <time>2024-06-04T22:37:39Z</time>
      </trkpt>
      <trkpt lat="44.96045" lon="5.87304">
        <ele>985</ele>
        <time>2024-06-04T22:37:43Z</time>
      </trkpt>
      <trkpt lat="44.9602" lon="5.87305">
        <ele>985</ele>
        <time>2024-06-04T22:37:47Z</time>
      </trkpt>
      <trkpt lat="44.95973" lon="5.87302">
        <ele>984</ele>
        <time>2024-06-04T22:37:55Z</time>
      </trkpt>
      <trkpt lat="44.9594" lon="5.87296">
        <ele>984</ele>
        <time>2024-06-04T22:38:01Z</time>
      </trkpt>
      <trkpt lat="44.9591" lon="5.87287">
        <ele>983</ele>
        <time>2024-06-04T22:38:07Z</time>
      </trkpt>
      <trkpt lat="44.95896" lon="5.87278">
        <ele>983</ele>
        <time>2024-06-04T22:38:10Z</time>
      </trkpt>
      <trkpt lat="44.95883" lon="5.87267">
        <ele>982</ele>
        <time>2024-06-04T22:38:12Z</time>
      </trkpt>
      <trkpt lat="44.95867" lon="5.87246">
        <ele>981</ele>
        <time>2024-06-04T22:38:16Z</time>
      </trkpt>
      <trkpt lat="44.95839" lon="5.87216">
        <ele>981</ele>
        <time>2024-06-04T22:38:22Z</time>
      </trkpt>
      <trkpt lat="44.95824" lon="5.87204">
        <ele>981</ele>
        <time>2024-06-04T22:38:26Z</time>
      </trkpt>
      <trkpt lat="44.95799" lon="5.8719">
        <ele>981</ele>
        <time>2024-06-04T22:38:30Z</time>
      </trkpt>
      <trkpt lat="44.95786" lon="5.87178">
        <ele>980</ele>
        <time>2024-06-04T22:38:33Z</time>
      </trkpt>
      <trkpt lat="44.95776" lon="5.87165">
        <ele>978</ele>
        <time>2024-06-04T22:38:35Z</time>
      </trkpt>
      <trkpt lat="44.95768" lon="5.87147">
        <ele>977</ele>
        <time>2024-06-04T22:38:38Z</time>
      </trkpt>
      <trkpt lat="44.95762" lon="5.87127">
        <ele>976</ele>
        <time>2024-06-04T22:38:41Z</time>
      </trkpt>
      <trkpt lat="44.95755" lon="5.87096">
        <ele>975</ele>
        <time>2024-06-04T22:38:45Z</time>
      </trkpt>
      <trkpt lat="44.95747" lon="5.87071">
        <ele>975</ele>
        <time>2024-06-04T22:38:48Z</time>
      </trkpt>
      <trkpt lat="44.95739" lon="5.87053">
        <ele>976</ele>
        <time>2024-06-04T22:38:51Z</time>
      </trkpt>
      <trkpt lat="44.95715" lon="5.87025">
        <ele>976</ele>
        <time>2024-06-04T22:38:57Z</time>
      </trkpt>
      <trkpt lat="44.95701" lon="5.87012">
        <ele>975</ele>
        <time>2024-06-04T22:39:00Z</time>
      </trkpt>
      <trkpt lat="44.9569" lon="5.87004">
        <ele>974</ele>
        <time>2024-06-04T22:39:02Z</time>
      </trkpt>
      <trkpt lat="44.95653" lon="5.86984">
        <ele>975</ele>
        <time>2024-06-04T22:39:09Z</time>
      </trkpt>
      <trkpt lat="44.95604" lon="5.86965">
        <ele>976</ele>
        <time>2024-06-04T22:39:18Z</time>
      </trkpt>
      <trkpt lat="44.95574" lon="5.8696">
        <ele>975</ele>
        <time>2024-06-04T22:39:23Z</time>
      </trkpt>
      <trkpt lat="44.95541" lon="5.86958">
        <ele>972</ele>
        <time>2024-06-04T22:39:29Z</time>
      </trkpt>
      <trkpt lat="44.95509" lon="5.86952">
        <ele>970</ele>
        <time>2024-06-04T22:39:35Z</time>
      </trkpt>
      <trkpt lat="44.9546" lon="5.86933">
        <ele>968</ele>
        <time>2024-06-04T22:39:44Z</time>
      </trkpt>
      <trkpt lat="44.95443" lon="5.86923">
        <ele>968</ele>
        <time>2024-06-04T22:39:47Z</time>
      </trkpt>
      <trkpt lat="44.95407" lon="5.8689">
        <ele>973</ele>
        <time>2024-06-04T22:39:55Z</time>
      </trkpt>
      <trkpt lat="44.95365" lon="5.8686">
        <ele>975</ele>
        <time>2024-06-04T22:40:03Z</time>
      </trkpt>
      <trkpt lat="44.95335" lon="5.86841">
        <ele>974</ele>
        <time>2024-06-04T22:40:09Z</time>
      </trkpt>
      <trkpt lat="44.95296" lon="5.86821">
        <ele>976</ele>
        <time>2024-06-04T22:40:16Z</time>
      </trkpt>
      <trkpt lat="44.95223" lon="5.86813">
        <ele>970</ele>
        <time>2024-06-04T22:40:30Z</time>
      </trkpt>
      <trkpt lat="44.95183" lon="5.86813">
        <ele>965</ele>
        <time>2024-06-04T22:40:37Z</time>
      </trkpt>
      <trkpt lat="44.95162" lon="5.86804">
        <ele>966</ele>
        <time>2024-06-04T22:40:41Z</time>
      </trkpt>
      <trkpt lat="44.95137" lon="5.86792">
        <ele>967</ele>
        <time>2024-06-04T22:40:45Z</time>
      </trkpt>
      <trkpt lat="44.95112" lon="5.86775">
        <ele>968</ele>
        <time>2024-06-04T22:40:50Z</time>
      </trkpt>
      <trkpt lat="44.95062" lon="5.86726">
        <ele>971</ele>
        <time>2024-06-04T22:41:01Z</time>
      </trkpt>
      <trkpt lat="44.94996" lon="5.86682">
        <ele>967</ele>
        <time>2024-06-04T22:41:14Z</time>
      </trkpt>
      <trkpt lat="44.9496" lon="5.86661">
        <ele>964</ele>
        <time>2024-06-04T22:41:21Z</time>
      </trkpt>
      <trkpt lat="44.9491" lon="5.86638">
        <ele>961</ele>
        <time>2024-06-04T22:41:30Z</time>
      </trkpt>
      <trkpt lat="44.94885" lon="5.86629">
        <ele>961</ele>
        <time>2024-06-04T22:41:35Z</time>
      </trkpt>
      <trkpt lat="44.94805" lon="5.86608">
        <ele>955</ele>
        <time>2024-06-04T22:41:49Z</time>
      </trkpt>
      <trkpt lat="44.94767" lon="5.8659">
        <ele>954</ele>
        <time>2024-06-04T22:41:56Z</time>
      </trkpt>
      <trkpt lat="44.9475" lon="5.8658">
        <ele>954</ele>
        <time>2024-06-04T22:42:00Z</time>
      </trkpt>
      <trkpt lat="44.94669" lon="5.86521">
        <ele>954</ele>
        <time>2024-06-04T22:42:16Z</time>
      </trkpt>
      <trkpt lat="44.94642" lon="5.86499">
        <ele>952</ele>
        <time>2024-06-04T22:42:21Z</time>
      </trkpt>
      <trkpt lat="44.9461" lon="5.86463">
        <ele>951</ele>
        <time>2024-06-04T22:42:29Z</time>
      </trkpt>
      <trkpt lat="44.9458" lon="5.86419">
        <ele>954</ele>
        <time>2024-06-04T22:42:36Z</time>
      </trkpt>
      <trkpt lat="44.94562" lon="5.86398">
        <ele>954</ele>
        <time>2024-06-04T22:42:41Z</time>
      </trkpt>
      <trkpt lat="44.94533" lon="5.86371">
        <ele>950</ele>
        <time>2024-06-04T22:42:47Z</time>
      </trkpt>
      <trkpt lat="44.94527" lon="5.86362">
        <ele>950</ele>
        <time>2024-06-04T22:42:48Z</time>
      </trkpt>
      <trkpt lat="44.94512" lon="5.8632">
        <ele>952</ele>
        <time>2024-06-04T22:42:54Z</time>
      </trkpt>
      <trkpt lat="44.94502" lon="5.86299">
        <ele>953</ele>
        <time>2024-06-04T22:42:57Z</time>
      </trkpt>
      <trkpt lat="44.94486" lon="5.86275">
        <ele>955</ele>
        <time>2024-06-04T22:43:02Z</time>
      </trkpt>
      <trkpt lat="44.94442" lon="5.86229">
        <ele>953</ele>
        <time>2024-06-04T22:43:11Z</time>
      </trkpt>
      <trkpt lat="44.94398" lon="5.8616">
        <ele>957</ele>
        <time>2024-06-04T22:43:23Z</time>
      </trkpt>
      <trkpt lat="44.94385" lon="5.86134">
        <ele>958</ele>
        <time>2024-06-04T22:43:27Z</time>
      </trkpt>
      <trkpt lat="44.94374" lon="5.86103">
        <ele>960</ele>
        <time>2024-06-04T22:43:31Z</time>
      </trkpt>
      <trkpt lat="44.94361" lon="5.86075">
        <ele>960</ele>
        <time>2024-06-04T22:43:36Z</time>
      </trkpt>
      <trkpt lat="44.94343" lon="5.86044">
        <ele>961</ele>
        <time>2024-06-04T22:43:41Z</time>
      </trkpt>
      <trkpt lat="44.94328" lon="5.86022">
        <ele>962</ele>
        <time>2024-06-04T22:43:45Z</time>
      </trkpt>
      <trkpt lat="44.94294" lon="5.85994">
        <ele>958</ele>
        <time>2024-06-04T22:43:52Z</time>
      </trkpt>
      <trkpt lat="44.94286" lon="5.85982">
        <ele>959</ele>
        <time>2024-06-04T22:43:54Z</time>
      </trkpt>
      <trkpt lat="44.94262" lon="5.85921">
        <ele>968</ele>
        <time>2024-06-04T22:44:02Z</time>
      </trkpt>
      <trkpt lat="44.94251" lon="5.859">
        <ele>969</ele>
        <time>2024-06-04T22:44:06Z</time>
      </trkpt>
      <trkpt lat="44.94214" lon="5.85839">
        <ele>967</ele>
        <time>2024-06-04T22:44:16Z</time>
      </trkpt>
      <trkpt lat="44.94192" lon="5.8581">
        <ele>962</ele>
        <time>2024-06-04T22:44:21Z</time>
      </trkpt>
      <trkpt lat="44.94187" lon="5.85797">
        <ele>961</ele>
        <time>2024-06-04T22:44:23Z</time>
      </trkpt>
      <trkpt lat="44.94186" lon="5.85786">
        <ele>962</ele>
        <time>2024-06-04T22:44:24Z</time>
      </trkpt>
      <trkpt lat="44.94187" lon="5.85774">
        <ele>963</ele>
        <time>2024-06-04T22:44:26Z</time>
      </trkpt>
      <trkpt lat="44.94201" lon="5.85722">
        <ele>972</ele>
        <time>2024-06-04T22:44:33Z</time>
      </trkpt>
      <trkpt lat="44.94219" lon="5.85622">
        <ele>992</ele>
        <time>2024-06-04T22:44:46Z</time>
      </trkpt>
      <trkpt lat="44.94219" lon="5.85608">
        <ele>994</ele>
        <time>2024-06-04T22:44:48Z</time>
      </trkpt>
      <trkpt lat="44.94199" lon="5.8558">
        <ele>991</ele>
        <time>2024-06-04T22:44:53Z</time>
      </trkpt>
      <trkpt lat="44.94189" lon="5.85562">
        <ele>991</ele>
        <time>2024-06-04T22:44:56Z</time>
      </trkpt>
      <trkpt lat="44.94147" lon="5.85465">
        <ele>999</ele>
        <time>2024-06-04T22:45:10Z</time>
      </trkpt>
      <trkpt lat="44.94143" lon="5.85461">
        <ele>999</ele>
        <time>2024-06-04T22:45:11Z</time>
      </trkpt>
      <trkpt lat="44.94138" lon="5.85441">
        <ele>1002</ele>
        <time>2024-06-04T22:45:13Z</time>
      </trkpt>
      <trkpt lat="44.94102" lon="5.85359">
        <ele>1004</ele>
        <time>2024-06-04T22:45:26Z</time>
      </trkpt>
      <trkpt lat="44.94089" lon="5.85331">
        <ele>1003</ele>
        <time>2024-06-04T22:45:30Z</time>
      </trkpt>
      <trkpt lat="44.94077" lon="5.85311">
        <ele>1002</ele>
        <time>2024-06-04T22:45:33Z</time>
      </trkpt>
      <trkpt lat="44.94059" lon="5.8529">
        <ele>1001</ele>
        <time>2024-06-04T22:45:37Z</time>
      </trkpt>
      <trkpt lat="44.94034" lon="5.85274">
        <ele>997</ele>
        <time>2024-06-04T22:45:42Z</time>
      </trkpt>
      <trkpt lat="44.94015" lon="5.85254">
        <ele>995</ele>
        <time>2024-06-04T22:45:46Z</time>
      </trkpt>
      <trkpt lat="44.94012" lon="5.85245">
        <ele>996</ele>
        <time>2024-06-04T22:45:48Z</time>
      </trkpt>
      <trkpt lat="44.9401" lon="5.85187">
        <ele>1004</ele>
        <time>2024-06-04T22:45:55Z</time>
      </trkpt>
      <trkpt lat="44.94005" lon="5.85178">
        <ele>1005</ele>
        <time>2024-06-04T22:45:56Z</time>
      </trkpt>
      <trkpt lat="44.93999" lon="5.85174">
        <ele>1004</ele>
        <time>2024-06-04T22:45:58Z</time>
      </trkpt>
      <trkpt lat="44.93992" lon="5.85174">
        <ele>1003</ele>
        <time>2024-06-04T22:45:59Z</time>
      </trkpt>
      <trkpt lat="44.93971" lon="5.85183">
        <ele>1000</ele>
        <time>2024-06-04T22:46:03Z</time>
      </trkpt>
      <trkpt lat="44.93962" lon="5.85183">
        <ele>999</ele>
        <time>2024-06-04T22:46:04Z</time>
      </trkpt>
      <trkpt lat="44.93952" lon="5.85179">
        <ele>998</ele>
        <time>2024-06-04T22:46:06Z</time>
      </trkpt>
      <trkpt lat="44.93919" lon="5.85152">
        <ele>1004</ele>
        <time>2024-06-04T22:46:13Z</time>
      </trkpt>
      <trkpt lat="44.93908" lon="5.85146">
        <ele>1007</ele>
        <time>2024-06-04T22:46:15Z</time>
      </trkpt>
      <trkpt lat="44.93889" lon="5.85141">
        <ele>1010</ele>
        <time>2024-06-04T22:46:19Z</time>
      </trkpt>
      <trkpt lat="44.93848" lon="5.85141">
        <ele>1012</ele>
        <time>2024-06-04T22:46:26Z</time>
      </trkpt>
      <trkpt lat="44.938" lon="5.8513">
        <ele>1016</ele>
        <time>2024-06-04T22:46:34Z</time>
      </trkpt>
      <trkpt lat="44.93759" lon="5.8513">
        <ele>1014</ele>
        <time>2024-06-04T22:46:42Z</time>
      </trkpt>
      <trkpt lat="44.93744" lon="5.85127">
        <ele>1014</ele>
        <time>2024-06-04T22:46:44Z</time>
      </trkpt>
      <trkpt lat="44.93731" lon="5.85121">
        <ele>1015</ele>
        <time>2024-06-04T22:46:47Z</time>
      </trkpt>
      <trkpt lat="44.9366" lon="5.8507">
        <ele>1026</ele>
        <time>2024-06-04T22:47:01Z</time>
      </trkpt>
      <trkpt lat="44.93646" lon="5.85062">
        <ele>1029</ele>
        <time>2024-06-04T22:47:04Z</time>
      </trkpt>
      <trkpt lat="44.93636" lon="5.85059">
        <ele>1029</ele>
        <time>2024-06-04T22:47:06Z</time>
      </trkpt>
      <trkpt lat="44.93603" lon="5.85054">
        <ele>1028</ele>
        <time>2024-06-04T22:47:11Z</time>
      </trkpt>
      <trkpt lat="44.9357" lon="5.85043">
        <ele>1032</ele>
        <time>2024-06-04T22:47:18Z</time>
      </trkpt>
      <trkpt lat="44.93551" lon="5.85039">
        <ele>1034</ele>
        <time>2024-06-04T22:47:21Z</time>
      </trkpt>
      <trkpt lat="44.93501" lon="5.85038">
        <ele>1033</ele>
        <time>2024-06-04T22:47:30Z</time>
      </trkpt>
      <trkpt lat="44.93379" lon="5.8502">
        <ele>1050</ele>
        <time>2024-06-04T22:47:52Z</time>
      </trkpt>
      <trkpt lat="44.93322" lon="5.85018">
        <ele>1058</ele>
        <time>2024-06-04T22:48:02Z</time>
      </trkpt>
      <trkpt lat="44.93245" lon="5.85025">
        <ele>1069</ele>
        <time>2024-06-04T22:48:16Z</time>
      </trkpt>
      <trkpt lat="44.93122" lon="5.85043">
        <ele>1074</ele>
        <time>2024-06-04T22:48:38Z</time>
      </trkpt>
      <trkpt lat="44.93009" lon="5.85053">
        <ele>1082</ele>
        <time>2024-06-04T22:48:58Z</time>
      </trkpt>
      <trkpt lat="44.92941" lon="5.85064">
        <ele>1088</ele>
        <time>2024-06-04T22:49:10Z</time>
      </trkpt>
      <trkpt lat="44.92861" lon="5.8509">
        <ele>1096</ele>
        <time>2024-06-04T22:49:24Z</time>
      </trkpt>
      <trkpt lat="44.92821" lon="5.85112">
        <ele>1093</ele>
        <time>2024-06-04T22:49:32Z</time>
      </trkpt>
      <trkpt lat="44.92785" lon="5.85124">
        <ele>1093</ele>
        <time>2024-06-04T22:49:39Z</time>
      </trkpt>
      <trkpt lat="44.92756" lon="5.85131">
        <ele>1096</ele>
        <time>2024-06-04T22:49:44Z</time>
      </trkpt>
      <trkpt lat="44.9273" lon="5.85134">
        <ele>1098</ele>
        <time>2024-06-04T22:49:49Z</time>
      </trkpt>
      <trkpt lat="44.92657" lon="5.85151">
        <ele>1100</ele>
        <time>2024-06-04T22:50:02Z</time>
      </trkpt>
      <trkpt lat="44.9263" lon="5.8516">
        <ele>1098</ele>
        <time>2024-06-04T22:50:07Z</time>
      </trkpt>
      <trkpt lat="44.9258" lon="5.85167">
        <ele>1100</ele>
        <time>2024-06-04T22:50:16Z</time>
      </trkpt>
      <trkpt lat="44.92559" lon="5.85166">
        <ele>1098</ele>
        <time>2024-06-04T22:50:19Z</time>
      </trkpt>
      <trkpt lat="44.92525" lon="5.85159">
        <ele>1094</ele>
        <time>2024-06-04T22:50:25Z</time>
      </trkpt>
      <trkpt lat="44.92521" lon="5.85154">
        <ele>1093</ele>
        <time>2024-06-04T22:50:26Z</time>
      </trkpt>
      <trkpt lat="44.92518" lon="5.85145">
        <ele>1092</ele>
        <time>2024-06-04T22:50:28Z</time>
      </trkpt>
      <trkpt lat="44.92519" lon="5.85131">
        <ele>1091</ele>
        <time>2024-06-04T22:50:29Z</time>
      </trkpt>
      <trkpt lat="44.92525" lon="5.85117">
        <ele>1091</ele>
        <time>2024-06-04T22:50:31Z</time>
      </trkpt>
      <trkpt lat="44.92548" lon="5.85099">
        <ele>1096</ele>
        <time>2024-06-04T22:50:36Z</time>
      </trkpt>
      <trkpt lat="44.92567" lon="5.85078">
        <ele>1100</ele>
        <time>2024-06-04T22:50:40Z</time>
      </trkpt>
      <trkpt lat="44.92648" lon="5.84987">
        <ele>1113</ele>
        <time>2024-06-04T22:50:59Z</time>
      </trkpt>
      <trkpt lat="44.92686" lon="5.84937">
        <ele>1118</ele>
        <time>2024-06-04T22:51:08Z</time>
      </trkpt>
      <trkpt lat="44.92712" lon="5.84899">
        <ele>1123</ele>
        <time>2024-06-04T22:51:15Z</time>
      </trkpt>
      <trkpt lat="44.92736" lon="5.84855">
        <ele>1127</ele>
        <time>2024-06-04T22:51:22Z</time>
      </trkpt>
      <trkpt lat="44.92763" lon="5.8479">
        <ele>1134</ele>
        <time>2024-06-04T22:51:31Z</time>
      </trkpt>
      <trkpt lat="44.92779" lon="5.84748">
        <ele>1139</ele>
        <time>2024-06-04T22:51:37Z</time>
      </trkpt>
      <trkpt lat="44.92812" lon="5.84634">
        <ele>1149</ele>
        <time>2024-06-04T22:51:53Z</time>
      </trkpt>
      <trkpt lat="44.92812" lon="5.84618">
        <ele>1148</ele>
        <time>2024-06-04T22:51:55Z</time>
      </trkpt>
      <trkpt lat="44.92811" lon="5.84603">
        <ele>1148</ele>
        <time>2024-06-04T22:51:57Z</time>
      </trkpt>
      <trkpt lat="44.92797" lon="5.84558">
        <ele>1145</ele>
        <time>2024-06-04T22:52:03Z</time>
      </trkpt>
      <trkpt lat="44.92796" lon="5.84539">
        <ele>1147</ele>
        <time>2024-06-04T22:52:05Z</time>
      </trkpt>
      <trkpt lat="44.92803" lon="5.84472">
        <ele>1153</ele>
        <time>2024-06-04T22:52:14Z</time>
      </trkpt>
      <trkpt lat="44.9281" lon="5.84423">
        <ele>1158</ele>
        <time>2024-06-04T22:52:20Z</time>
      </trkpt>
      <trkpt lat="44.92813" lon="5.84412">
        <ele>1159</ele>
        <time>2024-06-04T22:52:22Z</time>
      </trkpt>
      <trkpt lat="44.92821" lon="5.84394">
        <ele>1161</ele>
        <time>2024-06-04T22:52:24Z</time>
      </trkpt>
      <trkpt lat="44.92879" lon="5.84297">
        <ele>1155</ele>
        <time>2024-06-04T22:52:40Z</time>
      </trkpt>
      <trkpt lat="44.92891" lon="5.84288">
        <ele>1152</ele>
        <time>2024-06-04T22:52:43Z</time>
      </trkpt>
      <trkpt lat="44.929" lon="5.84285">
        <ele>1150</ele>
        <time>2024-06-04T22:52:44Z</time>
      </trkpt>
      <trkpt lat="44.92924" lon="5.84287">
        <ele>1148</ele>
        <time>2024-06-04T22:52:49Z</time>
      </trkpt>
      <trkpt lat="44.9294" lon="5.84293">
        <ele>1149</ele>
        <time>2024-06-04T22:52:52Z</time>
      </trkpt>
      <trkpt lat="44.92986" lon="5.84293">
        <ele>1148</ele>
        <time>2024-06-04T22:53:00Z</time>
      </trkpt>
      <trkpt lat="44.93004" lon="5.8429">
        <ele>1147</ele>
        <time>2024-06-04T22:53:03Z</time>
      </trkpt>
      <trkpt lat="44.93016" lon="5.84287">
        <ele>1147</ele>
        <time>2024-06-04T22:53:05Z</time>
      </trkpt>
      <trkpt lat="44.9305" lon="5.84269">
        <ele>1142</ele>
        <time>2024-06-04T22:53:12Z</time>
      </trkpt>
      <trkpt lat="44.93075" lon="5.84248">
        <ele>1136</ele>
        <time>2024-06-04T22:53:17Z</time>
      </trkpt>
      <trkpt lat="44.9311" lon="5.84227">
        <ele>1135</ele>
        <time>2024-06-04T22:53:24Z</time>
      </trkpt>
      <trkpt lat="44.93121" lon="5.84211">
        <ele>1133</ele>
        <time>2024-06-04T22:53:26Z</time>
      </trkpt>
      <trkpt lat="44.93168" lon="5.84111">
        <ele>1120</ele>
        <time>2024-06-04T22:53:41Z</time>
      </trkpt>
      <trkpt lat="44.93175" lon="5.84094">
        <ele>1119</ele>
        <time>2024-06-04T22:53:44Z</time>
      </trkpt>
      <trkpt lat="44.93193" lon="5.83985">
        <ele>1108</ele>
        <time>2024-06-04T22:53:58Z</time>
      </trkpt>
      <trkpt lat="44.93194" lon="5.8397">
        <ele>1108</ele>
        <time>2024-06-04T22:54:00Z</time>
      </trkpt>
      <trkpt lat="44.93192" lon="5.8395">
        <ele>1106</ele>
        <time>2024-06-04T22:54:02Z</time>
      </trkpt>
      <trkpt lat="44.93186" lon="5.83929">
        <ele>1103</ele>
        <time>2024-06-04T22:54:05Z</time>
      </trkpt>
      <trkpt lat="44.93176" lon="5.83906">
        <ele>1100</ele>
        <time>2024-06-04T22:54:09Z</time>
      </trkpt>
      <trkpt lat="44.93172" lon="5.83886">
        <ele>1098</ele>
        <time>2024-06-04T22:54:11Z</time>
      </trkpt>
      <trkpt lat="44.93172" lon="5.83872">
        <ele>1098</ele>
        <time>2024-06-04T22:54:13Z</time>
      </trkpt>
      <trkpt lat="44.93174" lon="5.83838">
        <ele>1097</ele>
        <time>2024-06-04T22:54:17Z</time>
      </trkpt>
      <trkpt lat="44.93182" lon="5.83798">
        <ele>1097</ele>
        <time>2024-06-04T22:54:23Z</time>
      </trkpt>
      <trkpt lat="44.93194" lon="5.83775">
        <ele>1098</ele>
        <time>2024-06-04T22:54:26Z</time>
      </trkpt>
      <trkpt lat="44.93195" lon="5.83767">
        <ele>1098</ele>
        <time>2024-06-04T22:54:27Z</time>
      </trkpt>
      <trkpt lat="44.93192" lon="5.83757">
        <ele>1096</ele>
        <time>2024-06-04T22:54:29Z</time>
      </trkpt>
      <trkpt lat="44.93188" lon="5.83751">
        <ele>1094</ele>
        <time>2024-06-04T22:54:30Z</time>
      </trkpt>
      <trkpt lat="44.93182" lon="5.83751">
        <ele>1092</ele>
        <time>2024-06-04T22:54:31Z</time>
      </trkpt>
      <trkpt lat="44.93154" lon="5.83794">
        <ele>1088</ele>
        <time>2024-06-04T22:54:38Z</time>
      </trkpt>
      <trkpt lat="44.93118" lon="5.83834">
        <ele>1082</ele>
        <time>2024-06-04T22:54:46Z</time>
      </trkpt>
      <trkpt lat="44.93113" lon="5.83843">
        <ele>1081</ele>
        <time>2024-06-04T22:54:48Z</time>
      </trkpt>
      <trkpt lat="44.93098" lon="5.83877">
        <ele>1078</ele>
        <time>2024-06-04T22:54:53Z</time>
      </trkpt>
      <trkpt lat="44.93093" lon="5.83881">
        <ele>1077</ele>
        <time>2024-06-04T22:54:54Z</time>
      </trkpt>
      <trkpt lat="44.93085" lon="5.83881">
        <ele>1075</ele>
        <time>2024-06-04T22:54:55Z</time>
      </trkpt>
      <trkpt lat="44.9308" lon="5.83875">
        <ele>1074</ele>
        <time>2024-06-04T22:54:56Z</time>
      </trkpt>
      <trkpt lat="44.93072" lon="5.83789">
        <ele>1063</ele>
        <time>2024-06-04T22:55:07Z</time>
      </trkpt>
      <trkpt lat="44.93076" lon="5.83757">
        <ele>1060</ele>
        <time>2024-06-04T22:55:11Z</time>
      </trkpt>
      <trkpt lat="44.93089" lon="5.83722">
        <ele>1059</ele>
        <time>2024-06-04T22:55:16Z</time>
      </trkpt>
      <trkpt lat="44.93098" lon="5.83706">
        <ele>1059</ele>
        <time>2024-06-04T22:55:19Z</time>
      </trkpt>
      <trkpt lat="44.93107" lon="5.83696">
        <ele>1060</ele>
        <time>2024-06-04T22:55:21Z</time>
      </trkpt>
      <trkpt lat="44.93126" lon="5.83683">
        <ele>1063</ele>
        <time>2024-06-04T22:55:25Z</time>
      </trkpt>
      <trkpt lat="44.93137" lon="5.83671">
        <ele>1065</ele>
        <time>2024-06-04T22:55:27Z</time>
      </trkpt>
      <trkpt lat="44.93168" lon="5.83617">
        <ele>1058</ele>
        <time>2024-06-04T22:55:36Z</time>
      </trkpt>
      <trkpt lat="44.93184" lon="5.83592">
        <ele>1056</ele>
        <time>2024-06-04T22:55:40Z</time>
      </trkpt>
      <trkpt lat="44.93193" lon="5.83575">
        <ele>1057</ele>
        <time>2024-06-04T22:55:43Z</time>
      </trkpt>
      <trkpt lat="44.93194" lon="5.8355">
        <ele>1057</ele>
        <time>2024-06-04T22:55:46Z</time>
      </trkpt>
      <trkpt lat="44.93193" lon="5.83541">
        <ele>1056</ele>
        <time>2024-06-04T22:55:47Z</time>
      </trkpt>
      <trkpt lat="44.93187" lon="5.83527">
        <ele>1053</ele>
        <time>2024-06-04T22:55:49Z</time>
      </trkpt>
      <trkpt lat="44.93181" lon="5.83518">
        <ele>1051</ele>
        <time>2024-06-04T22:55:51Z</time>
      </trkpt>
      <trkpt lat="44.93149" lon="5.83482">
        <ele>1038</ele>
        <time>2024-06-04T22:55:58Z</time>
      </trkpt>
      <trkpt lat="44.9313" lon="5.83451">
        <ele>1032</ele>
        <time>2024-06-04T22:56:03Z</time>
      </trkpt>
      <trkpt lat="44.9312" lon="5.83428">
        <ele>1029</ele>
        <time>2024-06-04T22:56:07Z</time>
      </trkpt>
      <trkpt lat="44.93115" lon="5.83405">
        <ele>1025</ele>
        <time>2024-06-04T22:56:10Z</time>
      </trkpt>
      <trkpt lat="44.93113" lon="5.83387">
        <ele>1022</ele>
        <time>2024-06-04T22:56:12Z</time>
      </trkpt>
      <trkpt lat="44.93114" lon="5.83364">
        <ele>1020</ele>
        <time>2024-06-04T22:56:15Z</time>
      </trkpt>
      <trkpt lat="44.93126" lon="5.83305">
        <ele>1016</ele>
        <time>2024-06-04T22:56:23Z</time>
      </trkpt>
      <trkpt lat="44.93132" lon="5.83288">
        <ele>1015</ele>
        <time>2024-06-04T22:56:25Z</time>
      </trkpt>
      <trkpt lat="44.93147" lon="5.83263">
        <ele>1015</ele>
        <time>2024-06-04T22:56:29Z</time>
      </trkpt>
      <trkpt lat="44.93197" lon="5.83213">
        <ele>1015</ele>
        <time>2024-06-04T22:56:40Z</time>
      </trkpt>
      <trkpt lat="44.93222" lon="5.83196">
        <ele>1015</ele>
        <time>2024-06-04T22:56:45Z</time>
      </trkpt>
      <trkpt lat="44.93251" lon="5.83181">
        <ele>1014</ele>
        <time>2024-06-04T22:56:50Z</time>
      </trkpt>
      <trkpt lat="44.93285" lon="5.83165">
        <ele>1009</ele>
        <time>2024-06-04T22:56:57Z</time>
      </trkpt>
      <trkpt lat="44.93354" lon="5.83139">
        <ele>1002</ele>
        <time>2024-06-04T22:57:10Z</time>
      </trkpt>
      <trkpt lat="44.93382" lon="5.83125">
        <ele>999</ele>
        <time>2024-06-04T22:57:15Z</time>
      </trkpt>
      <trkpt lat="44.93413" lon="5.83105">
        <ele>992</ele>
        <time>2024-06-04T22:57:21Z</time>
      </trkpt>
      <trkpt lat="44.93459" lon="5.83073">
        <ele>986</ele>
        <time>2024-06-04T22:57:30Z</time>
      </trkpt>
      <trkpt lat="44.93561" lon="5.82982">
        <ele>977</ele>
        <time>2024-06-04T22:57:51Z</time>
      </trkpt>
      <trkpt lat="44.93574" lon="5.82962">
        <ele>976</ele>
        <time>2024-06-04T22:57:55Z</time>
      </trkpt>
      <trkpt lat="44.93577" lon="5.82951">
        <ele>975</ele>
        <time>2024-06-04T22:57:56Z</time>
      </trkpt>
      <trkpt lat="44.93575" lon="5.82928">
        <ele>972</ele>
        <time>2024-06-04T22:57:59Z</time>
      </trkpt>
      <trkpt lat="44.93553" lon="5.82841">
        <ele>966</ele>
        <time>2024-06-04T22:58:11Z</time>
      </trkpt>
      <trkpt lat="44.93543" lon="5.8282">
        <ele>963</ele>
        <time>2024-06-04T22:58:14Z</time>
      </trkpt>
      <trkpt lat="44.93517" lon="5.82804">
        <ele>960</ele>
        <time>2024-06-04T22:58:19Z</time>
      </trkpt>
      <trkpt lat="44.93512" lon="5.82798">
        <ele>959</ele>
        <time>2024-06-04T22:58:20Z</time>
      </trkpt>
      <trkpt lat="44.93504" lon="5.82781">
        <ele>957</ele>
        <time>2024-06-04T22:58:23Z</time>
      </trkpt>
      <trkpt lat="44.93501" lon="5.8276">
        <ele>956</ele>
        <time>2024-06-04T22:58:26Z</time>
      </trkpt>
      <trkpt lat="44.93491" lon="5.82651">
        <ele>952</ele>
        <time>2024-06-04T22:58:39Z</time>
      </trkpt>
      <trkpt lat="44.93487" lon="5.8259">
        <ele>952</ele>
        <time>2024-06-04T22:58:47Z</time>
      </trkpt>
      <trkpt lat="44.93473" lon="5.82545">
        <ele>951</ele>
        <time>2024-06-04T22:58:53Z</time>
      </trkpt>
      <trkpt lat="44.93461" lon="5.82512">
        <ele>950</ele>
        <time>2024-06-04T22:58:58Z</time>
      </trkpt>
      <trkpt lat="44.93464" lon="5.82506">
        <ele>951</ele>
        <time>2024-06-04T22:58:59Z</time>
      </trkpt>
      <trkpt lat="44.93463" lon="5.82501">
        <ele>951</ele>
        <time>2024-06-04T22:59:00Z</time>
      </trkpt>
      <trkpt lat="44.93461" lon="5.82497">
        <ele>950</ele>
        <time>2024-06-04T22:59:00Z</time>
      </trkpt>
      <trkpt lat="44.93456" lon="5.82496">
        <ele>950</ele>
        <time>2024-06-04T22:59:01Z</time>
      </trkpt>
      <trkpt lat="44.9345" lon="5.82475">
        <ele>949</ele>
        <time>2024-06-04T22:59:04Z</time>
      </trkpt>
      <trkpt lat="44.93419" lon="5.82417">
        <ele>945</ele>
        <time>2024-06-04T22:59:13Z</time>
      </trkpt>
      <trkpt lat="44.93337" lon="5.82307">
        <ele>935</ele>
        <time>2024-06-04T22:59:33Z</time>
      </trkpt>
      <trkpt lat="44.9332" lon="5.82277">
        <ele>933</ele>
        <time>2024-06-04T22:59:38Z</time>
      </trkpt>
      <trkpt lat="44.93303" lon="5.82237">
        <ele>932</ele>
        <time>2024-06-04T22:59:44Z</time>
      </trkpt>
      <trkpt lat="44.93277" lon="5.82154">
        <ele>929</ele>
        <time>2024-06-04T22:59:55Z</time>
      </trkpt>
      <trkpt lat="44.93246" lon="5.82072">
        <ele>926</ele>
        <time>2024-06-04T23:00:07Z</time>
      </trkpt>
      <trkpt lat="44.93107" lon="5.81768">
        <ele>919</ele>
        <time>2024-06-04T23:00:53Z</time>
      </trkpt>
      <trkpt lat="44.92983" lon="5.81502">
        <ele>918</ele>
        <time>2024-06-04T23:01:33Z</time>
      </trkpt>
      <trkpt lat="44.92965" lon="5.81455">
        <ele>918</ele>
        <time>2024-06-04T23:01:40Z</time>
      </trkpt>
      <trkpt lat="44.92927" lon="5.81322">
        <ele>918</ele>
        <time>2024-06-04T23:01:58Z</time>
      </trkpt>
      <trkpt lat="44.92897" lon="5.81203">
        <ele>923</ele>
        <time>2024-06-04T23:02:14Z</time>
      </trkpt>
      <trkpt lat="44.92858" lon="5.81066">
        <ele>924</ele>
        <time>2024-06-04T23:02:32Z</time>
      </trkpt>
      <trkpt lat="44.92841" lon="5.81012">
        <ele>920</ele>
        <time>2024-06-04T23:02:40Z</time>
      </trkpt>
      <trkpt lat="44.9283" lon="5.80983">
        <ele>919</ele>
        <time>2024-06-04T23:02:44Z</time>
      </trkpt>
      <trkpt lat="44.92823" lon="5.8097">
        <ele>919</ele>
        <time>2024-06-04T23:02:46Z</time>
      </trkpt>
      <trkpt lat="44.9277" lon="5.80901">
        <ele>918</ele>
        <time>2024-06-04T23:02:59Z</time>
      </trkpt>
      <trkpt lat="44.92735" lon="5.80867">
        <ele>917</ele>
        <time>2024-06-04T23:03:06Z</time>
      </trkpt>
      <trkpt lat="44.92706" lon="5.80847">
        <ele>913</ele>
        <time>2024-06-04T23:03:12Z</time>
      </trkpt>
      <trkpt lat="44.92689" lon="5.8083">
        <ele>910</ele>
        <time>2024-06-04T23:03:16Z</time>
      </trkpt>
      <trkpt lat="44.92682" lon="5.80819">
        <ele>909</ele>
        <time>2024-06-04T23:03:17Z</time>
      </trkpt>
      <trkpt lat="44.92672" lon="5.80789">
        <ele>908</ele>
        <time>2024-06-04T23:03:22Z</time>
      </trkpt>
      <trkpt lat="44.92648" lon="5.80667">
        <ele>909</ele>
        <time>2024-06-04T23:03:38Z</time>
      </trkpt>
      <trkpt lat="44.92642" lon="5.80653">
        <ele>909</ele>
        <time>2024-06-04T23:03:40Z</time>
      </trkpt>
      <trkpt lat="44.92634" lon="5.80641">
        <ele>909</ele>
        <time>2024-06-04T23:03:42Z</time>
      </trkpt>
      <trkpt lat="44.92549" lon="5.80563">
        <ele>907</ele>
        <time>2024-06-04T23:04:00Z</time>
      </trkpt>
      <trkpt lat="44.92533" lon="5.80551">
        <ele>907</ele>
        <time>2024-06-04T23:04:03Z</time>
      </trkpt>
      <trkpt lat="44.92422" lon="5.80496">
        <ele>911</ele>
        <time>2024-06-04T23:04:24Z</time>
      </trkpt>
      <trkpt lat="44.92409" lon="5.80496">
        <ele>911</ele>
        <time>2024-06-04T23:04:26Z</time>
      </trkpt>
      <trkpt lat="44.92382" lon="5.80504">
        <ele>912</ele>
        <time>2024-06-04T23:04:31Z</time>
      </trkpt>
      <trkpt lat="44.92358" lon="5.80517">
        <ele>910</ele>
        <time>2024-06-04T23:04:36Z</time>
      </trkpt>
      <trkpt lat="44.92346" lon="5.80529">
        <ele>908</ele>
        <time>2024-06-04T23:04:38Z</time>
      </trkpt>
      <trkpt lat="44.9233" lon="5.80564">
        <ele>901</ele>
        <time>2024-06-04T23:04:44Z</time>
      </trkpt>
      <trkpt lat="44.92301" lon="5.80616">
        <ele>893</ele>
        <time>2024-06-04T23:04:52Z</time>
      </trkpt>
      <trkpt lat="44.92281" lon="5.80644">
        <ele>890</ele>
        <time>2024-06-04T23:04:57Z</time>
      </trkpt>
      <trkpt lat="44.92266" lon="5.8066">
        <ele>889</ele>
        <time>2024-06-04T23:05:00Z</time>
      </trkpt>
      <trkpt lat="44.92254" lon="5.80668">
        <ele>889</ele>
        <time>2024-06-04T23:05:03Z</time>
      </trkpt>
      <trkpt lat="44.92207" lon="5.80686">
        <ele>884</ele>
        <time>2024-06-04T23:05:11Z</time>
      </trkpt>
      <trkpt lat="44.92187" lon="5.80689">
        <ele>883</ele>
        <time>2024-06-04T23:05:15Z</time>
      </trkpt>
      <trkpt lat="44.92168" lon="5.80683">
        <ele>884</ele>
        <time>2024-06-04T23:05:18Z</time>
      </trkpt>
      <trkpt lat="44.92152" lon="5.80673">
        <ele>884</ele>
        <time>2024-06-04T23:05:21Z</time>
      </trkpt>
      <trkpt lat="44.92086" lon="5.80612">
        <ele>881</ele>
        <time>2024-06-04T23:05:35Z</time>
      </trkpt>
      <trkpt lat="44.9204" lon="5.80567">
        <ele>880</ele>
        <time>2024-06-04T23:05:45Z</time>
      </trkpt>
      <trkpt lat="44.91612" lon="5.80165">
        <ele>870</ele>
        <time>2024-06-04T23:07:17Z</time>
      </trkpt>
      <trkpt lat="44.91494" lon="5.80058">
        <ele>863</ele>
        <time>2024-06-04T23:07:42Z</time>
      </trkpt>
      <trkpt lat="44.91411" lon="5.79979">
        <ele>864</ele>
        <time>2024-06-04T23:08:00Z</time>
      </trkpt>
      <trkpt lat="44.91401" lon="5.79972">
        <ele>864</ele>
        <time>2024-06-04T23:08:02Z</time>
      </trkpt>
      <trkpt lat="44.91386" lon="5.79971">
        <ele>863</ele>
        <time>2024-06-04T23:08:04Z</time>
      </trkpt>
      <trkpt lat="44.91404" lon="5.80006">
        <ele>862</ele>
        <time>2024-06-04T23:08:10Z</time>
      </trkpt>
      <trkpt lat="44.91416" lon="5.80022">
        <ele>861</ele>
        <time>2024-06-04T23:08:13Z</time>
      </trkpt>
      <trkpt lat="44.9144" lon="5.80051">
        <ele>861</ele>
        <time>2024-06-04T23:08:18Z</time>
      </trkpt>
      <trkpt lat="44.91489" lon="5.80104">
        <ele>860</ele>
        <time>2024-06-04T23:08:29Z</time>
      </trkpt>
      <trkpt lat="44.91516" lon="5.80139">
        <ele>861</ele>
        <time>2024-06-04T23:08:36Z</time>
      </trkpt>
      <trkpt lat="44.91526" lon="5.80167">
        <ele>860</ele>
        <time>2024-06-04T23:08:40Z</time>
      </trkpt>
      <trkpt lat="44.9154" lon="5.80235">
        <ele>860</ele>
        <time>2024-06-04T23:08:49Z</time>
      </trkpt>
      <trkpt lat="44.91579" lon="5.80447">
        <ele>857</ele>
        <time>2024-06-04T23:09:16Z</time>
      </trkpt>
      <trkpt lat="44.91591" lon="5.80495">
        <ele>858</ele>
        <time>2024-06-04T23:09:23Z</time>
      </trkpt>
      <trkpt lat="44.91601" lon="5.80522">
        <ele>858</ele>
        <time>2024-06-04T23:09:27Z</time>
      </trkpt>
      <trkpt lat="44.91642" lon="5.80621">
        <ele>854</ele>
        <time>2024-06-04T23:09:41Z</time>
      </trkpt>
      <trkpt lat="44.91657" lon="5.80644">
        <ele>852</ele>
        <time>2024-06-04T23:09:45Z</time>
      </trkpt>
      <trkpt lat="44.91679" lon="5.8066">
        <ele>851</ele>
        <time>2024-06-04T23:09:49Z</time>
      </trkpt>
      <trkpt lat="44.91716" lon="5.80677">
        <ele>850</ele>
        <time>2024-06-04T23:09:56Z</time>
      </trkpt>
      <trkpt lat="44.9183" lon="5.8071">
        <ele>850</ele>
        <time>2024-06-04T23:10:17Z</time>
      </trkpt>
      <trkpt lat="44.91854" lon="5.8072">
        <ele>851</ele>
        <time>2024-06-04T23:10:21Z</time>
      </trkpt>
      <trkpt lat="44.91894" lon="5.80746">
        <ele>851</ele>
        <time>2024-06-04T23:10:29Z</time>
      </trkpt>
      <trkpt lat="44.91963" lon="5.80785">
        <ele>848</ele>
        <time>2024-06-04T23:10:42Z</time>
      </trkpt>
      <trkpt lat="44.92001" lon="5.80801">
        <ele>847</ele>
        <time>2024-06-04T23:10:50Z</time>
      </trkpt>
      <trkpt lat="44.92072" lon="5.80811">
        <ele>846</ele>
        <time>2024-06-04T23:11:02Z</time>
      </trkpt>
      <trkpt lat="44.92123" lon="5.80831">
        <ele>843</ele>
        <time>2024-06-04T23:11:12Z</time>
      </trkpt>
      <trkpt lat="44.92144" lon="5.80835">
        <ele>842</ele>
        <time>2024-06-04T23:11:15Z</time>
      </trkpt>
      <trkpt lat="44.92198" lon="5.80839">
        <ele>844</ele>
        <time>2024-06-04T23:11:25Z</time>
      </trkpt>
      <trkpt lat="44.92211" lon="5.80843">
        <ele>845</ele>
        <time>2024-06-04T23:11:27Z</time>
      </trkpt>
      <trkpt lat="44.9222" lon="5.8085">
        <ele>845</ele>
        <time>2024-06-04T23:11:29Z</time>
      </trkpt>
      <trkpt lat="44.92231" lon="5.80868">
        <ele>846</ele>
        <time>2024-06-04T23:11:32Z</time>
      </trkpt>
      <trkpt lat="44.92235" lon="5.80882">
        <ele>847</ele>
        <time>2024-06-04T23:11:34Z</time>
      </trkpt>
      <trkpt lat="44.92236" lon="5.80891">
        <ele>847</ele>
        <time>2024-06-04T23:11:35Z</time>
      </trkpt>
      <trkpt lat="44.92234" lon="5.80903">
        <ele>847</ele>
        <time>2024-06-04T23:11:37Z</time>
      </trkpt>
      <trkpt lat="44.92229" lon="5.80914">
        <ele>846</ele>
        <time>2024-06-04T23:11:38Z</time>
      </trkpt>
      <trkpt lat="44.92222" lon="5.80921">
        <ele>846</ele>
        <time>2024-06-04T23:11:40Z</time>
      </trkpt>
      <trkpt lat="44.91972" lon="5.81091">
        <ele>839</ele>
        <time>2024-06-04T23:12:29Z</time>
      </trkpt>
      <trkpt lat="44.9196" lon="5.81094">
        <ele>839</ele>
        <time>2024-06-04T23:12:32Z</time>
      </trkpt>
      <trkpt lat="44.91755" lon="5.81129">
        <ele>837</ele>
        <time>2024-06-04T23:13:08Z</time>
      </trkpt>
      <trkpt lat="44.91712" lon="5.81167">
        <ele>842</ele>
        <time>2024-06-04T23:13:17Z</time>
      </trkpt>
      <trkpt lat="44.91601" lon="5.81326">
        <ele>832</ele>
        <time>2024-06-04T23:13:45Z</time>
      </trkpt>
      <trkpt lat="44.91525" lon="5.81427">
        <ele>825</ele>
        <time>2024-06-04T23:14:04Z</time>
      </trkpt>
      <trkpt lat="44.91477" lon="5.81534">
        <ele>822</ele>
        <time>2024-06-04T23:14:20Z</time>
      </trkpt>
      <trkpt lat="44.9141" lon="5.81657">
        <ele>830</ele>
        <time>2024-06-04T23:14:40Z</time>
      </trkpt>
      <trkpt lat="44.91392" lon="5.81681">
        <ele>831</ele>
        <time>2024-06-04T23:14:44Z</time>
      </trkpt>
      <trkpt lat="44.91325" lon="5.8174">
        <ele>830</ele>
        <time>2024-06-04T23:14:58Z</time>
      </trkpt>
      <trkpt lat="44.91308" lon="5.81763">
        <ele>828</ele>
        <time>2024-06-04T23:15:02Z</time>
      </trkpt>
      <trkpt lat="44.91303" lon="5.81774">
        <ele>827</ele>
        <time>2024-06-04T23:15:04Z</time>
      </trkpt>
      <trkpt lat="44.91301" lon="5.81788">
        <ele>827</ele>
        <time>2024-06-04T23:15:06Z</time>
      </trkpt>
      <trkpt lat="44.91302" lon="5.81813">
        <ele>825</ele>
        <time>2024-06-04T23:15:09Z</time>
      </trkpt>
      <trkpt lat="44.91306" lon="5.81825">
        <ele>825</ele>
        <time>2024-06-04T23:15:10Z</time>
      </trkpt>
      <trkpt lat="44.91313" lon="5.81836">
        <ele>824</ele>
        <time>2024-06-04T23:15:12Z</time>
      </trkpt>
      <trkpt lat="44.91327" lon="5.81849">
        <ele>822</ele>
        <time>2024-06-04T23:15:15Z</time>
      </trkpt>
      <trkpt lat="44.91337" lon="5.81853">
        <ele>821</ele>
        <time>2024-06-04T23:15:17Z</time>
      </trkpt>
      <trkpt lat="44.91392" lon="5.81857">
        <ele>824</ele>
        <time>2024-06-04T23:15:27Z</time>
      </trkpt>
      <trkpt lat="44.9142" lon="5.81866">
        <ele>824</ele>
        <time>2024-06-04T23:15:32Z</time>
      </trkpt>
      <trkpt lat="44.91452" lon="5.81883">
        <ele>825</ele>
        <time>2024-06-04T23:15:38Z</time>
      </trkpt>
      <trkpt lat="44.91473" lon="5.81907">
        <ele>825</ele>
        <time>2024-06-04T23:15:43Z</time>
      </trkpt>
      <trkpt lat="44.91475" lon="5.81931">
        <ele>821</ele>
        <time>2024-06-04T23:15:46Z</time>
      </trkpt>
      <trkpt lat="44.9148" lon="5.81941">
        <ele>820</ele>
        <time>2024-06-04T23:15:48Z</time>
      </trkpt>
      <trkpt lat="44.91507" lon="5.81982">
        <ele>817</ele>
        <time>2024-06-04T23:15:55Z</time>
      </trkpt>
      <trkpt lat="44.91521" lon="5.82015">
        <ele>816</ele>
        <time>2024-06-04T23:15:59Z</time>
      </trkpt>
      <trkpt lat="44.91527" lon="5.82039">
        <ele>815</ele>
        <time>2024-06-04T23:16:03Z</time>
      </trkpt>
      <trkpt lat="44.91532" lon="5.82094">
        <ele>809</ele>
        <time>2024-06-04T23:16:10Z</time>
      </trkpt>
      <trkpt lat="44.91531" lon="5.82108">
        <ele>808</ele>
        <time>2024-06-04T23:16:11Z</time>
      </trkpt>
      <trkpt lat="44.91523" lon="5.82128">
        <ele>804</ele>
        <time>2024-06-04T23:16:14Z</time>
      </trkpt>
      <trkpt lat="44.91521" lon="5.82147">
        <ele>802</ele>
        <time>2024-06-04T23:16:17Z</time>
      </trkpt>
      <trkpt lat="44.91522" lon="5.82167">
        <ele>800</ele>
        <time>2024-06-04T23:16:19Z</time>
      </trkpt>
      <trkpt lat="44.91522" lon="5.82181">
        <ele>799</ele>
        <time>2024-06-04T23:16:21Z</time>
      </trkpt>
      <trkpt lat="44.91525" lon="5.82196">
        <ele>798</ele>
        <time>2024-06-04T23:16:23Z</time>
      </trkpt>
      <trkpt lat="44.91522" lon="5.82197">
        <ele>797</ele>
        <time>2024-06-04T23:16:24Z</time>
      </trkpt>
      <trkpt lat="44.91512" lon="5.82193">
        <ele>795</ele>
        <time>2024-06-04T23:16:25Z</time>
      </trkpt>
      <trkpt lat="44.91501" lon="5.82193">
        <ele>793</ele>
        <time>2024-06-04T23:16:27Z</time>
      </trkpt>
      <trkpt lat="44.91461" lon="5.82177">
        <ele>787</ele>
        <time>2024-06-04T23:16:35Z</time>
      </trkpt>
      <trkpt lat="44.91453" lon="5.82148">
        <ele>787</ele>
        <time>2024-06-04T23:16:39Z</time>
      </trkpt>
      <trkpt lat="44.91454" lon="5.82164">
        <ele>786</ele>
        <time>2024-06-04T23:16:41Z</time>
      </trkpt>
      <trkpt lat="44.9145" lon="5.82193">
        <ele>783</ele>
        <time>2024-06-04T23:16:44Z</time>
      </trkpt>
      <trkpt lat="44.91456" lon="5.82239">
        <ele>780</ele>
        <time>2024-06-04T23:16:50Z</time>
      </trkpt>
      <trkpt lat="44.91459" lon="5.8227">
        <ele>778</ele>
        <time>2024-06-04T23:16:54Z</time>
      </trkpt>
      <trkpt lat="44.91457" lon="5.8228">
        <ele>777</ele>
        <time>2024-06-04T23:16:56Z</time>
      </trkpt>
      <trkpt lat="44.91451" lon="5.82283">
        <ele>776</ele>
        <time>2024-06-04T23:16:57Z</time>
      </trkpt>
      <trkpt lat="44.91468" lon="5.82358">
        <ele>774</ele>
        <time>2024-06-04T23:17:07Z</time>
      </trkpt>
      <trkpt lat="44.91473" lon="5.82388">
        <ele>772</ele>
        <time>2024-06-04T23:17:10Z</time>
      </trkpt>
      <trkpt lat="44.91473" lon="5.82417">
        <ele>770</ele>
        <time>2024-06-04T23:17:14Z</time>
      </trkpt>
      <trkpt lat="44.91468" lon="5.82456">
        <ele>768</ele>
        <time>2024-06-04T23:17:19Z</time>
      </trkpt>
      <trkpt lat="44.91438" lon="5.82606">
        <ele>757</ele>
        <time>2024-06-04T23:17:39Z</time>
      </trkpt>
      <trkpt lat="44.91437" lon="5.82637">
        <ele>756</ele>
        <time>2024-06-04T23:17:43Z</time>
      </trkpt>
      <trkpt lat="44.91438" lon="5.82661">
        <ele>755</ele>
        <time>2024-06-04T23:17:46Z</time>
      </trkpt>
      <trkpt lat="44.91442" lon="5.82688">
        <ele>754</ele>
        <time>2024-06-04T23:17:49Z</time>
      </trkpt>
      <trkpt lat="44.91445" lon="5.82701">
        <ele>754</ele>
        <time>2024-06-04T23:17:51Z</time>
      </trkpt>
      <trkpt lat="44.91453" lon="5.8272">
        <ele>755</ele>
        <time>2024-06-04T23:17:54Z</time>
      </trkpt>
      <trkpt lat="44.91459" lon="5.82734">
        <ele>755</ele>
        <time>2024-06-04T23:17:56Z</time>
      </trkpt>
      <trkpt lat="44.91463" lon="5.82751">
        <ele>755</ele>
        <time>2024-06-04T23:17:58Z</time>
      </trkpt>
      <trkpt lat="44.91466" lon="5.82772">
        <ele>754</ele>
        <time>2024-06-04T23:18:01Z</time>
      </trkpt>
      <trkpt lat="44.91466" lon="5.82794">
        <ele>751</ele>
        <time>2024-06-04T23:18:03Z</time>
      </trkpt>
      <trkpt lat="44.91462" lon="5.82819">
        <ele>747</ele>
        <time>2024-06-04T23:18:07Z</time>
      </trkpt>
      <trkpt lat="44.9145" lon="5.8285">
        <ele>738</ele>
        <time>2024-06-04T23:18:11Z</time>
      </trkpt>
      <trkpt lat="44.91377" lon="5.82964">
        <ele>718</ele>
        <time>2024-06-04T23:18:31Z</time>
      </trkpt>
      <trkpt lat="44.91362" lon="5.82981">
        <ele>723</ele>
        <time>2024-06-04T23:18:34Z</time>
      </trkpt>
      <trkpt lat="44.91341" lon="5.82994">
        <ele>733</ele>
        <time>2024-06-04T23:18:38Z</time>
      </trkpt>
      <trkpt lat="44.91323" lon="5.82999">
        <ele>738</ele>
        <time>2024-06-04T23:18:41Z</time>
      </trkpt>
      <trkpt lat="44.91288" lon="5.82998">
        <ele>741</ele>
        <time>2024-06-04T23:18:48Z</time>
      </trkpt>
      <trkpt lat="44.91254" lon="5.82994">
        <ele>744</ele>
        <time>2024-06-04T23:18:54Z</time>
      </trkpt>
      <trkpt lat="44.91242" lon="5.82997">
        <ele>745</ele>
        <time>2024-06-04T23:18:56Z</time>
      </trkpt>
      <trkpt lat="44.91193" lon="5.83023">
        <ele>746</ele>
        <time>2024-06-04T23:19:05Z</time>
      </trkpt>
      <trkpt lat="44.91055" lon="5.83067">
        <ele>763</ele>
        <time>2024-06-04T23:19:30Z</time>
      </trkpt>
      <trkpt lat="44.91026" lon="5.83068">
        <ele>765</ele>
        <time>2024-06-04T23:19:35Z</time>
      </trkpt>
      <trkpt lat="44.90997" lon="5.83056">
        <ele>764</ele>
        <time>2024-06-04T23:19:41Z</time>
      </trkpt>
      <trkpt lat="44.90956" lon="5.8303">
        <ele>765</ele>
        <time>2024-06-04T23:19:49Z</time>
      </trkpt>
      <trkpt lat="44.90865" lon="5.82975">
        <ele>777</ele>
        <time>2024-06-04T23:20:06Z</time>
      </trkpt>
      <trkpt lat="44.90849" lon="5.82962">
        <ele>780</ele>
        <time>2024-06-04T23:20:10Z</time>
      </trkpt>
      <trkpt lat="44.90827" lon="5.82935">
        <ele>781</ele>
        <time>2024-06-04T23:20:15Z</time>
      </trkpt>
      <trkpt lat="44.9082" lon="5.8292">
        <ele>780</ele>
        <time>2024-06-04T23:20:17Z</time>
      </trkpt>
      <trkpt lat="44.90805" lon="5.82869">
        <ele>777</ele>
        <time>2024-06-04T23:20:24Z</time>
      </trkpt>
      <trkpt lat="44.90798" lon="5.82829">
        <ele>776</ele>
        <time>2024-06-04T23:20:29Z</time>
      </trkpt>
      <trkpt lat="44.9078" lon="5.82796">
        <ele>777</ele>
        <time>2024-06-04T23:20:35Z</time>
      </trkpt>
      <trkpt lat="44.90768" lon="5.82782">
        <ele>779</ele>
        <time>2024-06-04T23:20:37Z</time>
      </trkpt>
      <trkpt lat="44.90755" lon="5.82774">
        <ele>782</ele>
        <time>2024-06-04T23:20:40Z</time>
      </trkpt>
      <trkpt lat="44.90737" lon="5.82771">
        <ele>784</ele>
        <time>2024-06-04T23:20:43Z</time>
      </trkpt>
      <trkpt lat="44.90721" lon="5.82774">
        <ele>784</ele>
        <time>2024-06-04T23:20:46Z</time>
      </trkpt>
      <trkpt lat="44.90699" lon="5.82792">
        <ele>785</ele>
        <time>2024-06-04T23:20:50Z</time>
      </trkpt>
      <trkpt lat="44.90687" lon="5.82806">
        <ele>785</ele>
        <time>2024-06-04T23:20:53Z</time>
      </trkpt>
      <trkpt lat="44.90622" lon="5.82932">
        <ele>781</ele>
        <time>2024-06-04T23:21:13Z</time>
      </trkpt>
      <trkpt lat="44.90561" lon="5.83014">
        <ele>775</ele>
        <time>2024-06-04T23:21:28Z</time>
      </trkpt>
      <trkpt lat="44.905" lon="5.83092">
        <ele>766</ele>
        <time>2024-06-04T23:21:42Z</time>
      </trkpt>
      <trkpt lat="44.9045" lon="5.83135">
        <ele>760</ele>
        <time>2024-06-04T23:21:53Z</time>
      </trkpt>
      <trkpt lat="44.90436" lon="5.8315">
        <ele>760</ele>
        <time>2024-06-04T23:21:56Z</time>
      </trkpt>
      <trkpt lat="44.90416" lon="5.83188">
        <ele>760</ele>
        <time>2024-06-04T23:22:02Z</time>
      </trkpt>
      <trkpt lat="44.90408" lon="5.83215">
        <ele>758</ele>
        <time>2024-06-04T23:22:06Z</time>
      </trkpt>
      <trkpt lat="44.90394" lon="5.83287">
        <ele>755</ele>
        <time>2024-06-04T23:22:15Z</time>
      </trkpt>
      <trkpt lat="44.90386" lon="5.83316">
        <ele>753</ele>
        <time>2024-06-04T23:22:19Z</time>
      </trkpt>
      <trkpt lat="44.9038" lon="5.83332">
        <ele>752</ele>
        <time>2024-06-04T23:22:21Z</time>
      </trkpt>
      <trkpt lat="44.90362" lon="5.83358">
        <ele>749</ele>
        <time>2024-06-04T23:22:26Z</time>
      </trkpt>
      <trkpt lat="44.9032" lon="5.83408">
        <ele>745</ele>
        <time>2024-06-04T23:22:36Z</time>
      </trkpt>
      <trkpt lat="44.90313" lon="5.83421">
        <ele>744</ele>
        <time>2024-06-04T23:22:38Z</time>
      </trkpt>
      <trkpt lat="44.90305" lon="5.83441">
        <ele>743</ele>
        <time>2024-06-04T23:22:41Z</time>
      </trkpt>
      <trkpt lat="44.90302" lon="5.83464">
        <ele>744</ele>
        <time>2024-06-04T23:22:44Z</time>
      </trkpt>
      <trkpt lat="44.90303" lon="5.83493">
        <ele>747</ele>
        <time>2024-06-04T23:22:47Z</time>
      </trkpt>
      <trkpt lat="44.90313" lon="5.83555">
        <ele>749</ele>
        <time>2024-06-04T23:22:55Z</time>
      </trkpt>
      <trkpt lat="44.90312" lon="5.8363">
        <ele>748</ele>
        <time>2024-06-04T23:23:05Z</time>
      </trkpt>
      <trkpt lat="44.90296" lon="5.83697">
        <ele>746</ele>
        <time>2024-06-04T23:23:14Z</time>
      </trkpt>
      <trkpt lat="44.90266" lon="5.83797">
        <ele>743</ele>
        <time>2024-06-04T23:23:27Z</time>
      </trkpt>
      <trkpt lat="44.90238" lon="5.83881">
        <ele>741</ele>
        <time>2024-06-04T23:23:39Z</time>
      </trkpt>
      <trkpt lat="44.90169" lon="5.84103">
        <ele>735</ele>
        <time>2024-06-04T23:24:10Z</time>
      </trkpt>
      <trkpt lat="44.90163" lon="5.84146">
        <ele>733</ele>
        <time>2024-06-04T23:24:15Z</time>
      </trkpt>
      <trkpt lat="44.90167" lon="5.84187">
        <ele>732</ele>
        <time>2024-06-04T23:24:20Z</time>
      </trkpt>
      <trkpt lat="44.90185" lon="5.84246">
        <ele>732</ele>
        <time>2024-06-04T23:24:28Z</time>
      </trkpt>
      <trkpt lat="44.90201" lon="5.8431">
        <ele>733</ele>
        <time>2024-06-04T23:24:37Z</time>
      </trkpt>
      <trkpt lat="44.90216" lon="5.84381">
        <ele>734</ele>
        <time>2024-06-04T23:24:46Z</time>
      </trkpt>
      <trkpt lat="44.9022" lon="5.84445">
        <ele>735</ele>
        <time>2024-06-04T23:24:54Z</time>
      </trkpt>
      <trkpt lat="44.90211" lon="5.84492">
        <ele>733</ele>
        <time>2024-06-04T23:25:00Z</time>
      </trkpt>
      <trkpt lat="44.90187" lon="5.84525">
        <ele>731</ele>
        <time>2024-06-04T23:25:06Z</time>
      </trkpt>
      <trkpt lat="44.90134" lon="5.84553">
        <ele>726</ele>
        <time>2024-06-04T23:25:17Z</time>
      </trkpt>
      <trkpt lat="44.90105" lon="5.84567">
        <ele>723</ele>
        <time>2024-06-04T23:25:22Z</time>
      </trkpt>
      <trkpt lat="44.90085" lon="5.84593">
        <ele>723</ele>
        <time>2024-06-04T23:25:27Z</time>
      </trkpt>
      <trkpt lat="44.90056" lon="5.84642">
        <ele>729</ele>
        <time>2024-06-04T23:25:35Z</time>
      </trkpt>
      <trkpt lat="44.9003" lon="5.84664">
        <ele>727</ele>
        <time>2024-06-04T23:25:40Z</time>
      </trkpt>
      <trkpt lat="44.89994" lon="5.84672">
        <ele>722</ele>
        <time>2024-06-04T23:25:47Z</time>
      </trkpt>
      <trkpt lat="44.89927" lon="5.8466">
        <ele>721</ele>
        <time>2024-06-04T23:25:59Z</time>
      </trkpt>
      <trkpt lat="44.8989" lon="5.84669">
        <ele>719</ele>
        <time>2024-06-04T23:26:05Z</time>
      </trkpt>
      <trkpt lat="44.89859" lon="5.84699">
        <ele>717</ele>
        <time>2024-06-04T23:26:12Z</time>
      </trkpt>
      <trkpt lat="44.89845" lon="5.8473">
        <ele>716</ele>
        <time>2024-06-04T23:26:17Z</time>
      </trkpt>
      <trkpt lat="44.89774" lon="5.84944">
        <ele>714</ele>
        <time>2024-06-04T23:26:47Z</time>
      </trkpt>
      <trkpt lat="44.89759" lon="5.84976">
        <ele>714</ele>
        <time>2024-06-04T23:26:51Z</time>
      </trkpt>
      <trkpt lat="44.89734" lon="5.85003">
        <ele>712</ele>
        <time>2024-06-04T23:26:57Z</time>
      </trkpt>
      <trkpt lat="44.89701" lon="5.85031">
        <ele>710</ele>
        <time>2024-06-04T23:27:04Z</time>
      </trkpt>
      <trkpt lat="44.89684" lon="5.85057">
        <ele>709</ele>
        <time>2024-06-04T23:27:08Z</time>
      </trkpt>
      <trkpt lat="44.89677" lon="5.85075">
        <ele>708</ele>
        <time>2024-06-04T23:27:11Z</time>
      </trkpt>
      <trkpt lat="44.89631" lon="5.8522">
        <ele>704</ele>
        <time>2024-06-04T23:27:31Z</time>
      </trkpt>
      <trkpt lat="44.89623" lon="5.85258">
        <ele>702</ele>
        <time>2024-06-04T23:27:36Z</time>
      </trkpt>
      <trkpt lat="44.89615" lon="5.8538">
        <ele>696</ele>
        <time>2024-06-04T23:27:51Z</time>
      </trkpt>
      <trkpt lat="44.89616" lon="5.85415">
        <ele>696</ele>
        <time>2024-06-04T23:27:56Z</time>
      </trkpt>
      <trkpt lat="44.89623" lon="5.85445">
        <ele>697</ele>
        <time>2024-06-04T23:28:00Z</time>
      </trkpt>
      <trkpt lat="44.89632" lon="5.85514">
        <ele>698</ele>
        <time>2024-06-04T23:28:09Z</time>
      </trkpt>
      <trkpt lat="44.89628" lon="5.85613">
        <ele>694</ele>
        <time>2024-06-04T23:28:21Z</time>
      </trkpt>
      <trkpt lat="44.89629" lon="5.85652">
        <ele>693</ele>
        <time>2024-06-04T23:28:26Z</time>
      </trkpt>
      <trkpt lat="44.89631" lon="5.85659">
        <ele>693</ele>
        <time>2024-06-04T23:28:27Z</time>
      </trkpt>
      <trkpt lat="44.89645" lon="5.85692">
        <ele>693</ele>
        <time>2024-06-04T23:28:32Z</time>
      </trkpt>
      <trkpt lat="44.89657" lon="5.85705">
        <ele>695</ele>
        <time>2024-06-04T23:28:34Z</time>
      </trkpt>
      <trkpt lat="44.89697" lon="5.8573">
        <ele>702</ele>
        <time>2024-06-04T23:28:42Z</time>
      </trkpt>
      <trkpt lat="44.89724" lon="5.85752">
        <ele>705</ele>
        <time>2024-06-04T23:28:48Z</time>
      </trkpt>
      <trkpt lat="44.89751" lon="5.85786">
        <ele>704</ele>
        <time>2024-06-04T23:28:54Z</time>
      </trkpt>
      <trkpt lat="44.89784" lon="5.85869">
        <ele>701</ele>
        <time>2024-06-04T23:29:06Z</time>
      </trkpt>
      <trkpt lat="44.89856" lon="5.8607">
        <ele>692</ele>
        <time>2024-06-04T23:29:35Z</time>
      </trkpt>
      <trkpt lat="44.89899" lon="5.86139">
        <ele>696</ele>
        <time>2024-06-04T23:29:46Z</time>
      </trkpt>
      <trkpt lat="44.89925" lon="5.86195">
        <ele>695</ele>
        <time>2024-06-04T23:29:55Z</time>
      </trkpt>
      <trkpt lat="44.89946" lon="5.86267">
        <ele>698</ele>
        <time>2024-06-04T23:30:04Z</time>
      </trkpt>
      <trkpt lat="44.89957" lon="5.86353">
        <ele>702</ele>
        <time>2024-06-04T23:30:15Z</time>
      </trkpt>
      <trkpt lat="44.89955" lon="5.8639">
        <ele>702</ele>
        <time>2024-06-04T23:30:20Z</time>
      </trkpt>
      <trkpt lat="44.89938" lon="5.8643">
        <ele>698</ele>
        <time>2024-06-04T23:30:26Z</time>
      </trkpt>
      <trkpt lat="44.89916" lon="5.86472">
        <ele>698</ele>
        <time>2024-06-04T23:30:33Z</time>
      </trkpt>
      <trkpt lat="44.8983" lon="5.86532">
        <ele>684</ele>
        <time>2024-06-04T23:30:50Z</time>
      </trkpt>
      <trkpt lat="44.89773" lon="5.86619">
        <ele>689</ele>
        <time>2024-06-04T23:31:05Z</time>
      </trkpt>
      <trkpt lat="44.89704" lon="5.86701">
        <ele>689</ele>
        <time>2024-06-04T23:31:21Z</time>
      </trkpt>
      <trkpt lat="44.89664" lon="5.86744">
        <ele>684</ele>
        <time>2024-06-04T23:31:30Z</time>
      </trkpt>
      <trkpt lat="44.89617" lon="5.86807">
        <ele>689</ele>
        <time>2024-06-04T23:31:41Z</time>
      </trkpt>
      <trkpt lat="44.89572" lon="5.86851">
        <ele>686</ele>
        <time>2024-06-04T23:31:51Z</time>
      </trkpt>
      <trkpt lat="44.89496" lon="5.86894">
        <ele>680</ele>
        <time>2024-06-04T23:32:05Z</time>
      </trkpt>
      <trkpt lat="44.89468" lon="5.86915">
        <ele>681</ele>
        <time>2024-06-04T23:32:11Z</time>
      </trkpt>
      <trkpt lat="44.89456" lon="5.86931">
        <ele>683</ele>
        <time>2024-06-04T23:32:14Z</time>
      </trkpt>
      <trkpt lat="44.89425" lon="5.86991">
        <ele>682</ele>
        <time>2024-06-04T23:32:23Z</time>
      </trkpt>
      <trkpt lat="44.89387" lon="5.87036">
        <ele>685</ele>
        <time>2024-06-04T23:32:32Z</time>
      </trkpt>
      <trkpt lat="44.89336" lon="5.87086">
        <ele>680</ele>
        <time>2024-06-04T23:32:43Z</time>
      </trkpt>
      <trkpt lat="44.89326" lon="5.87104">
        <ele>684</ele>
        <time>2024-06-04T23:32:46Z</time>
      </trkpt>
      <trkpt lat="44.89292" lon="5.87205">
        <ele>695</ele>
        <time>2024-06-04T23:33:00Z</time>
      </trkpt>
      <trkpt lat="44.89262" lon="5.87305">
        <ele>694</ele>
        <time>2024-06-04T23:33:14Z</time>
      </trkpt>
      <trkpt lat="44.8925" lon="5.87337">
        <ele>689</ele>
        <time>2024-06-04T23:33:19Z</time>
      </trkpt>
      <trkpt lat="44.89239" lon="5.87355">
        <ele>693</ele>
        <time>2024-06-04T23:33:22Z</time>
      </trkpt>
      <trkpt lat="44.89209" lon="5.87397">
        <ele>697</ele>
        <time>2024-06-04T23:33:29Z</time>
      </trkpt>
      <trkpt lat="44.89171" lon="5.8744">
        <ele>692</ele>
        <time>2024-06-04T23:33:38Z</time>
      </trkpt>
      <trkpt lat="44.89156" lon="5.8746">
        <ele>694</ele>
        <time>2024-06-04T23:33:41Z</time>
      </trkpt>
      <trkpt lat="44.89145" lon="5.87487">
        <ele>697</ele>
        <time>2024-06-04T23:33:45Z</time>
      </trkpt>
      <trkpt lat="44.89143" lon="5.87503">
        <ele>698</ele>
        <time>2024-06-04T23:33:47Z</time>
      </trkpt>
      <trkpt lat="44.89142" lon="5.87552">
        <ele>698</ele>
        <time>2024-06-04T23:33:54Z</time>
      </trkpt>
      <trkpt lat="44.89147" lon="5.87621">
        <ele>700</ele>
        <time>2024-06-04T23:34:02Z</time>
      </trkpt>
      <trkpt lat="44.89156" lon="5.87709">
        <ele>699</ele>
        <time>2024-06-04T23:34:13Z</time>
      </trkpt>
      <trkpt lat="44.89161" lon="5.87736">
        <ele>698</ele>
        <time>2024-06-04T23:34:17Z</time>
      </trkpt>
      <trkpt lat="44.89177" lon="5.87796">
        <ele>703</ele>
        <time>2024-06-04T23:34:25Z</time>
      </trkpt>
      <trkpt lat="44.89181" lon="5.87819">
        <ele>705</ele>
        <time>2024-06-04T23:34:28Z</time>
      </trkpt>
      <trkpt lat="44.89188" lon="5.87988">
        <ele>706</ele>
        <time>2024-06-04T23:34:49Z</time>
      </trkpt>
      <trkpt lat="44.89185" lon="5.88062">
        <ele>704</ele>
        <time>2024-06-04T23:34:59Z</time>
      </trkpt>
      <trkpt lat="44.8918" lon="5.88107">
        <ele>701</ele>
        <time>2024-06-04T23:35:04Z</time>
      </trkpt>
      <trkpt lat="44.89176" lon="5.88185">
        <ele>699</ele>
        <time>2024-06-04T23:35:14Z</time>
      </trkpt>
      <trkpt lat="44.8918" lon="5.88215">
        <ele>700</ele>
        <time>2024-06-04T23:35:18Z</time>
      </trkpt>
      <trkpt lat="44.89185" lon="5.88233">
        <ele>701</ele>
        <time>2024-06-04T23:35:21Z</time>
      </trkpt>
      <trkpt lat="44.89196" lon="5.88252">
        <ele>704</ele>
        <time>2024-06-04T23:35:24Z</time>
      </trkpt>
      <trkpt lat="44.89245" lon="5.88321">
        <ele>714</ele>
        <time>2024-06-04T23:35:36Z</time>
      </trkpt>
      <trkpt lat="44.89263" lon="5.88354">
        <ele>719</ele>
        <time>2024-06-04T23:35:41Z</time>
      </trkpt>
      <trkpt lat="44.89271" lon="5.88373">
        <ele>721</ele>
        <time>2024-06-04T23:35:44Z</time>
      </trkpt>
      <trkpt lat="44.89294" lon="5.88477">
        <ele>721</ele>
        <time>2024-06-04T23:35:58Z</time>
      </trkpt>
      <trkpt lat="44.8935" lon="5.88627">
        <ele>729</ele>
        <time>2024-06-04T23:36:19Z</time>
      </trkpt>
      <trkpt lat="44.89497" lon="5.88969">
        <ele>746</ele>
        <time>2024-06-04T23:37:10Z</time>
      </trkpt>
      <trkpt lat="44.896" lon="5.8922">
        <ele>759</ele>
        <time>2024-06-04T23:37:46Z</time>
      </trkpt>
      <trkpt lat="44.89616" lon="5.89269">
        <ele>762</ele>
        <time>2024-06-04T23:37:53Z</time>
      </trkpt>
      <trkpt lat="44.8965" lon="5.89388">
        <ele>770</ele>
        <time>2024-06-04T23:38:09Z</time>
      </trkpt>
      <trkpt lat="44.89667" lon="5.89455">
        <ele>775</ele>
        <time>2024-06-04T23:38:18Z</time>
      </trkpt>
      <trkpt lat="44.89678" lon="5.89485">
        <ele>778</ele>
        <time>2024-06-04T23:38:22Z</time>
      </trkpt>
      <trkpt lat="44.89687" lon="5.89503">
        <ele>779</ele>
        <time>2024-06-04T23:38:25Z</time>
      </trkpt>
      <trkpt lat="44.89772" lon="5.89616">
        <ele>784</ele>
        <time>2024-06-04T23:38:46Z</time>
      </trkpt>
      <trkpt lat="44.89787" lon="5.89643">
        <ele>784</ele>
        <time>2024-06-04T23:38:50Z</time>
      </trkpt>
      <trkpt lat="44.89803" lon="5.89679">
        <ele>785</ele>
        <time>2024-06-04T23:38:56Z</time>
      </trkpt>
      <trkpt lat="44.8982" lon="5.89719">
        <ele>785</ele>
        <time>2024-06-04T23:39:01Z</time>
      </trkpt>
      <trkpt lat="44.89881" lon="5.899">
        <ele>788</ele>
        <time>2024-06-04T23:39:27Z</time>
      </trkpt>
      <trkpt lat="44.89885" lon="5.89916">
        <ele>788</ele>
        <time>2024-06-04T23:39:29Z</time>
      </trkpt>
      <trkpt lat="44.89905" lon="5.89967">
        <ele>790</ele>
        <time>2024-06-04T23:39:36Z</time>
      </trkpt>
      <trkpt lat="44.89934" lon="5.90051">
        <ele>793</ele>
        <time>2024-06-04T23:39:48Z</time>
      </trkpt>
      <trkpt lat="44.89941" lon="5.90084">
        <ele>794</ele>
        <time>2024-06-04T23:39:52Z</time>
      </trkpt>
      <trkpt lat="44.89943" lon="5.90126">
        <ele>793</ele>
        <time>2024-06-04T23:39:58Z</time>
      </trkpt>
      <trkpt lat="44.89938" lon="5.9018">
        <ele>791</ele>
        <time>2024-06-04T23:40:04Z</time>
      </trkpt>
      <trkpt lat="44.89938" lon="5.9022">
        <ele>791</ele>
        <time>2024-06-04T23:40:10Z</time>
      </trkpt>
      <trkpt lat="44.89947" lon="5.90272">
        <ele>791</ele>
        <time>2024-06-04T23:40:16Z</time>
      </trkpt>
      <trkpt lat="44.89966" lon="5.90316">
        <ele>794</ele>
        <time>2024-06-04T23:40:23Z</time>
      </trkpt>
      <trkpt lat="44.90007" lon="5.90468">
        <ele>793</ele>
        <time>2024-06-04T23:40:43Z</time>
      </trkpt>
      <trkpt lat="44.90012" lon="5.90491">
        <ele>793</ele>
        <time>2024-06-04T23:40:46Z</time>
      </trkpt>
      <trkpt lat="44.90025" lon="5.90577">
        <ele>790</ele>
        <time>2024-06-04T23:40:57Z</time>
      </trkpt>
      <trkpt lat="44.90029" lon="5.90594">
        <ele>790</ele>
        <time>2024-06-04T23:41:00Z</time>
      </trkpt>
      <trkpt lat="44.90025" lon="5.90766">
        <ele>789</ele>
        <time>2024-06-04T23:41:21Z</time>
      </trkpt>
      <trkpt lat="44.90025" lon="5.90849">
        <ele>788</ele>
        <time>2024-06-04T23:41:32Z</time>
      </trkpt>
      <trkpt lat="44.90023" lon="5.90977">
        <ele>784</ele>
        <time>2024-06-04T23:41:48Z</time>
      </trkpt>
      <trkpt lat="44.90016" lon="5.91009">
        <ele>784</ele>
        <time>2024-06-04T23:41:52Z</time>
      </trkpt>
      <trkpt lat="44.90009" lon="5.91027">
        <ele>784</ele>
        <time>2024-06-04T23:41:55Z</time>
      </trkpt>
      <trkpt lat="44.89993" lon="5.91053">
        <ele>784</ele>
        <time>2024-06-04T23:41:59Z</time>
      </trkpt>
      <trkpt lat="44.89823" lon="5.91259">
        <ele>779</ele>
        <time>2024-06-04T23:42:39Z</time>
      </trkpt>
      <trkpt lat="44.89804" lon="5.9129">
        <ele>779</ele>
        <time>2024-06-04T23:42:44Z</time>
      </trkpt>
      <trkpt lat="44.8979" lon="5.91317">
        <ele>778</ele>
        <time>2024-06-04T23:42:48Z</time>
      </trkpt>
      <trkpt lat="44.89783" lon="5.91336">
        <ele>778</ele>
        <time>2024-06-04T23:42:51Z</time>
      </trkpt>
      <trkpt lat="44.89773" lon="5.91377">
        <ele>777</ele>
        <time>2024-06-04T23:42:56Z</time>
      </trkpt>
      <trkpt lat="44.8977" lon="5.91396">
        <ele>776</ele>
        <time>2024-06-04T23:42:59Z</time>
      </trkpt>
      <trkpt lat="44.89771" lon="5.91457">
        <ele>776</ele>
        <time>2024-06-04T23:43:07Z</time>
      </trkpt>
      <trkpt lat="44.89769" lon="5.91473">
        <ele>775</ele>
        <time>2024-06-04T23:43:09Z</time>
      </trkpt>
      <trkpt lat="44.89765" lon="5.91488">
        <ele>774</ele>
        <time>2024-06-04T23:43:11Z</time>
      </trkpt>
      <trkpt lat="44.89758" lon="5.91499">
        <ele>773</ele>
        <time>2024-06-04T23:43:13Z</time>
      </trkpt>
      <trkpt lat="44.89749" lon="5.91507">
        <ele>772</ele>
        <time>2024-06-04T23:43:14Z</time>
      </trkpt>
      <trkpt lat="44.89738" lon="5.91513">
        <ele>771</ele>
        <time>2024-06-04T23:43:17Z</time>
      </trkpt>
      <trkpt lat="44.89693" lon="5.91526">
        <ele>766</ele>
        <time>2024-06-04T23:43:25Z</time>
      </trkpt>
      <trkpt lat="44.89683" lon="5.91531">
        <ele>764</ele>
        <time>2024-06-04T23:43:27Z</time>
      </trkpt>
      <trkpt lat="44.89674" lon="5.91538">
        <ele>763</ele>
        <time>2024-06-04T23:43:28Z</time>
      </trkpt>
      <trkpt lat="44.89669" lon="5.91547">
        <ele>762</ele>
        <time>2024-06-04T23:43:30Z</time>
      </trkpt>
      <trkpt lat="44.89667" lon="5.91558">
        <ele>761</ele>
        <time>2024-06-04T23:43:31Z</time>
      </trkpt>
      <trkpt lat="44.89667" lon="5.91573">
        <ele>761</ele>
        <time>2024-06-04T23:43:33Z</time>
      </trkpt>
      <trkpt lat="44.89672" lon="5.91605">
        <ele>761</ele>
        <time>2024-06-04T23:43:37Z</time>
      </trkpt>
      <trkpt lat="44.89675" lon="5.9162">
        <ele>760</ele>
        <time>2024-06-04T23:43:39Z</time>
      </trkpt>
      <trkpt lat="44.8968" lon="5.9163">
        <ele>760</ele>
        <time>2024-06-04T23:43:41Z</time>
      </trkpt>
      <trkpt lat="44.89712" lon="5.91658">
        <ele>765</ele>
        <time>2024-06-04T23:43:48Z</time>
      </trkpt>
      <trkpt lat="44.89722" lon="5.91669">
        <ele>766</ele>
        <time>2024-06-04T23:43:50Z</time>
      </trkpt>
      <trkpt lat="44.89728" lon="5.91682">
        <ele>766</ele>
        <time>2024-06-04T23:43:52Z</time>
      </trkpt>
      <trkpt lat="44.89732" lon="5.91693">
        <ele>767</ele>
        <time>2024-06-04T23:43:53Z</time>
      </trkpt>
      <trkpt lat="44.89732" lon="5.91705">
        <ele>766</ele>
        <time>2024-06-04T23:43:55Z</time>
      </trkpt>
      <trkpt lat="44.8973" lon="5.91718">
        <ele>764</ele>
        <time>2024-06-04T23:43:57Z</time>
      </trkpt>
      <trkpt lat="44.8972" lon="5.91757">
        <ele>759</ele>
        <time>2024-06-04T23:44:02Z</time>
      </trkpt>
      <trkpt lat="44.89719" lon="5.91768">
        <ele>758</ele>
        <time>2024-06-04T23:44:03Z</time>
      </trkpt>
      <trkpt lat="44.89722" lon="5.91783">
        <ele>758</ele>
        <time>2024-06-04T23:44:05Z</time>
      </trkpt>
      <trkpt lat="44.89777" lon="5.91927">
        <ele>759</ele>
        <time>2024-06-04T23:44:26Z</time>
      </trkpt>
      <trkpt lat="44.89812" lon="5.91996">
        <ele>759</ele>
        <time>2024-06-04T23:44:36Z</time>
      </trkpt>
      <trkpt lat="44.89831" lon="5.92051">
        <ele>757</ele>
        <time>2024-06-04T23:44:44Z</time>
      </trkpt>
      <trkpt lat="44.89835" lon="5.92067">
        <ele>756</ele>
        <time>2024-06-04T23:44:46Z</time>
      </trkpt>
      <trkpt lat="44.89838" lon="5.92092">
        <ele>755</ele>
        <time>2024-06-04T23:44:49Z</time>
      </trkpt>
      <trkpt lat="44.89837" lon="5.92161">
        <ele>751</ele>
        <time>2024-06-04T23:44:58Z</time>
      </trkpt>
      <trkpt lat="44.89835" lon="5.92178">
        <ele>750</ele>
        <time>2024-06-04T23:45:00Z</time>
      </trkpt>
      <trkpt lat="44.89809" lon="5.92254">
        <ele>746</ele>
        <time>2024-06-04T23:45:11Z</time>
      </trkpt>
      <trkpt lat="44.89802" lon="5.92287">
        <ele>745</ele>
        <time>2024-06-04T23:45:15Z</time>
      </trkpt>
      <trkpt lat="44.8978" lon="5.92424">
        <ele>742</ele>
        <time>2024-06-04T23:45:33Z</time>
      </trkpt>
      <trkpt lat="44.89774" lon="5.92441">
        <ele>741</ele>
        <time>2024-06-04T23:45:35Z</time>
      </trkpt>
      <trkpt lat="44.89754" lon="5.92477">
        <ele>738</ele>
        <time>2024-06-04T23:45:41Z</time>
      </trkpt>
      <trkpt lat="44.89728" lon="5.92516">
        <ele>738</ele>
        <time>2024-06-04T23:45:48Z</time>
      </trkpt>
      <trkpt lat="44.89713" lon="5.92537">
        <ele>738</ele>
        <time>2024-06-04T23:45:52Z</time>
      </trkpt>
      <trkpt lat="44.89678" lon="5.92574">
        <ele>737</ele>
        <time>2024-06-04T23:45:59Z</time>
      </trkpt>
      <trkpt lat="44.89639" lon="5.92635">
        <ele>742</ele>
        <time>2024-06-04T23:46:10Z</time>
      </trkpt>
      <trkpt lat="44.89632" lon="5.92646">
        <ele>744</ele>
        <time>2024-06-04T23:46:12Z</time>
      </trkpt>
      <trkpt lat="44.89627" lon="5.92659">
        <ele>747</ele>
        <time>2024-06-04T23:46:14Z</time>
      </trkpt>
      <trkpt lat="44.89626" lon="5.92667">
        <ele>748</ele>
        <time>2024-06-04T23:46:15Z</time>
      </trkpt>
      <trkpt lat="44.89627" lon="5.9268">
        <ele>750</ele>
        <time>2024-06-04T23:46:16Z</time>
      </trkpt>
      <trkpt lat="44.89645" lon="5.92715">
        <ele>751</ele>
        <time>2024-06-04T23:46:22Z</time>
      </trkpt>
      <trkpt lat="44.8973" lon="5.92837">
        <ele>750</ele>
        <time>2024-06-04T23:46:43Z</time>
      </trkpt>
      <trkpt lat="44.89773" lon="5.92893">
        <ele>750</ele>
        <time>2024-06-04T23:46:54Z</time>
      </trkpt>
      <trkpt lat="44.89938" lon="5.93181">
        <ele>759</ele>
        <time>2024-06-04T23:47:40Z</time>
      </trkpt>
      <trkpt lat="44.89969" lon="5.93226">
        <ele>759</ele>
        <time>2024-06-04T23:47:48Z</time>
      </trkpt>
      <trkpt lat="44.89978" lon="5.93244">
        <ele>759</ele>
        <time>2024-06-04T23:47:51Z</time>
      </trkpt>
      <trkpt lat="44.89993" lon="5.93317">
        <ele>763</ele>
        <time>2024-06-04T23:48:01Z</time>
      </trkpt>
      <trkpt lat="44.90009" lon="5.93433">
        <ele>770</ele>
        <time>2024-06-04T23:48:16Z</time>
      </trkpt>
      <trkpt lat="44.90013" lon="5.93506">
        <ele>771</ele>
        <time>2024-06-04T23:48:25Z</time>
      </trkpt>
      <trkpt lat="44.90011" lon="5.93549">
        <ele>770</ele>
        <time>2024-06-04T23:48:30Z</time>
      </trkpt>
      <trkpt lat="44.90003" lon="5.93589">
        <ele>769</ele>
        <time>2024-06-04T23:48:35Z</time>
      </trkpt>
      <trkpt lat="44.89979" lon="5.93675">
        <ele>771</ele>
        <time>2024-06-04T23:48:47Z</time>
      </trkpt>
      <trkpt lat="44.89964" lon="5.93738">
        <ele>775</ele>
        <time>2024-06-04T23:48:55Z</time>
      </trkpt>
      <trkpt lat="44.89919" lon="5.94031">
        <ele>777</ele>
        <time>2024-06-04T23:49:33Z</time>
      </trkpt>
      <trkpt lat="44.89924" lon="5.94069">
        <ele>777</ele>
        <time>2024-06-04T23:49:38Z</time>
      </trkpt>
      <trkpt lat="44.89988" lon="5.94258">
        <ele>777</ele>
        <time>2024-06-04T23:50:04Z</time>
      </trkpt>
      <trkpt lat="44.90012" lon="5.94303">
        <ele>781</ele>
        <time>2024-06-04T23:50:12Z</time>
      </trkpt>
      <trkpt lat="44.90024" lon="5.94342">
        <ele>784</ele>
        <time>2024-06-04T23:50:17Z</time>
      </trkpt>
      <trkpt lat="44.90033" lon="5.94383">
        <ele>785</ele>
        <time>2024-06-04T23:50:22Z</time>
      </trkpt>
      <trkpt lat="44.9003" lon="5.94437">
        <ele>786</ele>
        <time>2024-06-04T23:50:29Z</time>
      </trkpt>
      <trkpt lat="44.90028" lon="5.94458">
        <ele>786</ele>
        <time>2024-06-04T23:50:32Z</time>
      </trkpt>
      <trkpt lat="44.9001" lon="5.94516">
        <ele>785</ele>
        <time>2024-06-04T23:50:40Z</time>
      </trkpt>
      <trkpt lat="44.90004" lon="5.94542">
        <ele>786</ele>
        <time>2024-06-04T23:50:43Z</time>
      </trkpt>
      <trkpt lat="44.90004" lon="5.94557">
        <ele>786</ele>
        <time>2024-06-04T23:50:45Z</time>
      </trkpt>
      <trkpt lat="44.90011" lon="5.94583">
        <ele>788</ele>
        <time>2024-06-04T23:50:49Z</time>
      </trkpt>
      <trkpt lat="44.90016" lon="5.94594">
        <ele>790</ele>
        <time>2024-06-04T23:50:50Z</time>
      </trkpt>
      <trkpt lat="44.9003" lon="5.94605">
        <ele>792</ele>
        <time>2024-06-04T23:50:53Z</time>
      </trkpt>
      <trkpt lat="44.90059" lon="5.94605">
        <ele>794</ele>
        <time>2024-06-04T23:50:58Z</time>
      </trkpt>
      <trkpt lat="44.90068" lon="5.94608">
        <ele>795</ele>
        <time>2024-06-04T23:51:00Z</time>
      </trkpt>
      <trkpt lat="44.90081" lon="5.94616">
        <ele>796</ele>
        <time>2024-06-04T23:51:03Z</time>
      </trkpt>
      <trkpt lat="44.90089" lon="5.94624">
        <ele>797</ele>
        <time>2024-06-04T23:51:04Z</time>
      </trkpt>
      <trkpt lat="44.90111" lon="5.94679">
        <ele>798</ele>
        <time>2024-06-04T23:51:12Z</time>
      </trkpt>
      <trkpt lat="44.90148" lon="5.94785">
        <ele>805</ele>
        <time>2024-06-04T23:51:27Z</time>
      </trkpt>
      <trkpt lat="44.90153" lon="5.94806">
        <ele>806</ele>
        <time>2024-06-04T23:51:30Z</time>
      </trkpt>
      <trkpt lat="44.90154" lon="5.94819">
        <ele>807</ele>
        <time>2024-06-04T23:51:32Z</time>
      </trkpt>
      <trkpt lat="44.90145" lon="5.94879">
        <ele>807</ele>
        <time>2024-06-04T23:51:39Z</time>
      </trkpt>
      <trkpt lat="44.90146" lon="5.94896">
        <ele>807</ele>
        <time>2024-06-04T23:51:41Z</time>
      </trkpt>
      <trkpt lat="44.90159" lon="5.94894">
        <ele>809</ele>
        <time>2024-06-04T23:51:44Z</time>
      </trkpt>
      <trkpt lat="44.90198" lon="5.9487">
        <ele>810</ele>
        <time>2024-06-04T23:51:51Z</time>
      </trkpt>
      <trkpt lat="44.90187" lon="5.94822">
        <ele>810</ele>
        <time>2024-06-04T23:51:58Z</time>
      </trkpt>
      <trkpt lat="44.90187" lon="5.94808">
        <ele>810</ele>
        <time>2024-06-04T23:51:59Z</time>
      </trkpt>
      <trkpt lat="44.90189" lon="5.94794">
        <ele>809</ele>
        <time>2024-06-04T23:52:01Z</time>
      </trkpt>
      <trkpt lat="44.90167" lon="5.94779">
        <ele>808</ele>
        <time>2024-06-04T23:52:06Z</time>
      </trkpt>
      <trkpt lat="44.90158" lon="5.94743">
        <ele>805</ele>
        <time>2024-06-04T23:52:10Z</time>
      </trkpt>
      <trkpt lat="44.90157" lon="5.94729">
        <ele>805</ele>
        <time>2024-06-04T23:52:12Z</time>
      </trkpt>
      <trkpt lat="44.90158" lon="5.94743">
        <ele>805</ele>
        <time>2024-06-04T23:52:14Z</time>
      </trkpt>
      <trkpt lat="44.90167" lon="5.94779">
        <ele>808</ele>
        <time>2024-06-04T23:52:19Z</time>
      </trkpt>
      <trkpt lat="44.90189" lon="5.94794">
        <ele>809</ele>
        <time>2024-06-04T23:52:23Z</time>
      </trkpt>
      <trkpt lat="44.90187" lon="5.94808">
        <ele>810</ele>
        <time>2024-06-04T23:52:25Z</time>
      </trkpt>
      <trkpt lat="44.90187" lon="5.94822">
        <ele>810</ele>
        <time>2024-06-04T23:52:27Z</time>
      </trkpt>
      <trkpt lat="44.90198" lon="5.9487">
        <ele>810</ele>
        <time>2024-06-04T23:52:33Z</time>
      </trkpt>
      <trkpt lat="44.90307" lon="5.94821">
        <ele>809</ele>
        <time>2024-06-04T23:52:53Z</time>
      </trkpt>
      <trkpt lat="44.90367" lon="5.94804">
        <ele>806</ele>
        <time>2024-06-04T23:53:04Z</time>
      </trkpt>
      <trkpt lat="44.90394" lon="5.94794">
        <ele>805</ele>
        <time>2024-06-04T23:53:09Z</time>
      </trkpt>
      <trkpt lat="44.90436" lon="5.94782">
        <ele>804</ele>
        <time>2024-06-04T23:53:17Z</time>
      </trkpt>
      <trkpt lat="44.90534" lon="5.94761">
        <ele>802</ele>
        <time>2024-06-04T23:53:34Z</time>
      </trkpt>
      <trkpt lat="44.90552" lon="5.9476">
        <ele>802</ele>
        <time>2024-06-04T23:53:38Z</time>
      </trkpt>
      <trkpt lat="44.90571" lon="5.94761">
        <ele>801</ele>
        <time>2024-06-04T23:53:41Z</time>
      </trkpt>
      <trkpt lat="44.90607" lon="5.9477">
        <ele>798</ele>
        <time>2024-06-04T23:53:48Z</time>
      </trkpt>
      <trkpt lat="44.90629" lon="5.9478">
        <ele>796</ele>
        <time>2024-06-04T23:53:52Z</time>
      </trkpt>
      <trkpt lat="44.90715" lon="5.94863">
        <ele>798</ele>
        <time>2024-06-04T23:54:10Z</time>
      </trkpt>
      <trkpt lat="44.90729" lon="5.94869">
        <ele>797</ele>
        <time>2024-06-04T23:54:13Z</time>
      </trkpt>
      <trkpt lat="44.9077" lon="5.94877">
        <ele>796</ele>
        <time>2024-06-04T23:54:20Z</time>
      </trkpt>
      <trkpt lat="44.90823" lon="5.94892">
        <ele>798</ele>
        <time>2024-06-04T23:54:30Z</time>
      </trkpt>
      <trkpt lat="44.90879" lon="5.94902">
        <ele>800</ele>
        <time>2024-06-04T23:54:40Z</time>
      </trkpt>
      <trkpt lat="44.90898" lon="5.9491">
        <ele>801</ele>
        <time>2024-06-04T23:54:43Z</time>
      </trkpt>
      <trkpt lat="44.90918" lon="5.94925">
        <ele>801</ele>
        <time>2024-06-04T23:54:47Z</time>
      </trkpt>
      <trkpt lat="44.90965" lon="5.94977">
        <ele>802</ele>
        <time>2024-06-04T23:54:58Z</time>
      </trkpt>
      <trkpt lat="44.90986" lon="5.94993">
        <ele>803</ele>
        <time>2024-06-04T23:55:02Z</time>
      </trkpt>
      <trkpt lat="44.91042" lon="5.95027">
        <ele>805</ele>
        <time>2024-06-04T23:55:13Z</time>
      </trkpt>
      <trkpt lat="44.91081" lon="5.95044">
        <ele>805</ele>
        <time>2024-06-04T23:55:20Z</time>
      </trkpt>
      <trkpt lat="44.91165" lon="5.95062">
        <ele>808</ele>
        <time>2024-06-04T23:55:36Z</time>
      </trkpt>
      <trkpt lat="44.91211" lon="5.95074">
        <ele>807</ele>
        <time>2024-06-04T23:55:44Z</time>
      </trkpt>
      <trkpt lat="44.91269" lon="5.95076">
        <ele>805</ele>
        <time>2024-06-04T23:55:54Z</time>
      </trkpt>
      <trkpt lat="44.9132" lon="5.95086">
        <ele>809</ele>
        <time>2024-06-04T23:56:03Z</time>
      </trkpt>
      <trkpt lat="44.91368" lon="5.9509">
        <ele>810</ele>
        <time>2024-06-04T23:56:12Z</time>
      </trkpt>
      <trkpt lat="44.91385" lon="5.95095">
        <ele>811</ele>
        <time>2024-06-04T23:56:15Z</time>
      </trkpt>
      <trkpt lat="44.91399" lon="5.95103">
        <ele>812</ele>
        <time>2024-06-04T23:56:18Z</time>
      </trkpt>
      <trkpt lat="44.91418" lon="5.95122">
        <ele>813</ele>
        <time>2024-06-04T23:56:22Z</time>
      </trkpt>
      <trkpt lat="44.91476" lon="5.95206">
        <ele>823</ele>
        <time>2024-06-04T23:56:37Z</time>
      </trkpt>
      <trkpt lat="44.91505" lon="5.95253">
        <ele>819</ele>
        <time>2024-06-04T23:56:44Z</time>
      </trkpt>
      <trkpt lat="44.91536" lon="5.95317">
        <ele>828</ele>
        <time>2024-06-04T23:56:54Z</time>
      </trkpt>
      <trkpt lat="44.91584" lon="5.95421">
        <ele>824</ele>
        <time>2024-06-04T23:57:10Z</time>
      </trkpt>
      <trkpt lat="44.91611" lon="5.95497">
        <ele>832</ele>
        <time>2024-06-04T23:57:21Z</time>
      </trkpt>
      <trkpt lat="44.91666" lon="5.95663">
        <ele>830</ele>
        <time>2024-06-04T23:57:44Z</time>
      </trkpt>
      <trkpt lat="44.9168" lon="5.95716">
        <ele>839</ele>
        <time>2024-06-04T23:57:51Z</time>
      </trkpt>
      <trkpt lat="44.917" lon="5.95814">
        <ele>846</ele>
        <time>2024-06-04T23:58:04Z</time>
      </trkpt>
      <trkpt lat="44.91701" lon="5.95836">
        <ele>847</ele>
        <time>2024-06-04T23:58:06Z</time>
      </trkpt>
      <trkpt lat="44.91698" lon="5.95908">
        <ele>853</ele>
        <time>2024-06-04T23:58:15Z</time>
      </trkpt>
      <trkpt lat="44.91701" lon="5.95924">
        <ele>854</ele>
        <time>2024-06-04T23:58:18Z</time>
      </trkpt>
      <trkpt lat="44.91705" lon="5.95939">
        <ele>856</ele>
        <time>2024-06-04T23:58:20Z</time>
      </trkpt>
      <trkpt lat="44.91715" lon="5.95953">
        <ele>853</ele>
        <time>2024-06-04T23:58:22Z</time>
      </trkpt>
      <trkpt lat="44.91748" lon="5.95993">
        <ele>840</ele>
        <time>2024-06-04T23:58:30Z</time>
      </trkpt>
      <trkpt lat="44.9177" lon="5.96026">
        <ele>842</ele>
        <time>2024-06-04T23:58:36Z</time>
      </trkpt>
      <trkpt lat="44.91783" lon="5.96047">
        <ele>842</ele>
        <time>2024-06-04T23:58:39Z</time>
      </trkpt>
      <trkpt lat="44.91792" lon="5.9607">
        <ele>843</ele>
        <time>2024-06-04T23:58:42Z</time>
      </trkpt>
      <trkpt lat="44.91799" lon="5.96097">
        <ele>844</ele>
        <time>2024-06-04T23:58:46Z</time>
      </trkpt>
      <trkpt lat="44.91802" lon="5.96122">
        <ele>846</ele>
        <time>2024-06-04T23:58:49Z</time>
      </trkpt>
      <trkpt lat="44.91812" lon="5.96153">
        <ele>846</ele>
        <time>2024-06-04T23:58:53Z</time>
      </trkpt>
      <trkpt lat="44.91823" lon="5.96173">
        <ele>844</ele>
        <time>2024-06-04T23:58:57Z</time>
      </trkpt>
      <trkpt lat="44.91834" lon="5.9618">
        <ele>841</ele>
        <time>2024-06-04T23:58:59Z</time>
      </trkpt>
      <trkpt lat="44.91854" lon="5.96186">
        <ele>841</ele>
        <time>2024-06-04T23:59:02Z</time>
      </trkpt>
      <trkpt lat="44.91861" lon="5.96188">
        <ele>841</ele>
        <time>2024-06-04T23:59:04Z</time>
      </trkpt>
      <trkpt lat="44.91887" lon="5.96196">
        <ele>841</ele>
        <time>2024-06-04T23:59:08Z</time>
      </trkpt>
      <trkpt lat="44.91941" lon="5.96217">
        <ele>841</ele>
        <time>2024-06-04T23:59:18Z</time>
      </trkpt>
      <trkpt lat="44.9201" lon="5.96283">
        <ele>845</ele>
        <time>2024-06-04T23:59:33Z</time>
      </trkpt>
      <trkpt lat="44.92088" lon="5.96342">
        <ele>848</ele>
        <time>2024-06-04T23:59:49Z</time>
      </trkpt>
      <trkpt lat="44.92144" lon="5.96389">
        <ele>849</ele>
        <time>2024-06-05T00:00:01Z</time>
      </trkpt>
      <trkpt lat="44.92159" lon="5.96403">
        <ele>849</ele>
        <time>2024-06-05T00:00:04Z</time>
      </trkpt>
      <trkpt lat="44.92196" lon="5.96444">
        <ele>849</ele>
        <time>2024-06-05T00:00:12Z</time>
      </trkpt>
      <trkpt lat="44.92211" lon="5.96455">
        <ele>849</ele>
        <time>2024-06-05T00:00:15Z</time>
      </trkpt>
      <trkpt lat="44.92244" lon="5.96471">
        <ele>847</ele>
        <time>2024-06-05T00:00:21Z</time>
      </trkpt>
      <trkpt lat="44.92417" lon="5.96569">
        <ele>853</ele>
        <time>2024-06-05T00:00:55Z</time>
      </trkpt>
      <trkpt lat="44.92437" lon="5.96583">
        <ele>855</ele>
        <time>2024-06-05T00:00:59Z</time>
      </trkpt>
      <trkpt lat="44.92455" lon="5.96599">
        <ele>858</ele>
        <time>2024-06-05T00:01:02Z</time>
      </trkpt>
      <trkpt lat="44.92488" lon="5.96636">
        <ele>863</ele>
        <time>2024-06-05T00:01:10Z</time>
      </trkpt>
      <trkpt lat="44.92499" lon="5.96644">
        <ele>865</ele>
        <time>2024-06-05T00:01:12Z</time>
      </trkpt>
      <trkpt lat="44.92517" lon="5.96652">
        <ele>865</ele>
        <time>2024-06-05T00:01:15Z</time>
      </trkpt>
      <trkpt lat="44.92626" lon="5.96689">
        <ele>865</ele>
        <time>2024-06-05T00:01:35Z</time>
      </trkpt>
      <trkpt lat="44.92672" lon="5.96695">
        <ele>864</ele>
        <time>2024-06-05T00:01:44Z</time>
      </trkpt>
      <trkpt lat="44.92696" lon="5.96708">
        <ele>865</ele>
        <time>2024-06-05T00:01:48Z</time>
      </trkpt>
      <trkpt lat="44.92709" lon="5.9672">
        <ele>866</ele>
        <time>2024-06-05T00:01:51Z</time>
      </trkpt>
      <trkpt lat="44.92747" lon="5.96774">
        <ele>868</ele>
        <time>2024-06-05T00:02:00Z</time>
      </trkpt>
      <trkpt lat="44.92787" lon="5.96814">
        <ele>869</ele>
        <time>2024-06-05T00:02:09Z</time>
      </trkpt>
      <trkpt lat="44.928" lon="5.96825">
        <ele>869</ele>
        <time>2024-06-05T00:02:12Z</time>
      </trkpt>
      <trkpt lat="44.92885" lon="5.96908">
        <ele>871</ele>
        <time>2024-06-05T00:02:30Z</time>
      </trkpt>
      <trkpt lat="44.92904" lon="5.96922">
        <ele>871</ele>
        <time>2024-06-05T00:02:34Z</time>
      </trkpt>
      <trkpt lat="44.92941" lon="5.96944">
        <ele>871</ele>
        <time>2024-06-05T00:02:41Z</time>
      </trkpt>
      <trkpt lat="44.92954" lon="5.96955">
        <ele>872</ele>
        <time>2024-06-05T00:02:44Z</time>
      </trkpt>
      <trkpt lat="44.9302" lon="5.97036">
        <ele>874</ele>
        <time>2024-06-05T00:02:59Z</time>
      </trkpt>
      <trkpt lat="44.9303" lon="5.97044">
        <ele>874</ele>
        <time>2024-06-05T00:03:02Z</time>
      </trkpt>
      <trkpt lat="44.93068" lon="5.97067">
        <ele>874</ele>
        <time>2024-06-05T00:03:09Z</time>
      </trkpt>
      <trkpt lat="44.93148" lon="5.97106">
        <ele>874</ele>
        <time>2024-06-05T00:03:24Z</time>
      </trkpt>
      <trkpt lat="44.93165" lon="5.97111">
        <ele>874</ele>
        <time>2024-06-05T00:03:27Z</time>
      </trkpt>
      <trkpt lat="44.93191" lon="5.97113">
        <ele>875</ele>
        <time>2024-06-05T00:03:32Z</time>
      </trkpt>
      <trkpt lat="44.93314" lon="5.97102">
        <ele>878</ele>
        <time>2024-06-05T00:03:54Z</time>
      </trkpt>
      <trkpt lat="44.93328" lon="5.97102">
        <ele>878</ele>
        <time>2024-06-05T00:03:56Z</time>
      </trkpt>
      <trkpt lat="44.93341" lon="5.97105">
        <ele>879</ele>
        <time>2024-06-05T00:03:58Z</time>
      </trkpt>
      <trkpt lat="44.93383" lon="5.97129">
        <ele>881</ele>
        <time>2024-06-05T00:04:06Z</time>
      </trkpt>
      <trkpt lat="44.93406" lon="5.97147">
        <ele>882</ele>
        <time>2024-06-05T00:04:11Z</time>
      </trkpt>
      <trkpt lat="44.93485" lon="5.9723">
        <ele>888</ele>
        <time>2024-06-05T00:04:29Z</time>
      </trkpt>
      <trkpt lat="44.93528" lon="5.97266">
        <ele>891</ele>
        <time>2024-06-05T00:04:38Z</time>
      </trkpt>
      <trkpt lat="44.93539" lon="5.97282">
        <ele>892</ele>
        <time>2024-06-05T00:04:40Z</time>
      </trkpt>
      <trkpt lat="44.93652" lon="5.9741">
        <ele>901</ele>
        <time>2024-06-05T00:05:06Z</time>
      </trkpt>
      <trkpt lat="44.93658" lon="5.97415">
        <ele>901</ele>
        <time>2024-06-05T00:05:07Z</time>
      </trkpt>
      <trkpt lat="44.93664" lon="5.97415">
        <ele>901</ele>
        <time>2024-06-05T00:05:08Z</time>
      </trkpt>
      <trkpt lat="44.93666" lon="5.97413">
        <ele>901</ele>
        <time>2024-06-05T00:05:09Z</time>
      </trkpt>
      <trkpt lat="44.93676" lon="5.97404">
        <ele>901</ele>
        <time>2024-06-05T00:05:11Z</time>
      </trkpt>
      <trkpt lat="44.93743" lon="5.97344">
        <ele>904</ele>
        <time>2024-06-05T00:05:25Z</time>
      </trkpt>
      <trkpt lat="44.93773" lon="5.9732">
        <ele>903</ele>
        <time>2024-06-05T00:05:31Z</time>
      </trkpt>
      <trkpt lat="44.93787" lon="5.97313">
        <ele>902</ele>
        <time>2024-06-05T00:05:34Z</time>
      </trkpt>
      <trkpt lat="44.93983" lon="5.97254">
        <ele>902</ele>
        <time>2024-06-05T00:06:10Z</time>
      </trkpt>
      <trkpt lat="44.94167" lon="5.97202">
        <ele>908</ele>
        <time>2024-06-05T00:06:43Z</time>
      </trkpt>
      <trkpt lat="44.94207" lon="5.97188">
        <ele>909</ele>
        <time>2024-06-05T00:06:50Z</time>
      </trkpt>
      <trkpt lat="44.94216" lon="5.97184">
        <ele>910</ele>
        <time>2024-06-05T00:06:52Z</time>
      </trkpt>
      <trkpt lat="44.94291" lon="5.97144">
        <ele>912</ele>
        <time>2024-06-05T00:07:06Z</time>
      </trkpt>
      <trkpt lat="44.94505" lon="5.97026">
        <ele>920</ele>
        <time>2024-06-05T00:07:47Z</time>
      </trkpt>
      <trkpt lat="44.94518" lon="5.97017">
        <ele>921</ele>
        <time>2024-06-05T00:07:50Z</time>
      </trkpt>
      <trkpt lat="44.94565" lon="5.96968">
        <ele>926</ele>
        <time>2024-06-05T00:08:00Z</time>
      </trkpt>
      <trkpt lat="44.94634" lon="5.96882">
        <ele>930</ele>
        <time>2024-06-05T00:08:16Z</time>
      </trkpt>
      <trkpt lat="44.9464" lon="5.96876">
        <ele>930</ele>
        <time>2024-06-05T00:08:18Z</time>
      </trkpt>
      <trkpt lat="44.94648" lon="5.96868">
        <ele>930</ele>
        <time>2024-06-05T00:08:19Z</time>
      </trkpt>
      <trkpt lat="44.94685" lon="5.96827">
        <ele>931</ele>
        <time>2024-06-05T00:08:28Z</time>
      </trkpt>
      <trkpt lat="44.94792" lon="5.96736">
        <ele>938</ele>
        <time>2024-06-05T00:08:50Z</time>
      </trkpt>
      <trkpt lat="44.94806" lon="5.96726">
        <ele>938</ele>
        <time>2024-06-05T00:08:53Z</time>
      </trkpt>
      <trkpt lat="44.94843" lon="5.96707">
        <ele>940</ele>
        <time>2024-06-05T00:09:00Z</time>
      </trkpt>
      <trkpt lat="44.9494" lon="5.96668">
        <ele>948</ele>
        <time>2024-06-05T00:09:18Z</time>
      </trkpt>
      <trkpt lat="44.94966" lon="5.9666">
        <ele>951</ele>
        <time>2024-06-05T00:09:23Z</time>
      </trkpt>
      <trkpt lat="44.95029" lon="5.9666">
        <ele>962</ele>
        <time>2024-06-05T00:09:34Z</time>
      </trkpt>
      <trkpt lat="44.9507" lon="5.96645">
        <ele>968</ele>
        <time>2024-06-05T00:09:41Z</time>
      </trkpt>
      <trkpt lat="44.95091" lon="5.9664">
        <ele>969</ele>
        <time>2024-06-05T00:09:45Z</time>
      </trkpt>
      <trkpt lat="44.95118" lon="5.96638">
        <ele>970</ele>
        <time>2024-06-05T00:09:50Z</time>
      </trkpt>
      <trkpt lat="44.9517" lon="5.96642">
        <ele>973</ele>
        <time>2024-06-05T00:09:59Z</time>
      </trkpt>
      <trkpt lat="44.95192" lon="5.9664">
        <ele>974</ele>
        <time>2024-06-05T00:10:03Z</time>
      </trkpt>
      <trkpt lat="44.95275" lon="5.96615">
        <ele>970</ele>
        <time>2024-06-05T00:10:18Z</time>
      </trkpt>
      <trkpt lat="44.95293" lon="5.96606">
        <ele>967</ele>
        <time>2024-06-05T00:10:22Z</time>
      </trkpt>
      <trkpt lat="44.95319" lon="5.96584">
        <ele>959</ele>
        <time>2024-06-05T00:10:27Z</time>
      </trkpt>
      <trkpt lat="44.9539" lon="5.96519">
        <ele>962</ele>
        <time>2024-06-05T00:10:42Z</time>
      </trkpt>
      <trkpt lat="44.95413" lon="5.96492">
        <ele>961</ele>
        <time>2024-06-05T00:10:47Z</time>
      </trkpt>
      <trkpt lat="44.95432" lon="5.96464">
        <ele>963</ele>
        <time>2024-06-05T00:10:52Z</time>
      </trkpt>
      <trkpt lat="44.95577" lon="5.96237">
        <ele>969</ele>
        <time>2024-06-05T00:11:31Z</time>
      </trkpt>
      <trkpt lat="44.95587" lon="5.96225">
        <ele>969</ele>
        <time>2024-06-05T00:11:33Z</time>
      </trkpt>
      <trkpt lat="44.9566" lon="5.96169">
        <ele>972</ele>
        <time>2024-06-05T00:11:48Z</time>
      </trkpt>
      <trkpt lat="44.9567" lon="5.96159">
        <ele>972</ele>
        <time>2024-06-05T00:11:50Z</time>
      </trkpt>
      <trkpt lat="44.9569" lon="5.96146">
        <ele>973</ele>
        <time>2024-06-05T00:11:54Z</time>
      </trkpt>
      <trkpt lat="44.95699" lon="5.96145">
        <ele>973</ele>
        <time>2024-06-05T00:11:56Z</time>
      </trkpt>
      <trkpt lat="44.9571" lon="5.96148">
        <ele>974</ele>
        <time>2024-06-05T00:11:58Z</time>
      </trkpt>
      <trkpt lat="44.95729" lon="5.96164">
        <ele>975</ele>
        <time>2024-06-05T00:12:01Z</time>
      </trkpt>
      <trkpt lat="44.95739" lon="5.96169">
        <ele>976</ele>
        <time>2024-06-05T00:12:03Z</time>
      </trkpt>
      <trkpt lat="44.95751" lon="5.96171">
        <ele>977</ele>
        <time>2024-06-05T00:12:06Z</time>
      </trkpt>
      <trkpt lat="44.95765" lon="5.9617">
        <ele>979</ele>
        <time>2024-06-05T00:12:08Z</time>
      </trkpt>
      <trkpt lat="44.95812" lon="5.96158">
        <ele>985</ele>
        <time>2024-06-05T00:12:16Z</time>
      </trkpt>
      <trkpt lat="44.95853" lon="5.96151">
        <ele>988</ele>
        <time>2024-06-05T00:12:24Z</time>
      </trkpt>
      <trkpt lat="44.95867" lon="5.96143">
        <ele>987</ele>
        <time>2024-06-05T00:12:27Z</time>
      </trkpt>
      <trkpt lat="44.95896" lon="5.96116">
        <ele>984</ele>
        <time>2024-06-05T00:12:33Z</time>
      </trkpt>
      <trkpt lat="44.95909" lon="5.96106">
        <ele>983</ele>
        <time>2024-06-05T00:12:35Z</time>
      </trkpt>
      <trkpt lat="44.95922" lon="5.96102">
        <ele>983</ele>
        <time>2024-06-05T00:12:38Z</time>
      </trkpt>
      <trkpt lat="44.95939" lon="5.96101">
        <ele>984</ele>
        <time>2024-06-05T00:12:41Z</time>
      </trkpt>
      <trkpt lat="44.96053" lon="5.9612">
        <ele>994</ele>
        <time>2024-06-05T00:13:01Z</time>
      </trkpt>
      <trkpt lat="44.96069" lon="5.96124">
        <ele>996</ele>
        <time>2024-06-05T00:13:04Z</time>
      </trkpt>
      <trkpt lat="44.96084" lon="5.96132">
        <ele>998</ele>
        <time>2024-06-05T00:13:07Z</time>
      </trkpt>
      <trkpt lat="44.96109" lon="5.96153">
        <ele>1003</ele>
        <time>2024-06-05T00:13:12Z</time>
      </trkpt>
      <trkpt lat="44.96121" lon="5.96158">
        <ele>1004</ele>
        <time>2024-06-05T00:13:14Z</time>
      </trkpt>
      <trkpt lat="44.96151" lon="5.96156">
        <ele>1005</ele>
        <time>2024-06-05T00:13:20Z</time>
      </trkpt>
      <trkpt lat="44.96181" lon="5.96149">
        <ele>1005</ele>
        <time>2024-06-05T00:13:25Z</time>
      </trkpt>
      <trkpt lat="44.9621" lon="5.96138">
        <ele>1004</ele>
        <time>2024-06-05T00:13:30Z</time>
      </trkpt>
      <trkpt lat="44.96222" lon="5.96136">
        <ele>1005</ele>
        <time>2024-06-05T00:13:33Z</time>
      </trkpt>
      <trkpt lat="44.96237" lon="5.96137">
        <ele>1006</ele>
        <time>2024-06-05T00:13:35Z</time>
      </trkpt>
      <trkpt lat="44.96307" lon="5.96156">
        <ele>1019</ele>
        <time>2024-06-05T00:13:48Z</time>
      </trkpt>
      <trkpt lat="44.96316" lon="5.96156">
        <ele>1020</ele>
        <time>2024-06-05T00:13:50Z</time>
      </trkpt>
      <trkpt lat="44.96326" lon="5.96155">
        <ele>1021</ele>
        <time>2024-06-05T00:13:51Z</time>
      </trkpt>
      <trkpt lat="44.96364" lon="5.96127">
        <ele>1015</ele>
        <time>2024-06-05T00:13:59Z</time>
      </trkpt>
      <trkpt lat="44.96374" lon="5.96122">
        <ele>1014</ele>
        <time>2024-06-05T00:14:01Z</time>
      </trkpt>
      <trkpt lat="44.96385" lon="5.9612">
        <ele>1013</ele>
        <time>2024-06-05T00:14:03Z</time>
      </trkpt>
      <trkpt lat="44.96397" lon="5.96123">
        <ele>1015</ele>
        <time>2024-06-05T00:14:05Z</time>
      </trkpt>
      <trkpt lat="44.96435" lon="5.96144">
        <ele>1024</ele>
        <time>2024-06-05T00:14:12Z</time>
      </trkpt>
      <trkpt lat="44.96447" lon="5.96141">
        <ele>1025</ele>
        <time>2024-06-05T00:14:14Z</time>
      </trkpt>
      <trkpt lat="44.96454" lon="5.96134">
        <ele>1024</ele>
        <time>2024-06-05T00:14:16Z</time>
      </trkpt>
      <trkpt lat="44.96481" lon="5.96093">
        <ele>1015</ele>
        <time>2024-06-05T00:14:23Z</time>
      </trkpt>
      <trkpt lat="44.96492" lon="5.96082">
        <ele>1014</ele>
        <time>2024-06-05T00:14:25Z</time>
      </trkpt>
      <trkpt lat="44.96504" lon="5.96075">
        <ele>1015</ele>
        <time>2024-06-05T00:14:28Z</time>
      </trkpt>
      <trkpt lat="44.96516" lon="5.96074">
        <ele>1016</ele>
        <time>2024-06-05T00:14:30Z</time>
      </trkpt>
      <trkpt lat="44.96537" lon="5.96078">
        <ele>1017</ele>
        <time>2024-06-05T00:14:34Z</time>
      </trkpt>
      <trkpt lat="44.96582" lon="5.9609">
        <ele>1023</ele>
        <time>2024-06-05T00:14:42Z</time>
      </trkpt>
      <trkpt lat="44.966" lon="5.96092">
        <ele>1023</ele>
        <time>2024-06-05T00:14:45Z</time>
      </trkpt>
      <trkpt lat="44.96661" lon="5.96086">
        <ele>1019</ele>
        <time>2024-06-05T00:14:56Z</time>
      </trkpt>
      <trkpt lat="44.96743" lon="5.96108">
        <ele>1020</ele>
        <time>2024-06-05T00:15:11Z</time>
      </trkpt>
      <trkpt lat="44.96838" lon="5.9613">
        <ele>1021</ele>
        <time>2024-06-05T00:15:28Z</time>
      </trkpt>
      <trkpt lat="44.96859" lon="5.96131">
        <ele>1021</ele>
        <time>2024-06-05T00:15:32Z</time>
      </trkpt>
      <trkpt lat="44.96894" lon="5.96125">
        <ele>1022</ele>
        <time>2024-06-05T00:15:38Z</time>
      </trkpt>
      <trkpt lat="44.96975" lon="5.96087">
        <ele>1023</ele>
        <time>2024-06-05T00:15:53Z</time>
      </trkpt>
      <trkpt lat="44.96991" lon="5.96076">
        <ele>1024</ele>
        <time>2024-06-05T00:15:56Z</time>
      </trkpt>
      <trkpt lat="44.97001" lon="5.96065">
        <ele>1024</ele>
        <time>2024-06-05T00:15:58Z</time>
      </trkpt>
      <trkpt lat="44.97035" lon="5.95995">
        <ele>1023</ele>
        <time>2024-06-05T00:16:09Z</time>
      </trkpt>
      <trkpt lat="44.97049" lon="5.95964">
        <ele>1025</ele>
        <time>2024-06-05T00:16:14Z</time>
      </trkpt>
      <trkpt lat="44.97058" lon="5.95948">
        <ele>1027</ele>
        <time>2024-06-05T00:16:16Z</time>
      </trkpt>
      <trkpt lat="44.97064" lon="5.95943">
        <ele>1027</ele>
        <time>2024-06-05T00:16:18Z</time>
      </trkpt>
      <trkpt lat="44.97078" lon="5.95936">
        <ele>1028</ele>
        <time>2024-06-05T00:16:20Z</time>
      </trkpt>
      <trkpt lat="44.97091" lon="5.95936">
        <ele>1028</ele>
        <time>2024-06-05T00:16:22Z</time>
      </trkpt>
      <trkpt lat="44.971" lon="5.95938">
        <ele>1028</ele>
        <time>2024-06-05T00:16:24Z</time>
      </trkpt>
      <trkpt lat="44.97427" lon="5.96046">
        <ele>1038</ele>
        <time>2024-06-05T00:17:24Z</time>
      </trkpt>
      <trkpt lat="44.97624" lon="5.96109">
        <ele>1050</ele>
        <time>2024-06-05T00:18:00Z</time>
      </trkpt>
      <trkpt lat="44.97684" lon="5.96131">
        <ele>1053</ele>
        <time>2024-06-05T00:18:11Z</time>
      </trkpt>
      <trkpt lat="44.97895" lon="5.96198">
        <ele>1062</ele>
        <time>2024-06-05T00:18:49Z</time>
      </trkpt>
      <trkpt lat="44.9791" lon="5.96206">
        <ele>1063</ele>
        <time>2024-06-05T00:18:52Z</time>
      </trkpt>
      <trkpt lat="44.97921" lon="5.96214">
        <ele>1065</ele>
        <time>2024-06-05T00:18:54Z</time>
      </trkpt>
      <trkpt lat="44.97932" lon="5.96231">
        <ele>1067</ele>
        <time>2024-06-05T00:18:57Z</time>
      </trkpt>
      <trkpt lat="44.97959" lon="5.96281">
        <ele>1072</ele>
        <time>2024-06-05T00:19:05Z</time>
      </trkpt>
      <trkpt lat="44.98012" lon="5.96372">
        <ele>1080</ele>
        <time>2024-06-05T00:19:20Z</time>
      </trkpt>
      <trkpt lat="44.98023" lon="5.96387">
        <ele>1081</ele>
        <time>2024-06-05T00:19:23Z</time>
      </trkpt>
      <trkpt lat="44.98038" lon="5.96402">
        <ele>1083</ele>
        <time>2024-06-05T00:19:26Z</time>
      </trkpt>
      <trkpt lat="44.98051" lon="5.96408">
        <ele>1084</ele>
        <time>2024-06-05T00:19:28Z</time>
      </trkpt>
      <trkpt lat="44.98071" lon="5.96407">
        <ele>1086</ele>
        <time>2024-06-05T00:19:32Z</time>
      </trkpt>
      <trkpt lat="44.98085" lon="5.96403">
        <ele>1087</ele>
        <time>2024-06-05T00:19:35Z</time>
      </trkpt>
      <trkpt lat="44.98177" lon="5.96338">
        <ele>1097</ele>
        <time>2024-06-05T00:19:53Z</time>
      </trkpt>
      <trkpt lat="44.98194" lon="5.96328">
        <ele>1100</ele>
        <time>2024-06-05T00:19:56Z</time>
      </trkpt>
      <trkpt lat="44.98205" lon="5.96325">
        <ele>1102</ele>
        <time>2024-06-05T00:19:58Z</time>
      </trkpt>
      <trkpt lat="44.98218" lon="5.96326">
        <ele>1104</ele>
        <time>2024-06-05T00:20:00Z</time>
      </trkpt>
      <trkpt lat="44.98232" lon="5.9633">
        <ele>1106</ele>
        <time>2024-06-05T00:20:03Z</time>
      </trkpt>
      <trkpt lat="44.98246" lon="5.96339">
        <ele>1108</ele>
        <time>2024-06-05T00:20:06Z</time>
      </trkpt>
      <trkpt lat="44.98255" lon="5.9635">
        <ele>1108</ele>
        <time>2024-06-05T00:20:08Z</time>
      </trkpt>
      <trkpt lat="44.98268" lon="5.96377">
        <ele>1107</ele>
        <time>2024-06-05T00:20:12Z</time>
      </trkpt>
      <trkpt lat="44.98298" lon="5.96489">
        <ele>1105</ele>
        <time>2024-06-05T00:20:27Z</time>
      </trkpt>
      <trkpt lat="44.98304" lon="5.96506">
        <ele>1105</ele>
        <time>2024-06-05T00:20:29Z</time>
      </trkpt>
      <trkpt lat="44.98311" lon="5.96523">
        <ele>1105</ele>
        <time>2024-06-05T00:20:32Z</time>
      </trkpt>
      <trkpt lat="44.98328" lon="5.96548">
        <ele>1105</ele>
        <time>2024-06-05T00:20:36Z</time>
      </trkpt>
      <trkpt lat="44.98417" lon="5.96664">
        <ele>1117</ele>
        <time>2024-06-05T00:20:58Z</time>
      </trkpt>
      <trkpt lat="44.98511" lon="5.96791">
        <ele>1127</ele>
        <time>2024-06-05T00:21:21Z</time>
      </trkpt>
      <trkpt lat="44.98572" lon="5.96866">
        <ele>1135</ele>
        <time>2024-06-05T00:21:35Z</time>
      </trkpt>
      <trkpt lat="44.98585" lon="5.9689">
        <ele>1136</ele>
        <time>2024-06-05T00:21:39Z</time>
      </trkpt>
      <trkpt lat="44.98591" lon="5.96906">
        <ele>1137</ele>
        <time>2024-06-05T00:21:41Z</time>
      </trkpt>
      <trkpt lat="44.98597" lon="5.96928">
        <ele>1137</ele>
        <time>2024-06-05T00:21:44Z</time>
      </trkpt>
      <trkpt lat="44.98601" lon="5.96966">
        <ele>1137</ele>
        <time>2024-06-05T00:21:49Z</time>
      </trkpt>
      <trkpt lat="44.98636" lon="5.9696">
        <ele>1141</ele>
        <time>2024-06-05T00:21:55Z</time>
      </trkpt>
      <trkpt lat="44.98675" lon="5.96961">
        <ele>1147</ele>
        <time>2024-06-05T00:22:02Z</time>
      </trkpt>
      <trkpt lat="44.98702" lon="5.96964">
        <ele>1151</ele>
        <time>2024-06-05T00:22:07Z</time>
      </trkpt>
      <trkpt lat="44.98705" lon="5.96967">
        <ele>1152</ele>
        <time>2024-06-05T00:22:08Z</time>
      </trkpt>
      <trkpt lat="44.9871" lon="5.96966">
        <ele>1153</ele>
        <time>2024-06-05T00:22:09Z</time>
      </trkpt>
      <trkpt lat="44.98715" lon="5.96965">
        <ele>1154</ele>
        <time>2024-06-05T00:22:10Z</time>
      </trkpt>
      <trkpt lat="44.98722" lon="5.96969">
        <ele>1155</ele>
        <time>2024-06-05T00:22:11Z</time>
      </trkpt>
      <trkpt lat="44.98741" lon="5.96969">
        <ele>1159</ele>
        <time>2024-06-05T00:22:14Z</time>
      </trkpt>
      <trkpt lat="44.98786" lon="5.96964">
        <ele>1164</ele>
        <time>2024-06-05T00:22:22Z</time>
      </trkpt>
      <trkpt lat="44.98805" lon="5.96958">
        <ele>1166</ele>
        <time>2024-06-05T00:22:26Z</time>
      </trkpt>
      <trkpt lat="44.98853" lon="5.96933">
        <ele>1171</ele>
        <time>2024-06-05T00:22:35Z</time>
      </trkpt>
      <trkpt lat="44.98876" lon="5.96926">
        <ele>1174</ele>
        <time>2024-06-05T00:22:39Z</time>
      </trkpt>
      <trkpt lat="44.98903" lon="5.96923">
        <ele>1178</ele>
        <time>2024-06-05T00:22:44Z</time>
      </trkpt>
      <trkpt lat="44.9896" lon="5.96926">
        <ele>1185</ele>
        <time>2024-06-05T00:22:54Z</time>
      </trkpt>
      <trkpt lat="44.98995" lon="5.96934">
        <ele>1189</ele>
        <time>2024-06-05T00:23:00Z</time>
      </trkpt>
      <trkpt lat="44.99032" lon="5.9695">
        <ele>1194</ele>
        <time>2024-06-05T00:23:07Z</time>
      </trkpt>
      <trkpt lat="44.99072" lon="5.96964">
        <ele>1201</ele>
        <time>2024-06-05T00:23:15Z</time>
      </trkpt>
      <trkpt lat="44.99111" lon="5.96967">
        <ele>1207</ele>
        <time>2024-06-05T00:23:22Z</time>
      </trkpt>
      <trkpt lat="44.9915" lon="5.96976">
        <ele>1212</ele>
        <time>2024-06-05T00:23:29Z</time>
      </trkpt>
      <trkpt lat="44.99206" lon="5.97">
        <ele>1221</ele>
        <time>2024-06-05T00:23:39Z</time>
      </trkpt>
      <trkpt lat="44.99225" lon="5.9701">
        <ele>1224</ele>
        <time>2024-06-05T00:23:43Z</time>
      </trkpt>
      <trkpt lat="44.99237" lon="5.97026">
        <ele>1226</ele>
        <time>2024-06-05T00:23:46Z</time>
      </trkpt>
      <trkpt lat="44.99272" lon="5.97053">
        <ele>1231</ele>
        <time>2024-06-05T00:23:53Z</time>
      </trkpt>
      <trkpt lat="44.99303" lon="5.97086">
        <ele>1237</ele>
        <time>2024-06-05T00:24:00Z</time>
      </trkpt>
      <trkpt lat="44.99329" lon="5.97097">
        <ele>1240</ele>
        <time>2024-06-05T00:24:04Z</time>
      </trkpt>
      <trkpt lat="44.9937" lon="5.97123">
        <ele>1247</ele>
        <time>2024-06-05T00:24:12Z</time>
      </trkpt>
      <trkpt lat="44.99447" lon="5.97181">
        <ele>1259</ele>
        <time>2024-06-05T00:24:28Z</time>
      </trkpt>
      <trkpt lat="44.99472" lon="5.97191">
        <ele>1263</ele>
        <time>2024-06-05T00:24:33Z</time>
      </trkpt>
      <trkpt lat="44.99545" lon="5.97209">
        <ele>1274</ele>
        <time>2024-06-05T00:24:46Z</time>
      </trkpt>
      <trkpt lat="44.99603" lon="5.97228">
        <ele>1284</ele>
        <time>2024-06-05T00:24:56Z</time>
      </trkpt>
      <trkpt lat="44.9962" lon="5.9723">
        <ele>1286</ele>
        <time>2024-06-05T00:24:59Z</time>
      </trkpt>
      <trkpt lat="44.99623" lon="5.97283">
        <ele>1291</ele>
        <time>2024-06-05T00:25:06Z</time>
      </trkpt>
      <trkpt lat="44.99625" lon="5.97292">
        <ele>1292</ele>
        <time>2024-06-05T00:25:07Z</time>
      </trkpt>
      <trkpt lat="44.99631" lon="5.97298">
        <ele>1293</ele>
        <time>2024-06-05T00:25:09Z</time>
      </trkpt>
      <trkpt lat="44.99637" lon="5.97299">
        <ele>1294</ele>
        <time>2024-06-05T00:25:10Z</time>
      </trkpt>
      <trkpt lat="44.99645" lon="5.97293">
        <ele>1294</ele>
        <time>2024-06-05T00:25:11Z</time>
      </trkpt>
      <trkpt lat="44.99668" lon="5.97263">
        <ele>1295</ele>
        <time>2024-06-05T00:25:17Z</time>
      </trkpt>
      <trkpt lat="44.99687" lon="5.97246">
        <ele>1295</ele>
        <time>2024-06-05T00:25:21Z</time>
      </trkpt>
      <trkpt lat="44.99831" lon="5.97129">
        <ele>1306</ele>
        <time>2024-06-05T00:25:50Z</time>
      </trkpt>
      <trkpt lat="44.99903" lon="5.97067">
        <ele>1311</ele>
        <time>2024-06-05T00:26:05Z</time>
      </trkpt>
      <trkpt lat="44.99986" lon="5.96978">
        <ele>1320</ele>
        <time>2024-06-05T00:26:24Z</time>
      </trkpt>
      <trkpt lat="45.0002" lon="5.96943">
        <ele>1323</ele>
        <time>2024-06-05T00:26:31Z</time>
      </trkpt>
      <trkpt lat="45.00042" lon="5.96926">
        <ele>1325</ele>
        <time>2024-06-05T00:26:36Z</time>
      </trkpt>
      <trkpt lat="45.00069" lon="5.96909">
        <ele>1327</ele>
        <time>2024-06-05T00:26:41Z</time>
      </trkpt>
      <trkpt lat="45.00134" lon="5.96877">
        <ele>1334</ele>
        <time>2024-06-05T00:26:53Z</time>
      </trkpt>
      <trkpt lat="45.00293" lon="5.96793">
        <ele>1349</ele>
        <time>2024-06-05T00:27:24Z</time>
      </trkpt>
      <trkpt lat="45.00366" lon="5.96758">
        <ele>1352</ele>
        <time>2024-06-05T00:27:37Z</time>
      </trkpt>
      <trkpt lat="45.0038" lon="5.96751">
        <ele>1353</ele>
        <time>2024-06-05T00:27:40Z</time>
      </trkpt>
      <trkpt lat="45.00416" lon="5.9673">
        <ele>1356</ele>
        <time>2024-06-05T00:27:47Z</time>
      </trkpt>
      <trkpt lat="45.00453" lon="5.96712">
        <ele>1360</ele>
        <time>2024-06-05T00:27:54Z</time>
      </trkpt>
      <trkpt lat="45.00493" lon="5.96697">
        <ele>1363</ele>
        <time>2024-06-05T00:28:01Z</time>
      </trkpt>
      <trkpt lat="45.00531" lon="5.96692">
        <ele>1365</ele>
        <time>2024-06-05T00:28:08Z</time>
      </trkpt>
      <trkpt lat="45.0057" lon="5.96695">
        <ele>1368</ele>
        <time>2024-06-05T00:28:15Z</time>
      </trkpt>
      <trkpt lat="45.01249" lon="5.96822">
        <ele>1365</ele>
        <time>2024-06-05T00:30:17Z</time>
      </trkpt>
      <trkpt lat="45.01288" lon="5.96833">
        <ele>1362</ele>
        <time>2024-06-05T00:30:24Z</time>
      </trkpt>
      <trkpt lat="45.01557" lon="5.96919">
        <ele>1346</ele>
        <time>2024-06-05T00:31:13Z</time>
      </trkpt>
      <trkpt lat="45.0157" lon="5.96926">
        <ele>1344</ele>
        <time>2024-06-05T00:31:15Z</time>
      </trkpt>
      <trkpt lat="45.01604" lon="5.9695">
        <ele>1342</ele>
        <time>2024-06-05T00:31:22Z</time>
      </trkpt>
      <trkpt lat="45.01802" lon="5.97114">
        <ele>1325</ele>
        <time>2024-06-05T00:32:03Z</time>
      </trkpt>
      <trkpt lat="45.01874" lon="5.9717">
        <ele>1314</ele>
        <time>2024-06-05T00:32:18Z</time>
      </trkpt>
      <trkpt lat="45.0189" lon="5.97188">
        <ele>1312</ele>
        <time>2024-06-05T00:32:21Z</time>
      </trkpt>
      <trkpt lat="45.01935" lon="5.9728">
        <ele>1314</ele>
        <time>2024-06-05T00:32:35Z</time>
      </trkpt>
      <trkpt lat="45.01949" lon="5.97296">
        <ele>1316</ele>
        <time>2024-06-05T00:32:38Z</time>
      </trkpt>
      <trkpt lat="45.01963" lon="5.97303">
        <ele>1316</ele>
        <time>2024-06-05T00:32:41Z</time>
      </trkpt>
      <trkpt lat="45.02011" lon="5.97318">
        <ele>1312</ele>
        <time>2024-06-05T00:32:50Z</time>
      </trkpt>
      <trkpt lat="45.02032" lon="5.97321">
        <ele>1309</ele>
        <time>2024-06-05T00:32:54Z</time>
      </trkpt>
      <trkpt lat="45.02285" lon="5.97352">
        <ele>1282</ele>
        <time>2024-06-05T00:33:39Z</time>
      </trkpt>
      <trkpt lat="45.02315" lon="5.97357">
        <ele>1278</ele>
        <time>2024-06-05T00:33:44Z</time>
      </trkpt>
      <trkpt lat="45.02347" lon="5.97369">
        <ele>1276</ele>
        <time>2024-06-05T00:33:50Z</time>
      </trkpt>
      <trkpt lat="45.02438" lon="5.97413">
        <ele>1272</ele>
        <time>2024-06-05T00:34:07Z</time>
      </trkpt>
      <trkpt lat="45.02474" lon="5.97428">
        <ele>1271</ele>
        <time>2024-06-05T00:34:14Z</time>
      </trkpt>
      <trkpt lat="45.0263" lon="5.97472">
        <ele>1257</ele>
        <time>2024-06-05T00:34:42Z</time>
      </trkpt>
      <trkpt lat="45.02648" lon="5.97475">
        <ele>1256</ele>
        <time>2024-06-05T00:34:45Z</time>
      </trkpt>
      <trkpt lat="45.02672" lon="5.97476">
        <ele>1253</ele>
        <time>2024-06-05T00:34:50Z</time>
      </trkpt>
      <trkpt lat="45.02743" lon="5.97472">
        <ele>1243</ele>
        <time>2024-06-05T00:35:02Z</time>
      </trkpt>
      <trkpt lat="45.02768" lon="5.97475">
        <ele>1240</ele>
        <time>2024-06-05T00:35:07Z</time>
      </trkpt>
      <trkpt lat="45.0298" lon="5.97579">
        <ele>1230</ele>
        <time>2024-06-05T00:35:47Z</time>
      </trkpt>
      <trkpt lat="45.0299" lon="5.97585">
        <ele>1231</ele>
        <time>2024-06-05T00:35:49Z</time>
      </trkpt>
      <trkpt lat="45.0301" lon="5.97606">
        <ele>1233</ele>
        <time>2024-06-05T00:35:53Z</time>
      </trkpt>
      <trkpt lat="45.03015" lon="5.97607">
        <ele>1232</ele>
        <time>2024-06-05T00:35:54Z</time>
      </trkpt>
      <trkpt lat="45.0302" lon="5.97602">
        <ele>1229</ele>
        <time>2024-06-05T00:35:55Z</time>
      </trkpt>
      <trkpt lat="45.0302" lon="5.97593">
        <ele>1226</ele>
        <time>2024-06-05T00:35:56Z</time>
      </trkpt>
      <trkpt lat="45.03015" lon="5.97587">
        <ele>1226</ele>
        <time>2024-06-05T00:35:57Z</time>
      </trkpt>
      <trkpt lat="45.02963" lon="5.97544">
        <ele>1219</ele>
        <time>2024-06-05T00:36:08Z</time>
      </trkpt>
      <trkpt lat="45.0284" lon="5.9742">
        <ele>1211</ele>
        <time>2024-06-05T00:36:35Z</time>
      </trkpt>
      <trkpt lat="45.02779" lon="5.9734">
        <ele>1204</ele>
        <time>2024-06-05T00:36:50Z</time>
      </trkpt>
      <trkpt lat="45.02749" lon="5.97309">
        <ele>1203</ele>
        <time>2024-06-05T00:36:56Z</time>
      </trkpt>
      <trkpt lat="45.02745" lon="5.97302">
        <ele>1202</ele>
        <time>2024-06-05T00:36:57Z</time>
      </trkpt>
      <trkpt lat="45.02745" lon="5.97296">
        <ele>1202</ele>
        <time>2024-06-05T00:36:58Z</time>
      </trkpt>
      <trkpt lat="45.02747" lon="5.97292">
        <ele>1201</ele>
        <time>2024-06-05T00:36:59Z</time>
      </trkpt>
      <trkpt lat="45.0275" lon="5.97291">
        <ele>1201</ele>
        <time>2024-06-05T00:36:59Z</time>
      </trkpt>
      <trkpt lat="45.02754" lon="5.97292">
        <ele>1201</ele>
        <time>2024-06-05T00:37:00Z</time>
      </trkpt>
      <trkpt lat="45.02783" lon="5.97316">
        <ele>1200</ele>
        <time>2024-06-05T00:37:06Z</time>
      </trkpt>
      <trkpt lat="45.02802" lon="5.97326">
        <ele>1199</ele>
        <time>2024-06-05T00:37:10Z</time>
      </trkpt>
      <trkpt lat="45.02857" lon="5.97352">
        <ele>1196</ele>
        <time>2024-06-05T00:37:20Z</time>
      </trkpt>
      <trkpt lat="45.02881" lon="5.97369">
        <ele>1194</ele>
        <time>2024-06-05T00:37:25Z</time>
      </trkpt>
      <trkpt lat="45.02897" lon="5.97384">
        <ele>1193</ele>
        <time>2024-06-05T00:37:28Z</time>
      </trkpt>
      <trkpt lat="45.02919" lon="5.97398">
        <ele>1190</ele>
        <time>2024-06-05T00:37:33Z</time>
      </trkpt>
      <trkpt lat="45.02977" lon="5.97421">
        <ele>1180</ele>
        <time>2024-06-05T00:37:43Z</time>
      </trkpt>
      <trkpt lat="45.0306" lon="5.97479">
        <ele>1176</ele>
        <time>2024-06-05T00:38:00Z</time>
      </trkpt>
      <trkpt lat="45.03081" lon="5.9749">
        <ele>1173</ele>
        <time>2024-06-05T00:38:04Z</time>
      </trkpt>
      <trkpt lat="45.03093" lon="5.97494">
        <ele>1172</ele>
        <time>2024-06-05T00:38:06Z</time>
      </trkpt>
      <trkpt lat="45.03136" lon="5.97495">
        <ele>1166</ele>
        <time>2024-06-05T00:38:14Z</time>
      </trkpt>
      <trkpt lat="45.03172" lon="5.97499">
        <ele>1162</ele>
        <time>2024-06-05T00:38:20Z</time>
      </trkpt>
      <trkpt lat="45.03201" lon="5.97506">
        <ele>1161</ele>
        <time>2024-06-05T00:38:25Z</time>
      </trkpt>
      <trkpt lat="45.03213" lon="5.97506">
        <ele>1159</ele>
        <time>2024-06-05T00:38:27Z</time>
      </trkpt>
      <trkpt lat="45.03246" lon="5.97495">
        <ele>1154</ele>
        <time>2024-06-05T00:38:33Z</time>
      </trkpt>
      <trkpt lat="45.03267" lon="5.97494">
        <ele>1151</ele>
        <time>2024-06-05T00:38:37Z</time>
      </trkpt>
      <trkpt lat="45.03275" lon="5.97488">
        <ele>1149</ele>
        <time>2024-06-05T00:38:39Z</time>
      </trkpt>
      <trkpt lat="45.03324" lon="5.97433">
        <ele>1139</ele>
        <time>2024-06-05T00:38:50Z</time>
      </trkpt>
      <trkpt lat="45.03334" lon="5.97424">
        <ele>1138</ele>
        <time>2024-06-05T00:38:52Z</time>
      </trkpt>
      <trkpt lat="45.03343" lon="5.97419">
        <ele>1137</ele>
        <time>2024-06-05T00:38:54Z</time>
      </trkpt>
      <trkpt lat="45.03417" lon="5.97409">
        <ele>1132</ele>
        <time>2024-06-05T00:39:07Z</time>
      </trkpt>
      <trkpt lat="45.03447" lon="5.97415">
        <ele>1127</ele>
        <time>2024-06-05T00:39:12Z</time>
      </trkpt>
      <trkpt lat="45.03464" lon="5.97424">
        <ele>1125</ele>
        <time>2024-06-05T00:39:16Z</time>
      </trkpt>
      <trkpt lat="45.03488" lon="5.97443">
        <ele>1123</ele>
        <time>2024-06-05T00:39:20Z</time>
      </trkpt>
      <trkpt lat="45.03496" lon="5.97453">
        <ele>1123</ele>
        <time>2024-06-05T00:39:22Z</time>
      </trkpt>
      <trkpt lat="45.03499" lon="5.9746">
        <ele>1123</ele>
        <time>2024-06-05T00:39:23Z</time>
      </trkpt>
      <trkpt lat="45.035" lon="5.9747">
        <ele>1125</ele>
        <time>2024-06-05T00:39:25Z</time>
      </trkpt>
      <trkpt lat="45.03498" lon="5.97497">
        <ele>1129</ele>
        <time>2024-06-05T00:39:28Z</time>
      </trkpt>
      <trkpt lat="45.03501" lon="5.97516">
        <ele>1131</ele>
        <time>2024-06-05T00:39:30Z</time>
      </trkpt>
      <trkpt lat="45.03504" lon="5.97526">
        <ele>1132</ele>
        <time>2024-06-05T00:39:32Z</time>
      </trkpt>
      <trkpt lat="45.03519" lon="5.97552">
        <ele>1131</ele>
        <time>2024-06-05T00:39:36Z</time>
      </trkpt>
      <trkpt lat="45.03549" lon="5.97589">
        <ele>1130</ele>
        <time>2024-06-05T00:39:43Z</time>
      </trkpt>
      <trkpt lat="45.03593" lon="5.97626">
        <ele>1129</ele>
        <time>2024-06-05T00:39:52Z</time>
      </trkpt>
      <trkpt lat="45.03658" lon="5.97667">
        <ele>1123</ele>
        <time>2024-06-05T00:40:05Z</time>
      </trkpt>
      <trkpt lat="45.03717" lon="5.97714">
        <ele>1112</ele>
        <time>2024-06-05T00:40:17Z</time>
      </trkpt>
      <trkpt lat="45.03753" lon="5.97739">
        <ele>1101</ele>
        <time>2024-06-05T00:40:24Z</time>
      </trkpt>
      <trkpt lat="45.03758" lon="5.97746">
        <ele>1099</ele>
        <time>2024-06-05T00:40:25Z</time>
      </trkpt>
      <trkpt lat="45.0376" lon="5.97754">
        <ele>1098</ele>
        <time>2024-06-05T00:40:26Z</time>
      </trkpt>
      <trkpt lat="45.0376" lon="5.97761">
        <ele>1097</ele>
        <time>2024-06-05T00:40:27Z</time>
      </trkpt>
      <trkpt lat="45.03758" lon="5.97769">
        <ele>1097</ele>
        <time>2024-06-05T00:40:28Z</time>
      </trkpt>
      <trkpt lat="45.03749" lon="5.97785">
        <ele>1099</ele>
        <time>2024-06-05T00:40:31Z</time>
      </trkpt>
      <trkpt lat="45.03732" lon="5.97806">
        <ele>1105</ele>
        <time>2024-06-05T00:40:35Z</time>
      </trkpt>
      <trkpt lat="45.03722" lon="5.97814">
        <ele>1109</ele>
        <time>2024-06-05T00:40:37Z</time>
      </trkpt>
      <trkpt lat="45.03709" lon="5.9782">
        <ele>1116</ele>
        <time>2024-06-05T00:40:39Z</time>
      </trkpt>
      <trkpt lat="45.03706" lon="5.97824">
        <ele>1117</ele>
        <time>2024-06-05T00:40:40Z</time>
      </trkpt>
      <trkpt lat="45.03703" lon="5.97834">
        <ele>1118</ele>
        <time>2024-06-05T00:40:42Z</time>
      </trkpt>
      <trkpt lat="45.03706" lon="5.97841">
        <ele>1115</ele>
        <time>2024-06-05T00:40:43Z</time>
      </trkpt>
      <trkpt lat="45.0371" lon="5.97842">
        <ele>1112</ele>
        <time>2024-06-05T00:40:43Z</time>
      </trkpt>
      <trkpt lat="45.03713" lon="5.97841">
        <ele>1110</ele>
        <time>2024-06-05T00:40:44Z</time>
      </trkpt>
      <trkpt lat="45.03731" lon="5.97826">
        <ele>1102</ele>
        <time>2024-06-05T00:40:48Z</time>
      </trkpt>
      <trkpt lat="45.03788" lon="5.97783">
        <ele>1078</ele>
        <time>2024-06-05T00:40:59Z</time>
      </trkpt>
      <trkpt lat="45.03792" lon="5.97777">
        <ele>1077</ele>
        <time>2024-06-05T00:41:00Z</time>
      </trkpt>
      <trkpt lat="45.03798" lon="5.97761">
        <ele>1077</ele>
        <time>2024-06-05T00:41:02Z</time>
      </trkpt>
      <trkpt lat="45.03798" lon="5.97743">
        <ele>1078</ele>
        <time>2024-06-05T00:41:05Z</time>
      </trkpt>
      <trkpt lat="45.03757" lon="5.97681">
        <ele>1089</ele>
        <time>2024-06-05T00:41:15Z</time>
      </trkpt>
      <trkpt lat="45.03745" lon="5.9764">
        <ele>1085</ele>
        <time>2024-06-05T00:41:21Z</time>
      </trkpt>
      <trkpt lat="45.03742" lon="5.97616">
        <ele>1080</ele>
        <time>2024-06-05T00:41:24Z</time>
      </trkpt>
      <trkpt lat="45.0374" lon="5.97594">
        <ele>1075</ele>
        <time>2024-06-05T00:41:27Z</time>
      </trkpt>
      <trkpt lat="45.03743" lon="5.97532">
        <ele>1068</ele>
        <time>2024-06-05T00:41:35Z</time>
      </trkpt>
      <trkpt lat="45.03738" lon="5.9751">
        <ele>1067</ele>
        <time>2024-06-05T00:41:37Z</time>
      </trkpt>
      <trkpt lat="45.03723" lon="5.97477">
        <ele>1069</ele>
        <time>2024-06-05T00:41:42Z</time>
      </trkpt>
      <trkpt lat="45.03722" lon="5.97467">
        <ele>1070</ele>
        <time>2024-06-05T00:41:44Z</time>
      </trkpt>
      <trkpt lat="45.03723" lon="5.97461">
        <ele>1070</ele>
        <time>2024-06-05T00:41:44Z</time>
      </trkpt>
      <trkpt lat="45.03726" lon="5.97457">
        <ele>1069</ele>
        <time>2024-06-05T00:41:45Z</time>
      </trkpt>
      <trkpt lat="45.03733" lon="5.97458">
        <ele>1068</ele>
        <time>2024-06-05T00:41:46Z</time>
      </trkpt>
      <trkpt lat="45.03738" lon="5.97465">
        <ele>1068</ele>
        <time>2024-06-05T00:41:48Z</time>
      </trkpt>
      <trkpt lat="45.03775" lon="5.97559">
        <ele>1064</ele>
        <time>2024-06-05T00:42:01Z</time>
      </trkpt>
      <trkpt lat="45.03813" lon="5.97646">
        <ele>1059</ele>
        <time>2024-06-05T00:42:14Z</time>
      </trkpt>
      <trkpt lat="45.03817" lon="5.97655">
        <ele>1058</ele>
        <time>2024-06-05T00:42:15Z</time>
      </trkpt>
      <trkpt lat="45.0388" lon="5.9773">
        <ele>1044</ele>
        <time>2024-06-05T00:42:30Z</time>
      </trkpt>
      <trkpt lat="45.03892" lon="5.97754">
        <ele>1040</ele>
        <time>2024-06-05T00:42:34Z</time>
      </trkpt>
      <trkpt lat="45.03897" lon="5.97759">
        <ele>1038</ele>
        <time>2024-06-05T00:42:35Z</time>
      </trkpt>
      <trkpt lat="45.03926" lon="5.97777">
        <ele>1033</ele>
        <time>2024-06-05T00:42:40Z</time>
      </trkpt>
      <trkpt lat="45.03936" lon="5.97802">
        <ele>1034</ele>
        <time>2024-06-05T00:42:44Z</time>
      </trkpt>
      <trkpt lat="45.0394" lon="5.97817">
        <ele>1034</ele>
        <time>2024-06-05T00:42:46Z</time>
      </trkpt>
      <trkpt lat="45.03958" lon="5.97829">
        <ele>1035</ele>
        <time>2024-06-05T00:42:50Z</time>
      </trkpt>
      <trkpt lat="45.03985" lon="5.97836">
        <ele>1038</ele>
        <time>2024-06-05T00:42:54Z</time>
      </trkpt>
      <trkpt lat="45.03995" lon="5.97843">
        <ele>1037</ele>
        <time>2024-06-05T00:42:56Z</time>
      </trkpt>
      <trkpt lat="45.04009" lon="5.9785">
        <ele>1038</ele>
        <time>2024-06-05T00:42:59Z</time>
      </trkpt>
      <trkpt lat="45.04038" lon="5.97881">
        <ele>1038</ele>
        <time>2024-06-05T00:43:06Z</time>
      </trkpt>
      <trkpt lat="45.04046" lon="5.97894">
        <ele>1037</ele>
        <time>2024-06-05T00:43:08Z</time>
      </trkpt>
      <trkpt lat="45.04054" lon="5.97929">
        <ele>1030</ele>
        <time>2024-06-05T00:43:12Z</time>
      </trkpt>
      <trkpt lat="45.04076" lon="5.97972">
        <ele>1027</ele>
        <time>2024-06-05T00:43:19Z</time>
      </trkpt>
      <trkpt lat="45.04079" lon="5.97984">
        <ele>1025</ele>
        <time>2024-06-05T00:43:21Z</time>
      </trkpt>
      <trkpt lat="45.04081" lon="5.98063">
        <ele>1017</ele>
        <time>2024-06-05T00:43:31Z</time>
      </trkpt>
      <trkpt lat="45.04088" lon="5.98086">
        <ele>1017</ele>
        <time>2024-06-05T00:43:34Z</time>
      </trkpt>
      <trkpt lat="45.04096" lon="5.98099">
        <ele>1018</ele>
        <time>2024-06-05T00:43:36Z</time>
      </trkpt>
      <trkpt lat="45.04115" lon="5.98122">
        <ele>1022</ele>
        <time>2024-06-05T00:43:40Z</time>
      </trkpt>
      <trkpt lat="45.04175" lon="5.98183">
        <ele>1022</ele>
        <time>2024-06-05T00:43:53Z</time>
      </trkpt>
      <trkpt lat="45.04195" lon="5.98207">
        <ele>1021</ele>
        <time>2024-06-05T00:43:58Z</time>
      </trkpt>
      <trkpt lat="45.04293" lon="5.98294">
        <ele>1019</ele>
        <time>2024-06-05T00:44:19Z</time>
      </trkpt>
      <trkpt lat="45.04317" lon="5.98308">
        <ele>1019</ele>
        <time>2024-06-05T00:44:23Z</time>
      </trkpt>
      <trkpt lat="45.04373" lon="5.9832">
        <ele>1030</ele>
        <time>2024-06-05T00:44:33Z</time>
      </trkpt>
      <trkpt lat="45.04386" lon="5.98325">
        <ele>1032</ele>
        <time>2024-06-05T00:44:36Z</time>
      </trkpt>
      <trkpt lat="45.04395" lon="5.98331">
        <ele>1032</ele>
        <time>2024-06-05T00:44:38Z</time>
      </trkpt>
      <trkpt lat="45.04405" lon="5.98346">
        <ele>1029</ele>
        <time>2024-06-05T00:44:40Z</time>
      </trkpt>
      <trkpt lat="45.04417" lon="5.98368">
        <ele>1023</ele>
        <time>2024-06-05T00:44:44Z</time>
      </trkpt>
      <trkpt lat="45.04434" lon="5.98394">
        <ele>1016</ele>
        <time>2024-06-05T00:44:48Z</time>
      </trkpt>
      <trkpt lat="45.04448" lon="5.98411">
        <ele>1013</ele>
        <time>2024-06-05T00:44:51Z</time>
      </trkpt>
      <trkpt lat="45.04462" lon="5.98426">
        <ele>1011</ele>
        <time>2024-06-05T00:44:55Z</time>
      </trkpt>
      <trkpt lat="45.04479" lon="5.98438">
        <ele>1011</ele>
        <time>2024-06-05T00:44:58Z</time>
      </trkpt>
      <trkpt lat="45.045" lon="5.98447">
        <ele>1013</ele>
        <time>2024-06-05T00:45:02Z</time>
      </trkpt>
      <trkpt lat="45.04514" lon="5.98451">
        <ele>1013</ele>
        <time>2024-06-05T00:45:04Z</time>
      </trkpt>
      <trkpt lat="45.04557" lon="5.98452">
        <ele>1018</ele>
        <time>2024-06-05T00:45:12Z</time>
      </trkpt>
      <trkpt lat="45.04653" lon="5.9846">
        <ele>1018</ele>
        <time>2024-06-05T00:45:29Z</time>
      </trkpt>
      <trkpt lat="45.04723" lon="5.98461">
        <ele>1013</ele>
        <time>2024-06-05T00:45:42Z</time>
      </trkpt>
      <trkpt lat="45.04748" lon="5.98468">
        <ele>1007</ele>
        <time>2024-06-05T00:45:46Z</time>
      </trkpt>
      <trkpt lat="45.04796" lon="5.98494">
        <ele>995</ele>
        <time>2024-06-05T00:45:55Z</time>
      </trkpt>
      <trkpt lat="45.04817" lon="5.98496">
        <ele>994</ele>
        <time>2024-06-05T00:45:59Z</time>
      </trkpt>
      <trkpt lat="45.0483" lon="5.98493">
        <ele>996</ele>
        <time>2024-06-05T00:46:01Z</time>
      </trkpt>
      <trkpt lat="45.04848" lon="5.98486">
        <ele>999</ele>
        <time>2024-06-05T00:46:05Z</time>
      </trkpt>
      <trkpt lat="45.04861" lon="5.98485">
        <ele>1000</ele>
        <time>2024-06-05T00:46:07Z</time>
      </trkpt>
      <trkpt lat="45.04875" lon="5.98493">
        <ele>996</ele>
        <time>2024-06-05T00:46:10Z</time>
      </trkpt>
      <trkpt lat="45.04907" lon="5.9853">
        <ele>982</ele>
        <time>2024-06-05T00:46:17Z</time>
      </trkpt>
      <trkpt lat="45.04916" lon="5.98537">
        <ele>981</ele>
        <time>2024-06-05T00:46:19Z</time>
      </trkpt>
      <trkpt lat="45.04935" lon="5.98537">
        <ele>981</ele>
        <time>2024-06-05T00:46:22Z</time>
      </trkpt>
      <trkpt lat="45.04957" lon="5.98532">
        <ele>984</ele>
        <time>2024-06-05T00:46:26Z</time>
      </trkpt>
      <trkpt lat="45.04978" lon="5.98538">
        <ele>983</ele>
        <time>2024-06-05T00:46:30Z</time>
      </trkpt>
      <trkpt lat="45.05004" lon="5.98555">
        <ele>981</ele>
        <time>2024-06-05T00:46:35Z</time>
      </trkpt>
      <trkpt lat="45.05012" lon="5.98568">
        <ele>979</ele>
        <time>2024-06-05T00:46:37Z</time>
      </trkpt>
      <trkpt lat="45.05014" lon="5.98587">
        <ele>975</ele>
        <time>2024-06-05T00:46:40Z</time>
      </trkpt>
      <trkpt lat="45.05011" lon="5.98625">
        <ele>964</ele>
        <time>2024-06-05T00:46:45Z</time>
      </trkpt>
      <trkpt lat="45.05014" lon="5.98642">
        <ele>960</ele>
        <time>2024-06-05T00:46:47Z</time>
      </trkpt>
      <trkpt lat="45.05021" lon="5.9867">
        <ele>955</ele>
        <time>2024-06-05T00:46:50Z</time>
      </trkpt>
      <trkpt lat="45.05029" lon="5.9869">
        <ele>953</ele>
        <time>2024-06-05T00:46:53Z</time>
      </trkpt>
      <trkpt lat="45.05045" lon="5.98705">
        <ele>954</ele>
        <time>2024-06-05T00:46:57Z</time>
      </trkpt>
      <trkpt lat="45.05063" lon="5.98715">
        <ele>957</ele>
        <time>2024-06-05T00:47:00Z</time>
      </trkpt>
      <trkpt lat="45.05075" lon="5.98719">
        <ele>960</ele>
        <time>2024-06-05T00:47:02Z</time>
      </trkpt>
      <trkpt lat="45.05108" lon="5.98716">
        <ele>968</ele>
        <time>2024-06-05T00:47:08Z</time>
      </trkpt>
      <trkpt lat="45.0512" lon="5.98717">
        <ele>969</ele>
        <time>2024-06-05T00:47:10Z</time>
      </trkpt>
      <trkpt lat="45.05133" lon="5.98723">
        <ele>969</ele>
        <time>2024-06-05T00:47:13Z</time>
      </trkpt>
      <trkpt lat="45.05137" lon="5.98729">
        <ele>968</ele>
        <time>2024-06-05T00:47:14Z</time>
      </trkpt>
      <trkpt lat="45.05141" lon="5.98738">
        <ele>966</ele>
        <time>2024-06-05T00:47:15Z</time>
      </trkpt>
      <trkpt lat="45.05142" lon="5.98751">
        <ele>963</ele>
        <time>2024-06-05T00:47:17Z</time>
      </trkpt>
      <trkpt lat="45.05141" lon="5.98787">
        <ele>957</ele>
        <time>2024-06-05T00:47:21Z</time>
      </trkpt>
      <trkpt lat="45.0514" lon="5.98808">
        <ele>954</ele>
        <time>2024-06-05T00:47:24Z</time>
      </trkpt>
      <trkpt lat="45.0514" lon="5.98823">
        <ele>952</ele>
        <time>2024-06-05T00:47:26Z</time>
      </trkpt>
      <trkpt lat="45.05145" lon="5.98844">
        <ele>950</ele>
        <time>2024-06-05T00:47:29Z</time>
      </trkpt>
      <trkpt lat="45.05163" lon="5.98899">
        <ele>947</ele>
        <time>2024-06-05T00:47:36Z</time>
      </trkpt>
      <trkpt lat="45.05175" lon="5.98915">
        <ele>947</ele>
        <time>2024-06-05T00:47:39Z</time>
      </trkpt>
      <trkpt lat="45.05195" lon="5.98934">
        <ele>945</ele>
        <time>2024-06-05T00:47:44Z</time>
      </trkpt>
      <trkpt lat="45.05205" lon="5.98947">
        <ele>943</ele>
        <time>2024-06-05T00:47:46Z</time>
      </trkpt>
      <trkpt lat="45.05232" lon="5.98977">
        <ele>939</ele>
        <time>2024-06-05T00:47:52Z</time>
      </trkpt>
      <trkpt lat="45.05252" lon="5.98986">
        <ele>939</ele>
        <time>2024-06-05T00:47:56Z</time>
      </trkpt>
      <trkpt lat="45.05283" lon="5.98985">
        <ele>938</ele>
        <time>2024-06-05T00:48:01Z</time>
      </trkpt>
      <trkpt lat="45.05316" lon="5.98975">
        <ele>938</ele>
        <time>2024-06-05T00:48:07Z</time>
      </trkpt>
      <trkpt lat="45.05342" lon="5.9898">
        <ele>934</ele>
        <time>2024-06-05T00:48:12Z</time>
      </trkpt>
      <trkpt lat="45.05352" lon="5.98977">
        <ele>933</ele>
        <time>2024-06-05T00:48:14Z</time>
      </trkpt>
      <trkpt lat="45.05378" lon="5.9895">
        <ele>933</ele>
        <time>2024-06-05T00:48:20Z</time>
      </trkpt>
      <trkpt lat="45.05392" lon="5.98941">
        <ele>932</ele>
        <time>2024-06-05T00:48:22Z</time>
      </trkpt>
      <trkpt lat="45.05417" lon="5.9893">
        <ele>929</ele>
        <time>2024-06-05T00:48:27Z</time>
      </trkpt>
      <trkpt lat="45.05464" lon="5.98902">
        <ele>931</ele>
        <time>2024-06-05T00:48:36Z</time>
      </trkpt>
      <trkpt lat="45.05477" lon="5.989">
        <ele>930</ele>
        <time>2024-06-05T00:48:38Z</time>
      </trkpt>
      <trkpt lat="45.05498" lon="5.98906">
        <ele>927</ele>
        <time>2024-06-05T00:48:42Z</time>
      </trkpt>
      <trkpt lat="45.05511" lon="5.98912">
        <ele>927</ele>
        <time>2024-06-05T00:48:45Z</time>
      </trkpt>
      <trkpt lat="45.05569" lon="5.98938">
        <ele>931</ele>
        <time>2024-06-05T00:48:55Z</time>
      </trkpt>
      <trkpt lat="45.05578" lon="5.98952">
        <ele>931</ele>
        <time>2024-06-05T00:48:58Z</time>
      </trkpt>
      <trkpt lat="45.05585" lon="5.98975">
        <ele>931</ele>
        <time>2024-06-05T00:49:01Z</time>
      </trkpt>
      <trkpt lat="45.05587" lon="5.99009">
        <ele>930</ele>
        <time>2024-06-05T00:49:05Z</time>
      </trkpt>
      <trkpt lat="45.05584" lon="5.99042">
        <ele>930</ele>
        <time>2024-06-05T00:49:09Z</time>
      </trkpt>
      <trkpt lat="45.05566" lon="5.99116">
        <ele>927</ele>
        <time>2024-06-05T00:49:19Z</time>
      </trkpt>
      <trkpt lat="45.05554" lon="5.99187">
        <ele>923</ele>
        <time>2024-06-05T00:49:28Z</time>
      </trkpt>
      <trkpt lat="45.05541" lon="5.99221">
        <ele>915</ele>
        <time>2024-06-05T00:49:33Z</time>
      </trkpt>
      <trkpt lat="45.05535" lon="5.99238">
        <ele>910</ele>
        <time>2024-06-05T00:49:36Z</time>
      </trkpt>
      <trkpt lat="45.05535" lon="5.99245">
        <ele>910</ele>
        <time>2024-06-05T00:49:37Z</time>
      </trkpt>
      <trkpt lat="45.0554" lon="5.99259">
        <ele>911</ele>
        <time>2024-06-05T00:49:39Z</time>
      </trkpt>
      <trkpt lat="45.05548" lon="5.99265">
        <ele>914</ele>
        <time>2024-06-05T00:49:40Z</time>
      </trkpt>
      <trkpt lat="45.05563" lon="5.99269">
        <ele>920</ele>
        <time>2024-06-05T00:49:43Z</time>
      </trkpt>
      <trkpt lat="45.05576" lon="5.99277">
        <ele>925</ele>
        <time>2024-06-05T00:49:45Z</time>
      </trkpt>
      <trkpt lat="45.05613" lon="5.99321">
        <ele>929</ele>
        <time>2024-06-05T00:49:54Z</time>
      </trkpt>
      <trkpt lat="45.05632" lon="5.99336">
        <ele>932</ele>
        <time>2024-06-05T00:49:58Z</time>
      </trkpt>
      <trkpt lat="45.05665" lon="5.99358">
        <ele>934</ele>
        <time>2024-06-05T00:50:04Z</time>
      </trkpt>
      <trkpt lat="45.0571" lon="5.99396">
        <ele>928</ele>
        <time>2024-06-05T00:50:14Z</time>
      </trkpt>
      <trkpt lat="45.05781" lon="5.99423">
        <ele>928</ele>
        <time>2024-06-05T00:50:27Z</time>
      </trkpt>
      <trkpt lat="45.05797" lon="5.99427">
        <ele>930</ele>
        <time>2024-06-05T00:50:30Z</time>
      </trkpt>
      <trkpt lat="45.0582" lon="5.99422">
        <ele>939</ele>
        <time>2024-06-05T00:50:34Z</time>
      </trkpt>
      <trkpt lat="45.05827" lon="5.99423">
        <ele>941</ele>
        <time>2024-06-05T00:50:35Z</time>
      </trkpt>
      <trkpt lat="45.05833" lon="5.99428">
        <ele>940</ele>
        <time>2024-06-05T00:50:36Z</time>
      </trkpt>
      <trkpt lat="45.05843" lon="5.99454">
        <ele>929</ele>
        <time>2024-06-05T00:50:40Z</time>
      </trkpt>
      <trkpt lat="45.05851" lon="5.99468">
        <ele>925</ele>
        <time>2024-06-05T00:50:42Z</time>
      </trkpt>
      <trkpt lat="45.05859" lon="5.99478">
        <ele>923</ele>
        <time>2024-06-05T00:50:44Z</time>
      </trkpt>
      <trkpt lat="45.05882" lon="5.99496">
        <ele>925</ele>
        <time>2024-06-05T00:50:49Z</time>
      </trkpt>
      <trkpt lat="45.05893" lon="5.99509">
        <ele>921</ele>
        <time>2024-06-05T00:50:51Z</time>
      </trkpt>
      <trkpt lat="45.05918" lon="5.99543">
        <ele>909</ele>
        <time>2024-06-05T00:50:58Z</time>
      </trkpt>
      <trkpt lat="45.05928" lon="5.99552">
        <ele>906</ele>
        <time>2024-06-05T00:51:00Z</time>
      </trkpt>
      <trkpt lat="45.05936" lon="5.99556">
        <ele>907</ele>
        <time>2024-06-05T00:51:01Z</time>
      </trkpt>
      <trkpt lat="45.05944" lon="5.99556">
        <ele>910</ele>
        <time>2024-06-05T00:51:03Z</time>
      </trkpt>
      <trkpt lat="45.05967" lon="5.99548">
        <ele>925</ele>
        <time>2024-06-05T00:51:07Z</time>
      </trkpt>
      <trkpt lat="45.05973" lon="5.99547">
        <ele>928</ele>
        <time>2024-06-05T00:51:08Z</time>
      </trkpt>
      <trkpt lat="45.05985" lon="5.9955">
        <ele>931</ele>
        <time>2024-06-05T00:51:10Z</time>
      </trkpt>
      <trkpt lat="45.06052" lon="5.99606">
        <ele>904</ele>
        <time>2024-06-05T00:51:24Z</time>
      </trkpt>
      <trkpt lat="45.06062" lon="5.99609">
        <ele>904</ele>
        <time>2024-06-05T00:51:26Z</time>
      </trkpt>
      <trkpt lat="45.06078" lon="5.99608">
        <ele>909</ele>
        <time>2024-06-05T00:51:29Z</time>
      </trkpt>
      <trkpt lat="45.061" lon="5.99622">
        <ele>899</ele>
        <time>2024-06-05T00:51:33Z</time>
      </trkpt>
      <trkpt lat="45.06107" lon="5.99622">
        <ele>899</ele>
        <time>2024-06-05T00:51:34Z</time>
      </trkpt>
      <trkpt lat="45.06124" lon="5.99616">
        <ele>905</ele>
        <time>2024-06-05T00:51:37Z</time>
      </trkpt>
      <trkpt lat="45.06146" lon="5.99613">
        <ele>909</ele>
        <time>2024-06-05T00:51:41Z</time>
      </trkpt>
      <trkpt lat="45.06162" lon="5.99608">
        <ele>915</ele>
        <time>2024-06-05T00:51:44Z</time>
      </trkpt>
      <trkpt lat="45.06173" lon="5.9961">
        <ele>915</ele>
        <time>2024-06-05T00:51:46Z</time>
      </trkpt>
      <trkpt lat="45.06184" lon="5.99619">
        <ele>910</ele>
        <time>2024-06-05T00:51:48Z</time>
      </trkpt>
      <trkpt lat="45.06209" lon="5.99632">
        <ele>906</ele>
        <time>2024-06-05T00:51:53Z</time>
      </trkpt>
      <trkpt lat="45.06249" lon="5.99675">
        <ele>889</ele>
        <time>2024-06-05T00:52:02Z</time>
      </trkpt>
      <trkpt lat="45.06292" lon="5.99712">
        <ele>879</ele>
        <time>2024-06-05T00:52:11Z</time>
      </trkpt>
      <trkpt lat="45.06304" lon="5.9972">
        <ele>878</ele>
        <time>2024-06-05T00:52:13Z</time>
      </trkpt>
      <trkpt lat="45.06322" lon="5.99727">
        <ele>880</ele>
        <time>2024-06-05T00:52:17Z</time>
      </trkpt>
      <trkpt lat="45.06353" lon="5.99746">
        <ele>875</ele>
        <time>2024-06-05T00:52:23Z</time>
      </trkpt>
      <trkpt lat="45.06391" lon="5.99753">
        <ele>876</ele>
        <time>2024-06-05T00:52:29Z</time>
      </trkpt>
      <trkpt lat="45.064" lon="5.9975">
        <ele>880</ele>
        <time>2024-06-05T00:52:31Z</time>
      </trkpt>
      <trkpt lat="45.06413" lon="5.99738">
        <ele>889</ele>
        <time>2024-06-05T00:52:34Z</time>
      </trkpt>
      <trkpt lat="45.06421" lon="5.99738">
        <ele>891</ele>
        <time>2024-06-05T00:52:35Z</time>
      </trkpt>
      <trkpt lat="45.06432" lon="5.99745">
        <ele>889</ele>
        <time>2024-06-05T00:52:37Z</time>
      </trkpt>
      <trkpt lat="45.06488" lon="5.99801">
        <ele>865</ele>
        <time>2024-06-05T00:52:50Z</time>
      </trkpt>
      <trkpt lat="45.06498" lon="5.99808">
        <ele>863</ele>
        <time>2024-06-05T00:52:52Z</time>
      </trkpt>
      <trkpt lat="45.06524" lon="5.99821">
        <ele>864</ele>
        <time>2024-06-05T00:52:56Z</time>
      </trkpt>
      <trkpt lat="45.06542" lon="5.99836">
        <ele>861</ele>
        <time>2024-06-05T00:53:00Z</time>
      </trkpt>
      <trkpt lat="45.06594" lon="5.99898">
        <ele>840</ele>
        <time>2024-06-05T00:53:12Z</time>
      </trkpt>
      <trkpt lat="45.06607" lon="5.9991">
        <ele>838</ele>
        <time>2024-06-05T00:53:15Z</time>
      </trkpt>
      <trkpt lat="45.06625" lon="5.99922">
        <ele>838</ele>
        <time>2024-06-05T00:53:19Z</time>
      </trkpt>
      <trkpt lat="45.06642" lon="5.99929">
        <ele>840</ele>
        <time>2024-06-05T00:53:22Z</time>
      </trkpt>
      <trkpt lat="45.06676" lon="5.99941">
        <ele>842</ele>
        <time>2024-06-05T00:53:28Z</time>
      </trkpt>
      <trkpt lat="45.06688" lon="5.99939">
        <ele>848</ele>
        <time>2024-06-05T00:53:30Z</time>
      </trkpt>
      <trkpt lat="45.06703" lon="5.99928">
        <ele>865</ele>
        <time>2024-06-05T00:53:33Z</time>
      </trkpt>
      <trkpt lat="45.0671" lon="5.99927">
        <ele>869</ele>
        <time>2024-06-05T00:53:34Z</time>
      </trkpt>
      <trkpt lat="45.06717" lon="5.99928">
        <ele>870</ele>
        <time>2024-06-05T00:53:36Z</time>
      </trkpt>
      <trkpt lat="45.06795" lon="5.99966">
        <ele>851</ele>
        <time>2024-06-05T00:53:50Z</time>
      </trkpt>
      <trkpt lat="45.06805" lon="5.99973">
        <ele>848</ele>
        <time>2024-06-05T00:53:52Z</time>
      </trkpt>
      <trkpt lat="45.06811" lon="5.9998">
        <ele>844</ele>
        <time>2024-06-05T00:53:54Z</time>
      </trkpt>
      <trkpt lat="45.06821" lon="5.99999">
        <ele>832</ele>
        <time>2024-06-05T00:53:57Z</time>
      </trkpt>
      <trkpt lat="45.06836" lon="6.00019">
        <ele>828</ele>
        <time>2024-06-05T00:54:00Z</time>
      </trkpt>
      <trkpt lat="45.06853" lon="6.00033">
        <ele>821</ele>
        <time>2024-06-05T00:54:04Z</time>
      </trkpt>
      <trkpt lat="45.06869" lon="6.00041">
        <ele>817</ele>
        <time>2024-06-05T00:54:07Z</time>
      </trkpt>
      <trkpt lat="45.0688" lon="6.00043">
        <ele>817</ele>
        <time>2024-06-05T00:54:09Z</time>
      </trkpt>
      <trkpt lat="45.06892" lon="6.00036">
        <ele>821</ele>
        <time>2024-06-05T00:54:11Z</time>
      </trkpt>
      <trkpt lat="45.06915" lon="5.99992">
        <ele>843</ele>
        <time>2024-06-05T00:54:18Z</time>
      </trkpt>
      <trkpt lat="45.06922" lon="5.99985">
        <ele>846</ele>
        <time>2024-06-05T00:54:20Z</time>
      </trkpt>
      <trkpt lat="45.06932" lon="5.99983">
        <ele>846</ele>
        <time>2024-06-05T00:54:21Z</time>
      </trkpt>
      <trkpt lat="45.06954" lon="5.99989">
        <ele>839</ele>
        <time>2024-06-05T00:54:25Z</time>
      </trkpt>
      <trkpt lat="45.06975" lon="5.99984">
        <ele>839</ele>
        <time>2024-06-05T00:54:29Z</time>
      </trkpt>
      <trkpt lat="45.06981" lon="5.99985">
        <ele>837</ele>
        <time>2024-06-05T00:54:30Z</time>
      </trkpt>
      <trkpt lat="45.06992" lon="5.99995">
        <ele>832</ele>
        <time>2024-06-05T00:54:33Z</time>
      </trkpt>
      <trkpt lat="45.06994" lon="6.00003">
        <ele>830</ele>
        <time>2024-06-05T00:54:34Z</time>
      </trkpt>
      <trkpt lat="45.06995" lon="6.00011">
        <ele>830</ele>
        <time>2024-06-05T00:54:35Z</time>
      </trkpt>
      <trkpt lat="45.06989" lon="6.00028">
        <ele>828</ele>
        <time>2024-06-05T00:54:37Z</time>
      </trkpt>
      <trkpt lat="45.06973" lon="6.00051">
        <ele>823</ele>
        <time>2024-06-05T00:54:41Z</time>
      </trkpt>
      <trkpt lat="45.06968" lon="6.00061">
        <ele>821</ele>
        <time>2024-06-05T00:54:43Z</time>
      </trkpt>
      <trkpt lat="45.06959" lon="6.00136">
        <ele>805</ele>
        <time>2024-06-05T00:54:52Z</time>
      </trkpt>
      <trkpt lat="45.06959" lon="6.00154">
        <ele>802</ele>
        <time>2024-06-05T00:54:54Z</time>
      </trkpt>
      <trkpt lat="45.06963" lon="6.00193">
        <ele>792</ele>
        <time>2024-06-05T00:54:59Z</time>
      </trkpt>
      <trkpt lat="45.06971" lon="6.00209">
        <ele>788</ele>
        <time>2024-06-05T00:55:02Z</time>
      </trkpt>
      <trkpt lat="45.06978" lon="6.00216">
        <ele>787</ele>
        <time>2024-06-05T00:55:03Z</time>
      </trkpt>
      <trkpt lat="45.06987" lon="6.0022">
        <ele>788</ele>
        <time>2024-06-05T00:55:05Z</time>
      </trkpt>
      <trkpt lat="45.07039" lon="6.00225">
        <ele>812</ele>
        <time>2024-06-05T00:55:14Z</time>
      </trkpt>
      <trkpt lat="45.07051" lon="6.0023">
        <ele>817</ele>
        <time>2024-06-05T00:55:17Z</time>
      </trkpt>
      <trkpt lat="45.07055" lon="6.00234">
        <ele>817</ele>
        <time>2024-06-05T00:55:17Z</time>
      </trkpt>
      <trkpt lat="45.07086" lon="6.00292">
        <ele>807</ele>
        <time>2024-06-05T00:55:27Z</time>
      </trkpt>
      <trkpt lat="45.07114" lon="6.00329">
        <ele>810</ele>
        <time>2024-06-05T00:55:33Z</time>
      </trkpt>
      <trkpt lat="45.07129" lon="6.00352">
        <ele>814</ele>
        <time>2024-06-05T00:55:37Z</time>
      </trkpt>
      <trkpt lat="45.07137" lon="6.00371">
        <ele>814</ele>
        <time>2024-06-05T00:55:40Z</time>
      </trkpt>
      <trkpt lat="45.0714" lon="6.00388">
        <ele>811</ele>
        <time>2024-06-05T00:55:42Z</time>
      </trkpt>
      <trkpt lat="45.0714" lon="6.00406">
        <ele>806</ele>
        <time>2024-06-05T00:55:45Z</time>
      </trkpt>
      <trkpt lat="45.07139" lon="6.00425">
        <ele>800</ele>
        <time>2024-06-05T00:55:47Z</time>
      </trkpt>
      <trkpt lat="45.07135" lon="6.0045">
        <ele>791</ele>
        <time>2024-06-05T00:55:50Z</time>
      </trkpt>
      <trkpt lat="45.07136" lon="6.00463">
        <ele>788</ele>
        <time>2024-06-05T00:55:52Z</time>
      </trkpt>
      <trkpt lat="45.07142" lon="6.00481">
        <ele>786</ele>
        <time>2024-06-05T00:55:54Z</time>
      </trkpt>
      <trkpt lat="45.07161" lon="6.00522">
        <ele>785</ele>
        <time>2024-06-05T00:56:00Z</time>
      </trkpt>
      <trkpt lat="45.07183" lon="6.00613">
        <ele>788</ele>
        <time>2024-06-05T00:56:13Z</time>
      </trkpt>
      <trkpt lat="45.07188" lon="6.00638">
        <ele>789</ele>
        <time>2024-06-05T00:56:16Z</time>
      </trkpt>
      <trkpt lat="45.07187" lon="6.00661">
        <ele>787</ele>
        <time>2024-06-05T00:56:19Z</time>
      </trkpt>
      <trkpt lat="45.07184" lon="6.0067">
        <ele>784</ele>
        <time>2024-06-05T00:56:20Z</time>
      </trkpt>
      <trkpt lat="45.07161" lon="6.00714">
        <ele>770</ele>
        <time>2024-06-05T00:56:27Z</time>
      </trkpt>
      <trkpt lat="45.07158" lon="6.00735">
        <ele>768</ele>
        <time>2024-06-05T00:56:30Z</time>
      </trkpt>
      <trkpt lat="45.0716" lon="6.00746">
        <ele>768</ele>
        <time>2024-06-05T00:56:31Z</time>
      </trkpt>
      <trkpt lat="45.07196" lon="6.00899">
        <ele>754</ele>
        <time>2024-06-05T00:56:51Z</time>
      </trkpt>
      <trkpt lat="45.07199" lon="6.00926">
        <ele>749</ele>
        <time>2024-06-05T00:56:55Z</time>
      </trkpt>
      <trkpt lat="45.07199" lon="6.00986">
        <ele>740</ele>
        <time>2024-06-05T00:57:02Z</time>
      </trkpt>
      <trkpt lat="45.07201" lon="6.01003">
        <ele>737</ele>
        <time>2024-06-05T00:57:04Z</time>
      </trkpt>
      <trkpt lat="45.07204" lon="6.0102">
        <ele>736</ele>
        <time>2024-06-05T00:57:07Z</time>
      </trkpt>
      <trkpt lat="45.07216" lon="6.01064">
        <ele>733</ele>
        <time>2024-06-05T00:57:12Z</time>
      </trkpt>
      <trkpt lat="45.07344" lon="6.0142">
        <ele>729</ele>
        <time>2024-06-05T00:58:03Z</time>
      </trkpt>
      <trkpt lat="45.07359" lon="6.01451">
        <ele>728</ele>
        <time>2024-06-05T00:58:07Z</time>
      </trkpt>
      <trkpt lat="45.07377" lon="6.01482">
        <ele>728</ele>
        <time>2024-06-05T00:58:12Z</time>
      </trkpt>
      <trkpt lat="45.07382" lon="6.01493">
        <ele>727</ele>
        <time>2024-06-05T00:58:14Z</time>
      </trkpt>
      <trkpt lat="45.07387" lon="6.01515">
        <ele>727</ele>
        <time>2024-06-05T00:58:17Z</time>
      </trkpt>
      <trkpt lat="45.07388" lon="6.01526">
        <ele>727</ele>
        <time>2024-06-05T00:58:18Z</time>
      </trkpt>
      <trkpt lat="45.07387" lon="6.01538">
        <ele>727</ele>
        <time>2024-06-05T00:58:20Z</time>
      </trkpt>
      <trkpt lat="45.0738" lon="6.01556">
        <ele>728</ele>
        <time>2024-06-05T00:58:22Z</time>
      </trkpt>
      <trkpt lat="45.07371" lon="6.0157">
        <ele>728</ele>
        <time>2024-06-05T00:58:25Z</time>
      </trkpt>
      <trkpt lat="45.07365" lon="6.01576">
        <ele>728</ele>
        <time>2024-06-05T00:58:26Z</time>
      </trkpt>
      <trkpt lat="45.07332" lon="6.01598">
        <ele>728</ele>
        <time>2024-06-05T00:58:33Z</time>
      </trkpt>
      <trkpt lat="45.07302" lon="6.0162">
        <ele>730</ele>
        <time>2024-06-05T00:58:39Z</time>
      </trkpt>
      <trkpt lat="45.07228" lon="6.01697">
        <ele>732</ele>
        <time>2024-06-05T00:58:55Z</time>
      </trkpt>
      <trkpt lat="45.07214" lon="6.01714">
        <ele>733</ele>
        <time>2024-06-05T00:58:58Z</time>
      </trkpt>
      <trkpt lat="45.07207" lon="6.01732">
        <ele>733</ele>
        <time>2024-06-05T00:59:01Z</time>
      </trkpt>
      <trkpt lat="45.07206" lon="6.01752">
        <ele>732</ele>
        <time>2024-06-05T00:59:03Z</time>
      </trkpt>
      <trkpt lat="45.07207" lon="6.01762">
        <ele>731</ele>
        <time>2024-06-05T00:59:05Z</time>
      </trkpt>
      <trkpt lat="45.07216" lon="6.01799">
        <ele>728</ele>
        <time>2024-06-05T00:59:10Z</time>
      </trkpt>
      <trkpt lat="45.07115" lon="6.0188">
        <ele>748</ele>
        <time>2024-06-05T00:59:30Z</time>
      </trkpt>
      <trkpt lat="45.06992" lon="6.01967">
        <ele>726</ele>
        <time>2024-06-05T00:59:55Z</time>
      </trkpt>
      <trkpt lat="45.06872" lon="6.02057">
        <ele>717</ele>
        <time>2024-06-05T01:00:19Z</time>
      </trkpt>
      <trkpt lat="45.06688" lon="6.02201">
        <ele>716</ele>
        <time>2024-06-05T01:00:56Z</time>
      </trkpt>
      <trkpt lat="45.06584" lon="6.02278">
        <ele>721</ele>
        <time>2024-06-05T01:01:17Z</time>
      </trkpt>
      <trkpt lat="45.06396" lon="6.02425">
        <ele>719</ele>
        <time>2024-06-05T01:01:55Z</time>
      </trkpt>
      <trkpt lat="45.06366" lon="6.02438">
        <ele>719</ele>
        <time>2024-06-05T01:02:01Z</time>
      </trkpt>
      <trkpt lat="45.06355" lon="6.02435">
        <ele>719</ele>
        <time>2024-06-05T01:02:03Z</time>
      </trkpt>
      <trkpt lat="45.06349" lon="6.02439">
        <ele>719</ele>
        <time>2024-06-05T01:02:04Z</time>
      </trkpt>
      <trkpt lat="45.06344" lon="6.02445">
        <ele>719</ele>
        <time>2024-06-05T01:02:05Z</time>
      </trkpt>
      <trkpt lat="45.0634" lon="6.02453">
        <ele>719</ele>
        <time>2024-06-05T01:02:07Z</time>
      </trkpt>
      <trkpt lat="45.06339" lon="6.02463">
        <ele>719</ele>
        <time>2024-06-05T01:02:08Z</time>
      </trkpt>
      <trkpt lat="45.06307" lon="6.0249">
        <ele>718</ele>
        <time>2024-06-05T01:02:14Z</time>
      </trkpt>
      <trkpt lat="45.06264" lon="6.02521">
        <ele>718</ele>
        <time>2024-06-05T01:02:23Z</time>
      </trkpt>
      <trkpt lat="45.06175" lon="6.0259">
        <ele>715</ele>
        <time>2024-06-05T01:02:41Z</time>
      </trkpt>
      <trkpt lat="45.0616" lon="6.02597">
        <ele>715</ele>
        <time>2024-06-05T01:02:44Z</time>
      </trkpt>
      <trkpt lat="45.06137" lon="6.02613">
        <ele>715</ele>
        <time>2024-06-05T01:02:48Z</time>
      </trkpt>
      <trkpt lat="45.06087" lon="6.02657">
        <ele>717</ele>
        <time>2024-06-05T01:02:59Z</time>
      </trkpt>
      <trkpt lat="45.05767" lon="6.02899">
        <ele>722</ele>
        <time>2024-06-05T01:04:03Z</time>
      </trkpt>
      <trkpt lat="45.05737" lon="6.02919">
        <ele>721</ele>
        <time>2024-06-05T01:04:09Z</time>
      </trkpt>
      <trkpt lat="45.05723" lon="6.02926">
        <ele>722</ele>
        <time>2024-06-05T01:04:12Z</time>
      </trkpt>
      <trkpt lat="45.05683" lon="6.02945">
        <ele>722</ele>
        <time>2024-06-05T01:04:19Z</time>
      </trkpt>
      <trkpt lat="45.05662" lon="6.0295">
        <ele>722</ele>
        <time>2024-06-05T01:04:23Z</time>
      </trkpt>
      <trkpt lat="45.05665" lon="6.0296">
        <ele>722</ele>
        <time>2024-06-05T01:04:25Z</time>
      </trkpt>
    </trkseg>
  </trk>
</gpx>